Wetterdaten: Dienstag, 22.03.2016
Datum Zeit Temp. A. Feuchte A. Luftdruck Regen Wind Richtung Richtung Sonnenschein ET UV Solar Taupunkt Windchill Windben Empfang
22.03.2016 00:00 5,2 C 79 % 1014,0 hPa 0,0 l/m 7,3 km/h (2 Bft) W 259 0 min 0,000 mm 0,0 UV-I 0 W/m 1,9 C 4,4 C 11,3 km/h (2 Bft) 100,00 %
22.03.2016 00:02 5,3 C 79 % 1013,9 hPa 0,0 l/m 8,1 km/h (2 Bft) W 261 0 min 0,000 mm 0,0 UV-I 0 W/m 2,0 C 3,8 C 11,3 km/h (2 Bft) 97,14 %
22.03.2016 00:03 5,3 C 79 % 1014,0 hPa 0,0 l/m 7,4 km/h (2 Bft) W 269 0 min 0,000 mm 0,0 UV-I 0 W/m 2,0 C 4,4 C 11,3 km/h (2 Bft) 100,00 %
22.03.2016 00:04 5,3 C 79 % 1014,0 hPa 0,0 l/m 7,2 km/h (2 Bft) W-SW 243 0 min 0,000 mm 0,0 UV-I 0 W/m 2,0 C 4,6 C 11,3 km/h (2 Bft) 96,15 %
22.03.2016 00:05 5,3 C 79 % 1013,9 hPa 0,0 l/m 6,9 km/h (2 Bft) W 259 0 min 0,000 mm 0,0 UV-I 0 W/m 2,0 C 4,9 C 11,3 km/h (2 Bft) 100,00 %
22.03.2016 00:06 5,3 C 79 % 1013,9 hPa 0,0 l/m 6,8 km/h (2 Bft) W 261 0 min 0,000 mm 0,0 UV-I 0 W/m 2,0 C 5,0 C 11,3 km/h (2 Bft) 100,00 %
22.03.2016 00:07 5,3 C 79 % 1013,9 hPa 0,0 l/m 5,1 km/h (1 Bft) W 264 0 min 0,000 mm 0,0 UV-I 0 W/m 2,0 C 5,3 C 6,4 km/h (2 Bft) 100,00 %
22.03.2016 00:08 5,3 C 79 % 1013,9 hPa 0,0 l/m 5,8 km/h (2 Bft) W-SW 255 0 min 0,000 mm 0,0 UV-I 0 W/m 2,0 C 5,3 C 9,7 km/h (2 Bft) 100,00 %
22.03.2016 00:09 5,3 C 79 % 1013,9 hPa 0,0 l/m 5,6 km/h (1 Bft) W-SW 257 0 min 0,000 mm 0,0 UV-I 0 W/m 2,0 C 5,3 C 8,0 km/h (2 Bft) 100,00 %
22.03.2016 00:10 5,3 C 79 % 1014,0 hPa 0,0 l/m 5,5 km/h (1 Bft) W-SW 252 0 min 0,000 mm 0,0 UV-I 0 W/m 2,0 C 5,3 C 6,4 km/h (2 Bft) 91,30 %
22.03.2016 00:11 5,3 C 79 % 1013,9 hPa 0,0 l/m 6,2 km/h (2 Bft) W-SW 252 0 min 0,000 mm 0,0 UV-I 0 W/m 2,0 C 5,3 C 8,0 km/h (2 Bft) 100,00 %
22.03.2016 00:12 5,3 C 79 % 1013,9 hPa 0,0 l/m 6,8 km/h (2 Bft) W-SW 250 0 min 0,000 mm 0,0 UV-I 0 W/m 2,0 C 5,0 C 9,7 km/h (2 Bft) 100,00 %
22.03.2016 00:13 5,3 C 79 % 1014,0 hPa 0,0 l/m 6,5 km/h (2 Bft) W-SW 250 0 min 0,000 mm 0,0 UV-I 0 W/m 2,0 C 5,2 C 9,7 km/h (2 Bft) 100,00 %
22.03.2016 00:14 5,2 C 79 % 1014,0 hPa 0,0 l/m 5,7 km/h (1 Bft) W-SW 250 0 min 0,000 mm 0,0 UV-I 0 W/m 1,9 C 5,2 C 8,0 km/h (2 Bft) 96,15 %
22.03.2016 00:15 5,2 C 79 % 1014,0 hPa 0,0 l/m 6,0 km/h (2 Bft) W-SW 258 0 min 0,000 mm 0,0 UV-I 0 W/m 1,9 C 5,2 C 6,4 km/h (2 Bft) 100,00 %
22.03.2016 00:16 5,2 C 79 % 1013,9 hPa 0,0 l/m 7,5 km/h (2 Bft) W-SW 254 0 min 0,000 mm 0,0 UV-I 0 W/m 1,9 C 4,2 C 9,7 km/h (2 Bft) 100,00 %
22.03.2016 00:17 5,2 C 79 % 1013,9 hPa 0,0 l/m 6,2 km/h (2 Bft) W-SW 242 0 min 0,000 mm 0,0 UV-I 0 W/m 1,9 C 5,2 C 8,0 km/h (2 Bft) 100,00 %
22.03.2016 00:18 5,2 C 79 % 1013,9 hPa 0,0 l/m 5,6 km/h (1 Bft) W-SW 258 0 min 0,000 mm 0,0 UV-I 0 W/m 1,9 C 5,2 C 8,0 km/h (2 Bft) 100,00 %
22.03.2016 00:19 5,2 C 79 % 1013,9 hPa 0,0 l/m 6,0 km/h (2 Bft) W 269 0 min 0,000 mm 0,0 UV-I 0 W/m 1,9 C 5,2 C 8,0 km/h (2 Bft) 100,00 %
22.03.2016 00:20 5,2 C 79 % 1013,9 hPa 0,0 l/m 6,7 km/h (2 Bft) W 278 0 min 0,000 mm 0,0 UV-I 0 W/m 1,9 C 5,0 C 9,7 km/h (2 Bft) 91,67 %
22.03.2016 00:21 5,2 C 79 % 1013,9 hPa 0,0 l/m 7,3 km/h (2 Bft) W 265 0 min 0,000 mm 0,0 UV-I 0 W/m 1,9 C 4,4 C 11,3 km/h (2 Bft) 96,15 %
22.03.2016 00:22 5,2 C 79 % 1013,9 hPa 0,0 l/m 6,3 km/h (2 Bft) W-SW 250 0 min 0,000 mm 0,0 UV-I 0 W/m 1,9 C 5,2 C 9,7 km/h (2 Bft) 100,00 %
22.03.2016 00:23 5,2 C 80 % 1013,8 hPa 0,0 l/m 7,5 km/h (2 Bft) W-SW 257 0 min 0,000 mm 0,0 UV-I 0 W/m 2,0 C 4,2 C 11,3 km/h (2 Bft) 92,31 %
22.03.2016 00:24 5,2 C 80 % 1013,9 hPa 0,0 l/m 5,7 km/h (1 Bft) W-SW 250 0 min 0,000 mm 0,0 UV-I 0 W/m 2,0 C 5,2 C 11,3 km/h (2 Bft) 100,00 %
22.03.2016 00:25 5,2 C 80 % 1013,9 hPa 0,0 l/m 6,2 km/h (2 Bft) W-SW 248 0 min 0,000 mm 0,0 UV-I 0 W/m 2,0 C 5,2 C 9,7 km/h (2 Bft) 90,91 %
22.03.2016 00:26 5,2 C 80 % 1013,9 hPa 0,0 l/m 5,8 km/h (2 Bft) W-SW 247 0 min 0,000 mm 0,0 UV-I 0 W/m 2,0 C 5,2 C 6,4 km/h (2 Bft) 100,00 %
22.03.2016 00:27 5,2 C 80 % 1013,9 hPa 0,0 l/m 7,0 km/h (2 Bft) W-SW 240 0 min 0,000 mm 0,0 UV-I 0 W/m 2,0 C 4,7 C 12,9 km/h (3 Bft) 97,14 %
22.03.2016 00:28 5,2 C 80 % 1013,9 hPa 0,0 l/m 5,8 km/h (2 Bft) SW 234 0 min 0,000 mm 0,0 UV-I 0 W/m 2,0 C 5,2 C 9,7 km/h (2 Bft) 100,00 %
22.03.2016 00:29 5,2 C 80 % 1013,9 hPa 0,0 l/m 6,5 km/h (2 Bft) W-SW 246 0 min 0,000 mm 0,0 UV-I 0 W/m 2,0 C 5,1 C 8,0 km/h (2 Bft) 96,55 %
22.03.2016 00:30 5,2 C 80 % 1013,9 hPa 0,0 l/m 5,7 km/h (1 Bft) SW 227 0 min 0,000 mm 0,0 UV-I 0 W/m 2,0 C 5,2 C 6,4 km/h (2 Bft) 100,00 %
22.03.2016 00:31 5,2 C 80 % 1013,9 hPa 0,0 l/m 6,6 km/h (2 Bft) SW 234 0 min 0,000 mm 0,0 UV-I 0 W/m 2,0 C 5,0 C 8,0 km/h (2 Bft) 95,65 %
22.03.2016 00:32 5,1 C 80 % 1013,9 hPa 0,0 l/m 6,9 km/h (2 Bft) SW 229 0 min 0,000 mm 0,0 UV-I 0 W/m 1,9 C 4,7 C 8,0 km/h (2 Bft) 96,30 %
22.03.2016 00:33 5,1 C 80 % 1013,9 hPa 0,0 l/m 6,0 km/h (2 Bft) SW 232 0 min 0,000 mm 0,0 UV-I 0 W/m 1,9 C 5,1 C 8,0 km/h (2 Bft) 100,00 %
22.03.2016 00:34 5,1 C 80 % 1013,9 hPa 0,0 l/m 6,8 km/h (2 Bft) S-SW 203 0 min 0,000 mm 0,0 UV-I 0 W/m 1,9 C 4,8 C 9,7 km/h (2 Bft) 93,33 %
22.03.2016 00:35 5,1 C 80 % 1013,9 hPa 0,0 l/m 8,6 km/h (2 Bft) W-SW 238 0 min 0,000 mm 0,0 UV-I 0 W/m 1,9 C 3,2 C 11,3 km/h (2 Bft) 100,00 %
22.03.2016 00:36 5,1 C 80 % 1013,9 hPa 0,0 l/m 7,8 km/h (2 Bft) W-SW 243 0 min 0,000 mm 0,0 UV-I 0 W/m 1,9 C 3,9 C 12,9 km/h (3 Bft) 95,83 %
22.03.2016 00:37 5,1 C 80 % 1013,8 hPa 0,0 l/m 6,4 km/h (2 Bft) SW 235 0 min 0,000 mm 0,0 UV-I 0 W/m 1,9 C 5,1 C 8,0 km/h (2 Bft) 100,00 %
22.03.2016 00:38 5,1 C 80 % 1013,8 hPa 0,0 l/m 6,5 km/h (2 Bft) SW 227 0 min 0,000 mm 0,0 UV-I 0 W/m 1,9 C 5,0 C 8,0 km/h (2 Bft) 86,96 %
22.03.2016 00:39 5,2 C 80 % 1013,7 hPa 0,0 l/m 6,7 km/h (2 Bft) SW 229 0 min 0,000 mm 0,0 UV-I 0 W/m 2,0 C 5,0 C 11,3 km/h (2 Bft) 95,83 %
22.03.2016 00:40 5,2 C 80 % 1013,8 hPa 0,0 l/m 7,6 km/h (2 Bft) W-SW 242 0 min 0,000 mm 0,0 UV-I 0 W/m 2,0 C 4,1 C 11,3 km/h (2 Bft) 100,00 %
22.03.2016 00:41 5,2 C 80 % 1013,8 hPa 0,0 l/m 8,0 km/h (2 Bft) W-SW 253 0 min 0,000 mm 0,0 UV-I 0 W/m 2,0 C 3,8 C 11,3 km/h (2 Bft) 96,67 %
22.03.2016 00:42 5,2 C 80 % 1013,8 hPa 0,0 l/m 7,0 km/h (2 Bft) SW 235 0 min 0,000 mm 0,0 UV-I 0 W/m 2,0 C 4,7 C 11,3 km/h (2 Bft) 100,00 %
22.03.2016 00:43 5,2 C 80 % 1013,8 hPa 0,0 l/m 7,0 km/h (2 Bft) SW 232 0 min 0,000 mm 0,0 UV-I 0 W/m 2,0 C 4,7 C 8,0 km/h (2 Bft) 96,67 %
22.03.2016 00:44 5,2 C 80 % 1013,8 hPa 0,0 l/m 8,6 km/h (2 Bft) S-SW 209 0 min 0,000 mm 0,0 UV-I 0 W/m 2,0 C 3,3 C 11,3 km/h (2 Bft) 96,15 %
22.03.2016 00:45 5,2 C 80 % 1013,8 hPa 0,0 l/m 8,0 km/h (2 Bft) W-SW 244 0 min 0,000 mm 0,0 UV-I 0 W/m 2,0 C 3,8 C 11,3 km/h (2 Bft) 91,67 %
22.03.2016 00:46 5,2 C 80 % 1013,8 hPa 0,0 l/m 8,0 km/h (2 Bft) SW 228 0 min 0,000 mm 0,0 UV-I 0 W/m 2,0 C 3,8 C 11,3 km/h (2 Bft) 100,00 %
22.03.2016 00:47 5,3 C 80 % 1013,8 hPa 0,0 l/m 9,0 km/h (2 Bft) SW 232 0 min 0,000 mm 0,0 UV-I 0 W/m 2,1 C 3,1 C 12,9 km/h (3 Bft) 96,30 %
22.03.2016 00:48 5,3 C 80 % 1013,8 hPa 0,0 l/m 6,4 km/h (2 Bft) SW 223 0 min 0,000 mm 0,0 UV-I 0 W/m 2,1 C 5,3 C 9,7 km/h (2 Bft) 100,00 %
22.03.2016 00:49 5,3 C 80 % 1013,8 hPa 0,0 l/m 6,4 km/h (2 Bft) W-SW 244 0 min 0,000 mm 0,0 UV-I 0 W/m 2,1 C 5,3 C 9,7 km/h (2 Bft) 95,83 %
22.03.2016 00:50 5,3 C 80 % 1013,7 hPa 0,0 l/m 5,5 km/h (1 Bft) W-SW 237 0 min 0,000 mm 0,0 UV-I 0 W/m 2,1 C 5,3 C 6,4 km/h (2 Bft) 95,65 %
22.03.2016 00:51 5,3 C 80 % 1013,8 hPa 0,0 l/m 6,7 km/h (2 Bft) W-SW 241 0 min 0,000 mm 0,0 UV-I 0 W/m 2,1 C 5,1 C 8,0 km/h (2 Bft) 100,00 %
22.03.2016 00:52 5,3 C 80 % 1013,7 hPa 0,0 l/m 8,9 km/h (2 Bft) SW 215 0 min 0,000 mm 0,0 UV-I 0 W/m 2,1 C 3,2 C 11,3 km/h (2 Bft) 100,00 %
22.03.2016 00:53 5,3 C 80 % 1013,7 hPa 0,0 l/m 6,5 km/h (2 Bft) SW 231 0 min 0,000 mm 0,0 UV-I 0 W/m 2,1 C 5,2 C 8,0 km/h (2 Bft) 97,56 %
22.03.2016 00:54 5,3 C 80 % 1013,8 hPa 0,0 l/m 6,4 km/h (2 Bft) SW 219 0 min 0,000 mm 0,0 UV-I 0 W/m 2,1 C 5,3 C 8,0 km/h (2 Bft) 100,00 %
22.03.2016 00:55 5,3 C 80 % 1013,8 hPa 0,0 l/m 5,8 km/h (2 Bft) SW 219 0 min 0,000 mm 0,0 UV-I 0 W/m 2,1 C 5,3 C 6,4 km/h (2 Bft) 96,55 %
22.03.2016 00:56 5,3 C 80 % 1013,8 hPa 0,0 l/m 7,9 km/h (2 Bft) SW 229 0 min 0,000 mm 0,0 UV-I 0 W/m 2,1 C 4,0 C 9,7 km/h (2 Bft) 100,00 %
22.03.2016 00:57 5,3 C 80 % 1013,7 hPa 0,0 l/m 7,4 km/h (2 Bft) W-SW 245 0 min 0,000 mm 0,0 UV-I 0 W/m 2,1 C 4,4 C 11,3 km/h (2 Bft) 100,00 %
22.03.2016 00:58 5,3 C 80 % 1013,7 hPa 0,0 l/m 7,6 km/h (2 Bft) SW 232 0 min 0,000 mm 0,0 UV-I 0 W/m 2,1 C 4,3 C 9,7 km/h (2 Bft) 100,00 %
22.03.2016 00:59 5,3 C 80 % 1013,7 hPa 0,0 l/m 7,2 km/h (2 Bft) W-SW 238 0 min 0,000 mm 0,0 UV-I 0 W/m 2,1 C 4,6 C 8,0 km/h (2 Bft) 100,00 %
22.03.2016 01:00 5,3 C 80 % 1013,7 hPa 0,0 l/m 5,1 km/h (1 Bft) S-SW 198 0 min 0,000 mm 0,0 UV-I 0 W/m 2,1 C 5,3 C 6,4 km/h (2 Bft) 100,00 %
22.03.2016 01:01 5,3 C 80 % 1013,7 hPa 0,0 l/m 7,2 km/h (2 Bft) S-SW 196 0 min 0,025 mm 0,0 UV-I 0 W/m 2,1 C 4,6 C 9,7 km/h (2 Bft) 96,15 %
22.03.2016 01:02 5,3 C 80 % 1013,7 hPa 0,0 l/m 5,9 km/h (2 Bft) S 191 0 min 0,000 mm 0,0 UV-I 0 W/m 2,1 C 5,3 C 8,0 km/h (2 Bft) 100,00 %
22.03.2016 01:03 5,3 C 80 % 1013,7 hPa 0,0 l/m 4,4 km/h (1 Bft) W-SW 248 0 min 0,000 mm 0,0 UV-I 0 W/m 2,1 C 5,3 C 6,4 km/h (2 Bft) 100,00 %
22.03.2016 01:04 5,3 C 80 % 1013,7 hPa 0,0 l/m 5,0 km/h (1 Bft) W-SW 250 0 min 0,000 mm 0,0 UV-I 0 W/m 2,1 C 5,3 C 6,4 km/h (2 Bft) 100,00 %
22.03.2016 01:05 5,3 C 80 % 1013,7 hPa 0,0 l/m 4,6 km/h (1 Bft) SW 229 0 min 0,000 mm 0,0 UV-I 0 W/m 2,1 C 5,3 C 6,4 km/h (2 Bft) 100,00 %
22.03.2016 01:06 5,3 C 80 % 1013,6 hPa 0,0 l/m 4,2 km/h (1 Bft) W-SW 257 0 min 0,000 mm 0,0 UV-I 0 W/m 2,1 C 5,3 C 6,4 km/h (2 Bft) 100,00 %
22.03.2016 01:07 5,3 C 80 % 1013,6 hPa 0,0 l/m 4,7 km/h (1 Bft) SW 215 0 min 0,000 mm 0,0 UV-I 0 W/m 2,1 C 5,3 C 6,4 km/h (2 Bft) 100,00 %
22.03.2016 01:08 5,3 C 80 % 1013,6 hPa 0,0 l/m 5,4 km/h (1 Bft) SW 235 0 min 0,000 mm 0,0 UV-I 0 W/m 2,1 C 5,3 C 6,4 km/h (2 Bft) 100,00 %
22.03.2016 01:09 5,3 C 80 % 1013,6 hPa 0,0 l/m 5,9 km/h (2 Bft) W-SW 237 0 min 0,000 mm 0,0 UV-I 0 W/m 2,1 C 5,3 C 8,0 km/h (2 Bft) 90,91 %
22.03.2016 01:10 5,3 C 79 % 1013,5 hPa 0,0 l/m 4,9 km/h (1 Bft) SW 220 0 min 0,000 mm 0,0 UV-I 0 W/m 2,0 C 5,3 C 8,0 km/h (2 Bft) 100,00 %
22.03.2016 01:11 5,3 C 79 % 1013,5 hPa 0,0 l/m 5,5 km/h (1 Bft) S-SW 200 0 min 0,000 mm 0,0 UV-I 0 W/m 2,0 C 5,3 C 6,4 km/h (2 Bft) 100,00 %
22.03.2016 01:12 5,4 C 79 % 1013,6 hPa 0,0 l/m 4,2 km/h (1 Bft) SW 230 0 min 0,000 mm 0,0 UV-I 0 W/m 2,1 C 5,4 C 6,4 km/h (2 Bft) 100,00 %
22.03.2016 01:13 5,4 C 79 % 1013,6 hPa 0,0 l/m 5,0 km/h (1 Bft) SW 231 0 min 0,000 mm 0,0 UV-I 0 W/m 2,1 C 5,4 C 6,4 km/h (2 Bft) 100,00 %
22.03.2016 01:14 5,4 C 79 % 1013,6 hPa 0,0 l/m 6,2 km/h (2 Bft) S-SW 198 0 min 0,000 mm 0,0 UV-I 0 W/m 2,1 C 5,4 C 8,0 km/h (2 Bft) 95,83 %
22.03.2016 01:15 5,4 C 79 % 1013,6 hPa 0,0 l/m 6,0 km/h (2 Bft) W-SW 248 0 min 0,000 mm 0,0 UV-I 0 W/m 2,1 C 5,4 C 8,0 km/h (2 Bft) 96,15 %
22.03.2016 01:16 5,4 C 79 % 1013,6 hPa 0,0 l/m 6,4 km/h (2 Bft) S-SW 212 0 min 0,000 mm 0,0 UV-I 0 W/m 2,1 C 5,4 C 8,0 km/h (2 Bft) 91,67 %
22.03.2016 01:17 5,4 C 79 % 1013,6 hPa 0,0 l/m 5,9 km/h (2 Bft) SW 228 0 min 0,000 mm 0,0 UV-I 0 W/m 2,1 C 5,4 C 6,4 km/h (2 Bft) 100,00 %
22.03.2016 01:18 5,4 C 79 % 1013,6 hPa 0,0 l/m 7,5 km/h (2 Bft) SW 223 0 min 0,000 mm 0,0 UV-I 0 W/m 2,1 C 4,4 C 9,7 km/h (2 Bft) 96,55 %
22.03.2016 01:19 5,4 C 79 % 1013,6 hPa 0,0 l/m 7,0 km/h (2 Bft) SW 225 0 min 0,000 mm 0,0 UV-I 0 W/m 2,1 C 4,9 C 8,0 km/h (2 Bft) 100,00 %
22.03.2016 01:20 5,4 C 79 % 1013,6 hPa 0,0 l/m 6,8 km/h (2 Bft) SW 236 0 min 0,000 mm 0,0 UV-I 0 W/m 2,1 C 5,1 C 8,0 km/h (2 Bft) 100,00 %
22.03.2016 01:21 5,4 C 79 % 1013,6 hPa 0,0 l/m 7,0 km/h (2 Bft) W-SW 240 0 min 0,000 mm 0,0 UV-I 0 W/m 2,1 C 4,9 C 9,7 km/h (2 Bft) 100,00 %
22.03.2016 01:22 5,3 C 79 % 1013,6 hPa 0,0 l/m 7,8 km/h (2 Bft) S-SW 200 0 min 0,000 mm 0,0 UV-I 0 W/m 2,0 C 4,1 C 11,3 km/h (2 Bft) 96,55 %
22.03.2016 01:23 5,3 C 79 % 1013,6 hPa 0,0 l/m 7,0 km/h (2 Bft) W 265 0 min 0,000 mm 0,0 UV-I 0 W/m 2,0 C 4,8 C 9,7 km/h (2 Bft) 100,00 %
22.03.2016 01:24 5,3 C 79 % 1013,6 hPa 0,0 l/m 7,7 km/h (2 Bft) SW 224 0 min 0,000 mm 0,0 UV-I 0 W/m 2,0 C 4,2 C 11,3 km/h (2 Bft) 100,00 %
22.03.2016 01:25 5,3 C 79 % 1013,5 hPa 0,0 l/m 9,1 km/h (2 Bft) W-SW 250 0 min 0,000 mm 0,0 UV-I 0 W/m 2,0 C 3,1 C 12,9 km/h (3 Bft) 100,00 %
22.03.2016 01:26 5,3 C 79 % 1013,5 hPa 0,0 l/m 7,3 km/h (2 Bft) W-SW 251 0 min 0,000 mm 0,0 UV-I 0 W/m 2,0 C 4,5 C 11,3 km/h (2 Bft) 100,00 %
22.03.2016 01:27 5,3 C 79 % 1013,4 hPa 0,0 l/m 8,1 km/h (2 Bft) SW 223 0 min 0,000 mm 0,0 UV-I 0 W/m 2,0 C 3,8 C 9,7 km/h (2 Bft) 100,00 %
22.03.2016 01:28 5,3 C 80 % 1013,4 hPa 0,0 l/m 6,7 km/h (2 Bft) W-SW 244 0 min 0,000 mm 0,0 UV-I 0 W/m 2,1 C 5,1 C 9,7 km/h (2 Bft) 100,00 %
22.03.2016 01:29 5,3 C 80 % 1013,4 hPa 0,0 l/m 6,7 km/h (2 Bft) S-SW 202 0 min 0,000 mm 0,0 UV-I 0 W/m 2,1 C 5,1 C 9,7 km/h (2 Bft) 100,00 %
22.03.2016 01:30 5,3 C 80 % 1013,5 hPa 0,0 l/m 6,8 km/h (2 Bft) W-SW 246 0 min 0,000 mm 0,0 UV-I 0 W/m 2,1 C 5,0 C 9,7 km/h (2 Bft) 100,00 %
22.03.2016 01:31 5,3 C 80 % 1013,5 hPa 0,0 l/m 7,2 km/h (2 Bft) SW 234 0 min 0,000 mm 0,0 UV-I 0 W/m 2,1 C 4,6 C 11,3 km/h (2 Bft) 100,00 %
22.03.2016 01:32 5,3 C 80 % 1013,5 hPa 0,0 l/m 7,8 km/h (2 Bft) SW 215 0 min 0,000 mm 0,0 UV-I 0 W/m 2,1 C 4,1 C 11,3 km/h (2 Bft) 100,00 %
22.03.2016 01:33 5,3 C 80 % 1013,4 hPa 0,0 l/m 8,3 km/h (2 Bft) W-SW 252 0 min 0,000 mm 0,0 UV-I 0 W/m 2,1 C 3,7 C 11,3 km/h (2 Bft) 100,00 %
22.03.2016 01:34 5,3 C 80 % 1013,5 hPa 0,0 l/m 6,1 km/h (2 Bft) W-SW 244 0 min 0,000 mm 0,0 UV-I 0 W/m 2,1 C 5,3 C 11,3 km/h (2 Bft) 100,00 %
22.03.2016 01:35 5,3 C 80 % 1013,5 hPa 0,0 l/m 7,0 km/h (2 Bft) W 263 0 min 0,000 mm 0,0 UV-I 0 W/m 2,1 C 4,8 C 11,3 km/h (2 Bft) 100,00 %
22.03.2016 01:36 5,3 C 80 % 1013,5 hPa 0,0 l/m 10,1 km/h (2 Bft) W-SW 254 0 min 0,000 mm 0,0 UV-I 0 W/m 2,1 C 2,3 C 12,9 km/h (3 Bft) 100,00 %
22.03.2016 01:37 5,3 C 80 % 1013,4 hPa 0,0 l/m 11,7 km/h (2 Bft) W-SW 248 0 min 0,000 mm 0,0 UV-I 0 W/m 2,1 C 1,3 C 14,5 km/h (3 Bft) 100,00 %
22.03.2016 01:38 5,3 C 80 % 1013,4 hPa 0,0 l/m 6,5 km/h (2 Bft) W 272 0 min 0,000 mm 0,0 UV-I 0 W/m 2,1 C 5,2 C 11,3 km/h (2 Bft) 100,00 %
22.03.2016 01:39 5,3 C 79 % 1013,4 hPa 0,0 l/m 7,0 km/h (2 Bft) W 275 0 min 0,000 mm 0,0 UV-I 0 W/m 2,0 C 4,8 C 11,3 km/h (2 Bft) 100,00 %
22.03.2016 01:40 5,3 C 79 % 1013,3 hPa 0,0 l/m 11,7 km/h (2 Bft) W 274 0 min 0,000 mm 0,0 UV-I 0 W/m 2,0 C 1,3 C 14,5 km/h (3 Bft) 100,00 %
22.03.2016 01:41 5,3 C 79 % 1013,3 hPa 0,0 l/m 8,0 km/h (2 Bft) W-SW 246 0 min 0,000 mm 0,0 UV-I 0 W/m 2,0 C 3,9 C 12,9 km/h (3 Bft) 100,00 %
22.03.2016 01:42 5,3 C 79 % 1013,2 hPa 0,0 l/m 10,6 km/h (2 Bft) W-SW 253 0 min 0,000 mm 0,0 UV-I 0 W/m 2,0 C 2,0 C 14,5 km/h (3 Bft) 100,00 %
22.03.2016 01:43 5,4 C 79 % 1013,3 hPa 0,0 l/m 9,8 km/h (2 Bft) W-SW 255 0 min 0,000 mm 0,0 UV-I 0 W/m 2,1 C 2,7 C 14,5 km/h (3 Bft) 97,56 %
22.03.2016 01:44 5,4 C 78 % 1013,3 hPa 0,0 l/m 5,4 km/h (1 Bft) W-SW 240 0 min 0,000 mm 0,0 UV-I 0 W/m 1,9 C 5,4 C 8,0 km/h (2 Bft) 100,00 %
22.03.2016 01:45 5,4 C 78 % 1013,3 hPa 0,0 l/m 7,0 km/h (2 Bft) W-SW 258 0 min 0,000 mm 0,0 UV-I 0 W/m 1,9 C 4,9 C 8,0 km/h (2 Bft) 92,86 %
22.03.2016 01:46 5,4 C 79 % 1013,2 hPa 0,0 l/m 6,6 km/h (2 Bft) W-SW 237 0 min 0,000 mm 0,0 UV-I 0 W/m 2,1 C 5,2 C 11,3 km/h (2 Bft) 100,00 %
22.03.2016 01:47 5,5 C 78 % 1013,3 hPa 0,0 l/m 7,3 km/h (2 Bft) SW 221 0 min 0,000 mm 0,0 UV-I 0 W/m 2,0 C 4,7 C 9,7 km/h (2 Bft) 100,00 %
22.03.2016 01:48 5,4 C 79 % 1013,3 hPa 0,0 l/m 8,6 km/h (2 Bft) S-SW 200 0 min 0,000 mm 0,0 UV-I 0 W/m 2,1 C 3,5 C 12,9 km/h (3 Bft) 100,00 %
22.03.2016 01:49 5,4 C 79 % 1013,4 hPa 0,0 l/m 6,9 km/h (2 Bft) S-SW 207 0 min 0,000 mm 0,0 UV-I 0 W/m 2,1 C 5,0 C 9,7 km/h (2 Bft) 100,00 %
22.03.2016 01:50 5,4 C 79 % 1013,4 hPa 0,0 l/m 7,8 km/h (2 Bft) S-SW 213 0 min 0,000 mm 0,0 UV-I 0 W/m 2,1 C 4,2 C 11,3 km/h (2 Bft) 100,00 %
22.03.2016 01:51 5,4 C 79 % 1013,4 hPa 0,0 l/m 8,9 km/h (2 Bft) S 177 0 min 0,000 mm 0,0 UV-I 0 W/m 2,1 C 3,3 C 11,3 km/h (2 Bft) 100,00 %
22.03.2016 01:52 5,4 C 79 % 1013,4 hPa 0,0 l/m 7,4 km/h (2 Bft) S-SW 201 0 min 0,000 mm 0,0 UV-I 0 W/m 2,1 C 4,5 C 12,9 km/h (3 Bft) 100,00 %
22.03.2016 01:53 5,4 C 79 % 1013,4 hPa 0,0 l/m 10,1 km/h (2 Bft) SW 215 0 min 0,000 mm 0,0 UV-I 0 W/m 2,1 C 2,4 C 12,9 km/h (3 Bft) 100,00 %
22.03.2016 01:54 5,3 C 79 % 1013,4 hPa 0,0 l/m 10,6 km/h (2 Bft) SW 230 0 min 0,000 mm 0,0 UV-I 0 W/m 2,0 C 2,0 C 14,5 km/h (3 Bft) 100,00 %
22.03.2016 01:55 5,3 C 79 % 1013,3 hPa 0,0 l/m 10,7 km/h (2 Bft) SW 229 0 min 0,000 mm 0,0 UV-I 0 W/m 2,0 C 1,9 C 14,5 km/h (3 Bft) 100,00 %
22.03.2016 01:56 5,3 C 79 % 1013,4 hPa 0,0 l/m 11,8 km/h (2 Bft) SW 220 0 min 0,000 mm 0,0 UV-I 0 W/m 2,0 C 1,2 C 16,1 km/h (3 Bft) 100,00 %
22.03.2016 01:57 5,3 C 80 % 1013,3 hPa 0,0 l/m 8,9 km/h (2 Bft) S-SW 196 0 min 0,000 mm 0,0 UV-I 0 W/m 2,1 C 3,2 C 12,9 km/h (3 Bft) 100,00 %
22.03.2016 01:58 5,2 C 80 % 1013,3 hPa 0,0 l/m 9,6 km/h (2 Bft) SW 221 0 min 0,000 mm 0,0 UV-I 0 W/m 2,0 C 2,6 C 14,5 km/h (3 Bft) 100,00 %
22.03.2016 01:59 5,2 C 80 % 1013,3 hPa 0,0 l/m 11,5 km/h (2 Bft) W-SW 253 0 min 0,000 mm 0,0 UV-I 0 W/m 2,0 C 1,3 C 19,3 km/h (3 Bft) 100,00 %
22.03.2016 02:00 5,2 C 79 % 1013,3 hPa 0,0 l/m 8,0 km/h (2 Bft) W-SW 240 0 min 0,026 mm 0,0 UV-I 0 W/m 1,9 C 3,8 C 12,9 km/h (3 Bft) 100,00 %
22.03.2016 02:01 5,2 C 80 % 1013,3 hPa 0,0 l/m 9,3 km/h (2 Bft) S-SW 206 0 min 0,000 mm 0,0 UV-I 0 W/m 2,0 C 2,8 C 12,9 km/h (3 Bft) 100,00 %
22.03.2016 02:02 5,2 C 79 % 1013,3 hPa 0,0 l/m 10,9 km/h (2 Bft) SW 230 0 min 0,000 mm 0,0 UV-I 0 W/m 1,9 C 1,7 C 14,5 km/h (3 Bft) 100,00 %
22.03.2016 02:03 5,2 C 80 % 1013,2 hPa 0,0 l/m 8,6 km/h (2 Bft) W-SW 245 0 min 0,000 mm 0,0 UV-I 0 W/m 2,0 C 3,3 C 11,3 km/h (2 Bft) 96,30 %
22.03.2016 02:04 5,2 C 80 % 1013,2 hPa 0,0 l/m 11,6 km/h (2 Bft) SW 235 0 min 0,000 mm 0,0 UV-I 0 W/m 2,0 C 1,2 C 16,1 km/h (3 Bft) 100,00 %
22.03.2016 02:05 5,2 C 80 % 1013,2 hPa 0,0 l/m 9,7 km/h (2 Bft) W-SW 245 0 min 0,000 mm 0,0 UV-I 0 W/m 2,0 C 2,5 C 14,5 km/h (3 Bft) 100,00 %
22.03.2016 02:06 5,2 C 80 % 1013,2 hPa 0,0 l/m 8,7 km/h (2 Bft) W-SW 256 0 min 0,000 mm 0,0 UV-I 0 W/m 2,0 C 3,3 C 12,9 km/h (3 Bft) 100,00 %
22.03.2016 02:07 5,2 C 80 % 1013,2 hPa 0,0 l/m 8,9 km/h (2 Bft) SW 215 0 min 0,000 mm 0,0 UV-I 0 W/m 2,0 C 3,1 C 12,9 km/h (3 Bft) 100,00 %
22.03.2016 02:08 5,2 C 79 % 1013,1 hPa 0,0 l/m 6,0 km/h (2 Bft) S-SW 192 0 min 0,000 mm 0,0 UV-I 0 W/m 1,9 C 5,2 C 8,0 km/h (2 Bft) 95,65 %
22.03.2016 02:09 5,2 C 79 % 1013,1 hPa 0,0 l/m 9,3 km/h (2 Bft) S 190 0 min 0,000 mm 0,0 UV-I 0 W/m 1,9 C 2,8 C 11,3 km/h (2 Bft) 100,00 %
22.03.2016 02:10 5,2 C 80 % 1013,2 hPa 0,0 l/m 8,3 km/h (2 Bft) S-SW 201 0 min 0,000 mm 0,0 UV-I 0 W/m 2,0 C 3,6 C 9,7 km/h (2 Bft) 100,00 %
22.03.2016 02:11 5,2 C 80 % 1013,1 hPa 0,0 l/m 6,0 km/h (2 Bft) S 180 0 min 0,000 mm 0,0 UV-I 0 W/m 2,0 C 5,2 C 8,0 km/h (2 Bft) 100,00 %
22.03.2016 02:12 5,2 C 80 % 1013,1 hPa 0,0 l/m 5,1 km/h (1 Bft) S-SW 213 0 min 0,000 mm 0,0 UV-I 0 W/m 2,0 C 5,2 C 8,0 km/h (2 Bft) 100,00 %
22.03.2016 02:13 5,2 C 80 % 1013,1 hPa 0,0 l/m 6,5 km/h (2 Bft) SW 231 0 min 0,000 mm 0,0 UV-I 0 W/m 2,0 C 5,1 C 8,0 km/h (2 Bft) 100,00 %
22.03.2016 02:14 5,2 C 80 % 1013,1 hPa 0,0 l/m 5,4 km/h (1 Bft) S 185 0 min 0,000 mm 0,0 UV-I 0 W/m 2,0 C 5,2 C 8,0 km/h (2 Bft) 100,00 %
22.03.2016 02:15 5,1 C 80 % 1013,1 hPa 0,0 l/m 6,3 km/h (2 Bft) S-SW 209 0 min 0,000 mm 0,0 UV-I 0 W/m 1,9 C 5,1 C 8,0 km/h (2 Bft) 100,00 %
22.03.2016 02:16 5,1 C 80 % 1013,1 hPa 0,0 l/m 8,1 km/h (2 Bft) W-SW 247 0 min 0,000 mm 0,0 UV-I 0 W/m 1,9 C 3,6 C 11,3 km/h (2 Bft) 100,00 %
22.03.2016 02:17 5,1 C 80 % 1013,1 hPa 0,0 l/m 7,7 km/h (2 Bft) SW 234 0 min 0,000 mm 0,0 UV-I 0 W/m 1,9 C 4,0 C 9,7 km/h (2 Bft) 100,00 %
22.03.2016 02:18 5,1 C 80 % 1013,1 hPa 0,0 l/m 9,3 km/h (2 Bft) SW 217 0 min 0,000 mm 0,0 UV-I 0 W/m 1,9 C 2,7 C 12,9 km/h (3 Bft) 100,00 %
22.03.2016 02:19 5,1 C 80 % 1013,1 hPa 0,0 l/m 8,9 km/h (2 Bft) S-SW 193 0 min 0,000 mm 0,0 UV-I 0 W/m 1,9 C 3,0 C 12,9 km/h (3 Bft) 100,00 %
22.03.2016 02:20 5,1 C 80 % 1013,1 hPa 0,0 l/m 8,5 km/h (2 Bft) W-SW 239 0 min 0,000 mm 0,0 UV-I 0 W/m 1,9 C 3,3 C 11,3 km/h (2 Bft) 100,00 %
22.03.2016 02:21 5,1 C 80 % 1013,0 hPa 0,0 l/m 5,0 km/h (1 Bft) W-SW 242 0 min 0,000 mm 0,0 UV-I 0 W/m 1,9 C 5,1 C 8,0 km/h (2 Bft) 100,00 %
22.03.2016 02:22 5,1 C 80 % 1013,0 hPa 0,0 l/m 6,9 km/h (2 Bft) W-SW 238 0 min 0,000 mm 0,0 UV-I 0 W/m 1,9 C 4,7 C 9,7 km/h (2 Bft) 100,00 %
22.03.2016 02:23 5,1 C 80 % 1013,0 hPa 0,0 l/m 6,0 km/h (2 Bft) S 190 0 min 0,000 mm 0,0 UV-I 0 W/m 1,9 C 5,1 C 8,0 km/h (2 Bft) 91,30 %
22.03.2016 02:24 5,1 C 80 % 1013,0 hPa 0,0 l/m 8,5 km/h (2 Bft) S-SW 196 0 min 0,000 mm 0,0 UV-I 0 W/m 1,9 C 3,3 C 12,9 km/h (3 Bft) 95,83 %
22.03.2016 02:25 5,1 C 80 % 1013,0 hPa 0,0 l/m 8,1 km/h (2 Bft) W-SW 253 0 min 0,000 mm 0,0 UV-I 0 W/m 1,9 C 3,6 C 12,9 km/h (3 Bft) 95,65 %
22.03.2016 02:26 5,1 C 80 % 1013,0 hPa 0,0 l/m 9,9 km/h (2 Bft) W-SW 238 0 min 0,000 mm 0,0 UV-I 0 W/m 1,9 C 2,3 C 14,5 km/h (3 Bft) 96,30 %
22.03.2016 02:27 5,1 C 80 % 1013,0 hPa 0,0 l/m 8,0 km/h (2 Bft) W 269 0 min 0,000 mm 0,0 UV-I 0 W/m 1,9 C 3,7 C 12,9 km/h (3 Bft) 96,15 %
22.03.2016 02:28 5,1 C 80 % 1013,0 hPa 0,0 l/m 8,9 km/h (2 Bft) SW 219 0 min 0,000 mm 0,0 UV-I 0 W/m 1,9 C 3,0 C 12,9 km/h (3 Bft) 100,00 %
22.03.2016 02:29 5,1 C 80 % 1013,1 hPa 0,0 l/m 11,6 km/h (2 Bft) SW 229 0 min 0,000 mm 0,0 UV-I 0 W/m 1,9 C 1,1 C 17,7 km/h (3 Bft) 96,15 %
22.03.2016 02:30 5,1 C 80 % 1013,0 hPa 0,0 l/m 12,5 km/h (3 Bft) W-SW 241 0 min 0,000 mm 0,0 UV-I 0 W/m 1,9 C 0,6 C 16,1 km/h (3 Bft) 96,30 %
22.03.2016 02:31 5,1 C 80 % 1013,0 hPa 0,0 l/m 10,3 km/h (2 Bft) S-SW 201 0 min 0,000 mm 0,0 UV-I 0 W/m 1,9 C 2,0 C 12,9 km/h (3 Bft) 100,00 %
22.03.2016 02:32 5,1 C 80 % 1013,0 hPa 0,0 l/m 8,6 km/h (2 Bft) W-SW 251 0 min 0,000 mm 0,0 UV-I 0 W/m 1,9 C 3,2 C 12,9 km/h (3 Bft) 93,33 %
22.03.2016 02:33 5,1 C 80 % 1013,0 hPa 0,0 l/m 9,2 km/h (2 Bft) W-SW 248 0 min 0,000 mm 0,0 UV-I 0 W/m 1,9 C 2,8 C 16,1 km/h (3 Bft) 96,55 %
22.03.2016 02:34 5,1 C 80 % 1013,0 hPa 0,0 l/m 9,3 km/h (2 Bft) SW 229 0 min 0,000 mm 0,0 UV-I 0 W/m 1,9 C 2,7 C 16,1 km/h (3 Bft) 86,67 %
22.03.2016 02:35 5,1 C 80 % 1013,0 hPa 0,0 l/m 10,6 km/h (2 Bft) SW 227 0 min 0,000 mm 0,0 UV-I 0 W/m 1,9 C 1,8 C 16,1 km/h (3 Bft) 100,00 %
22.03.2016 02:36 5,1 C 80 % 1013,0 hPa 0,0 l/m 10,9 km/h (2 Bft) SW 232 0 min 0,000 mm 0,0 UV-I 0 W/m 1,9 C 1,6 C 16,1 km/h (3 Bft) 91,30 %
22.03.2016 02:37 5,1 C 80 % 1013,0 hPa 0,0 l/m 9,2 km/h (2 Bft) SW 229 0 min 0,000 mm 0,0 UV-I 0 W/m 1,9 C 2,8 C 12,9 km/h (3 Bft) 100,00 %
22.03.2016 02:38 5,1 C 80 % 1013,0 hPa 0,0 l/m 9,1 km/h (2 Bft) SW 235 0 min 0,000 mm 0,0 UV-I 0 W/m 1,9 C 2,8 C 14,5 km/h (3 Bft) 95,65 %
22.03.2016 02:39 5,1 C 80 % 1013,0 hPa 0,0 l/m 9,7 km/h (2 Bft) SW 232 0 min 0,000 mm 0,0 UV-I 0 W/m 1,9 C 2,4 C 14,5 km/h (3 Bft) 100,00 %
22.03.2016 02:40 5,1 C 80 % 1012,9 hPa 0,0 l/m 10,1 km/h (2 Bft) SW 232 0 min 0,000 mm 0,0 UV-I 0 W/m 1,9 C 2,1 C 14,5 km/h (3 Bft) 92,86 %
22.03.2016 02:41 5,1 C 80 % 1012,9 hPa 0,0 l/m 10,1 km/h (2 Bft) SW 234 0 min 0,000 mm 0,0 UV-I 0 W/m 1,9 C 2,1 C 12,9 km/h (3 Bft) 100,00 %
22.03.2016 02:42 5,1 C 80 % 1012,9 hPa 0,0 l/m 8,9 km/h (2 Bft) SW 229 0 min 0,000 mm 0,0 UV-I 0 W/m 1,9 C 3,0 C 11,3 km/h (2 Bft) 96,88 %
22.03.2016 02:43 5,1 C 80 % 1012,9 hPa 0,0 l/m 10,0 km/h (2 Bft) W-SW 238 0 min 0,000 mm 0,0 UV-I 0 W/m 1,9 C 2,2 C 12,9 km/h (3 Bft) 93,33 %
22.03.2016 02:44 5,1 C 80 % 1012,9 hPa 0,0 l/m 9,0 km/h (2 Bft) S-SW 210 0 min 0,000 mm 0,0 UV-I 0 W/m 1,9 C 2,9 C 14,5 km/h (3 Bft) 100,00 %
22.03.2016 02:45 5,1 C 80 % 1012,9 hPa 0,0 l/m 7,0 km/h (2 Bft) W-SW 252 0 min 0,000 mm 0,0 UV-I 0 W/m 1,9 C 4,6 C 8,0 km/h (2 Bft) 95,83 %
22.03.2016 02:46 5,1 C 80 % 1013,0 hPa 0,0 l/m 8,0 km/h (2 Bft) W 260 0 min 0,000 mm 0,0 UV-I 0 W/m 1,9 C 3,7 C 12,9 km/h (3 Bft) 100,00 %
22.03.2016 02:47 5,1 C 80 % 1013,0 hPa 0,0 l/m 7,4 km/h (2 Bft) W 263 0 min 0,000 mm 0,0 UV-I 0 W/m 1,9 C 4,2 C 9,7 km/h (2 Bft) 95,83 %
22.03.2016 02:48 5,0 C 80 % 1013,0 hPa 0,0 l/m 6,3 km/h (2 Bft) W-SW 256 0 min 0,000 mm 0,0 UV-I 0 W/m 1,8 C 5,0 C 11,3 km/h (2 Bft) 96,15 %
22.03.2016 02:49 5,0 C 81 % 1013,0 hPa 0,0 l/m 6,8 km/h (2 Bft) W-SW 243 0 min 0,000 mm 0,0 UV-I 0 W/m 2,0 C 4,7 C 9,7 km/h (2 Bft) 100,00 %
22.03.2016 02:50 5,0 C 80 % 1013,0 hPa 0,0 l/m 7,4 km/h (2 Bft) W-SW 245 0 min 0,000 mm 0,0 UV-I 0 W/m 1,8 C 4,1 C 9,7 km/h (2 Bft) 95,65 %
22.03.2016 02:51 5,0 C 80 % 1013,0 hPa 0,0 l/m 6,9 km/h (2 Bft) SW 233 0 min 0,000 mm 0,0 UV-I 0 W/m 1,8 C 4,6 C 11,3 km/h (2 Bft) 95,83 %
22.03.2016 02:52 5,1 C 80 % 1012,9 hPa 0,0 l/m 6,7 km/h (2 Bft) W-SW 247 0 min 0,000 mm 0,0 UV-I 0 W/m 1,9 C 4,9 C 9,7 km/h (2 Bft) 93,33 %
22.03.2016 02:53 5,0 C 80 % 1012,9 hPa 0,0 l/m 6,8 km/h (2 Bft) W-SW 255 0 min 0,000 mm 0,0 UV-I 0 W/m 1,8 C 4,7 C 11,3 km/h (2 Bft) 100,00 %
22.03.2016 02:54 5,1 C 80 % 1012,9 hPa 0,0 l/m 6,1 km/h (2 Bft) W-SW 242 0 min 0,000 mm 0,0 UV-I 0 W/m 1,9 C 5,1 C 6,4 km/h (2 Bft) 96,55 %
22.03.2016 02:55 5,0 C 80 % 1012,9 hPa 0,0 l/m 6,1 km/h (2 Bft) SW 235 0 min 0,000 mm 0,0 UV-I 0 W/m 1,8 C 5,0 C 8,0 km/h (2 Bft) 100,00 %
22.03.2016 02:56 5,1 C 80 % 1012,9 hPa 0,0 l/m 4,4 km/h (1 Bft) W-SW 242 0 min 0,000 mm 0,0 UV-I 0 W/m 1,9 C 5,1 C 6,4 km/h (2 Bft) 96,30 %
22.03.2016 02:57 5,1 C 80 % 1012,8 hPa 0,0 l/m 6,2 km/h (2 Bft) W-SW 245 0 min 0,000 mm 0,0 UV-I 0 W/m 1,9 C 5,1 C 11,3 km/h (2 Bft) 91,30 %
22.03.2016 02:58 5,0 C 80 % 1012,8 hPa 0,0 l/m 6,2 km/h (2 Bft) W-SW 240 0 min 0,000 mm 0,0 UV-I 0 W/m 1,8 C 5,0 C 8,0 km/h (2 Bft) 100,00 %
22.03.2016 02:59 5,1 C 80 % 1012,8 hPa 0,0 l/m 6,2 km/h (2 Bft) SW 219 0 min 0,000 mm 0,0 UV-I 0 W/m 1,9 C 5,1 C 9,7 km/h (2 Bft) 100,00 %
22.03.2016 03:00 5,1 C 80 % 1012,8 hPa 0,0 l/m 6,5 km/h (2 Bft) W-SW 247 0 min 0,000 mm 0,0 UV-I 0 W/m 1,9 C 5,0 C 11,3 km/h (2 Bft) 100,00 %
22.03.2016 03:02 5,0 C 80 % 1012,8 hPa 0,0 l/m 5,9 km/h (2 Bft) W-SW 240 0 min 0,025 mm 0,0 UV-I 0 W/m 1,8 C 5,0 C 9,7 km/h (2 Bft) 100,00 %
22.03.2016 03:03 5,0 C 80 % 1012,8 hPa 0,0 l/m 7,5 km/h (2 Bft) SW 217 0 min 0,000 mm 0,0 UV-I 0 W/m 1,8 C 4,0 C 11,3 km/h (2 Bft) 100,00 %
22.03.2016 03:04 5,0 C 80 % 1012,8 hPa 0,0 l/m 8,1 km/h (2 Bft) SW 228 0 min 0,000 mm 0,0 UV-I 0 W/m 1,8 C 3,5 C 9,7 km/h (2 Bft) 100,00 %
22.03.2016 03:05 5,0 C 80 % 1012,8 hPa 0,0 l/m 6,8 km/h (2 Bft) SW 236 0 min 0,000 mm 0,0 UV-I 0 W/m 1,8 C 4,7 C 8,0 km/h (2 Bft) 100,00 %
22.03.2016 03:06 5,0 C 80 % 1012,8 hPa 0,0 l/m 7,8 km/h (2 Bft) SW 221 0 min 0,000 mm 0,0 UV-I 0 W/m 1,8 C 3,8 C 9,7 km/h (2 Bft) 95,83 %
22.03.2016 03:07 5,1 C 80 % 1012,7 hPa 0,0 l/m 6,4 km/h (2 Bft) W-SW 238 0 min 0,000 mm 0,0 UV-I 0 W/m 1,9 C 5,1 C 8,0 km/h (2 Bft) 92,86 %
22.03.2016 03:08 5,0 C 80 % 1012,7 hPa 0,0 l/m 4,3 km/h (1 Bft) W-SW 250 0 min 0,000 mm 0,0 UV-I 0 W/m 1,8 C 5,0 C 4,8 km/h (1 Bft) 100,00 %
22.03.2016 03:09 5,0 C 80 % 1012,7 hPa 0,0 l/m 5,5 km/h (1 Bft) SW 231 0 min 0,000 mm 0,0 UV-I 0 W/m 1,8 C 5,0 C 8,0 km/h (2 Bft) 100,00 %
22.03.2016 03:10 5,0 C 80 % 1012,7 hPa 0,0 l/m 5,9 km/h (2 Bft) SW 224 0 min 0,000 mm 0,0 UV-I 0 W/m 1,8 C 5,0 C 9,7 km/h (2 Bft) 100,00 %
22.03.2016 03:11 5,0 C 81 % 1012,7 hPa 0,0 l/m 8,5 km/h (2 Bft) SW 231 0 min 0,000 mm 0,0 UV-I 0 W/m 2,0 C 3,2 C 12,9 km/h (3 Bft) 100,00 %
22.03.2016 03:12 4,9 C 81 % 1012,7 hPa 0,0 l/m 7,0 km/h (2 Bft) W-SW 242 0 min 0,000 mm 0,0 UV-I 0 W/m 1,9 C 4,4 C 12,9 km/h (3 Bft) 100,00 %
22.03.2016 03:13 4,9 C 81 % 1012,7 hPa 0,0 l/m 8,4 km/h (2 Bft) W-SW 238 0 min 0,000 mm 0,0 UV-I 0 W/m 1,9 C 3,2 C 12,9 km/h (3 Bft) 100,00 %
22.03.2016 03:14 4,9 C 81 % 1012,6 hPa 0,0 l/m 9,6 km/h (2 Bft) SW 220 0 min 0,000 mm 0,0 UV-I 0 W/m 1,9 C 2,2 C 12,9 km/h (3 Bft) 100,00 %
22.03.2016 03:15 4,9 C 81 % 1012,7 hPa 0,0 l/m 9,3 km/h (2 Bft) SW 225 0 min 0,000 mm 0,0 UV-I 0 W/m 1,9 C 2,5 C 12,9 km/h (3 Bft) 100,00 %
22.03.2016 03:16 4,9 C 81 % 1012,6 hPa 0,0 l/m 11,9 km/h (2 Bft) SW 236 0 min 0,000 mm 0,0 UV-I 0 W/m 1,9 C 0,7 C 16,1 km/h (3 Bft) 100,00 %
22.03.2016 03:17 4,9 C 81 % 1012,7 hPa 0,0 l/m 10,9 km/h (2 Bft) SW 229 0 min 0,000 mm 0,0 UV-I 0 W/m 1,9 C 1,3 C 14,5 km/h (3 Bft) 100,00 %
22.03.2016 03:18 4,9 C 81 % 1012,7 hPa 0,0 l/m 13,8 km/h (3 Bft) SW 234 0 min 0,000 mm 0,0 UV-I 0 W/m 1,9 C -0,4 C 17,7 km/h (3 Bft) 100,00 %
22.03.2016 03:19 4,9 C 81 % 1012,7 hPa 0,0 l/m 6,1 km/h (2 Bft) W 262 0 min 0,000 mm 0,0 UV-I 0 W/m 1,9 C 4,9 C 8,0 km/h (2 Bft) 100,00 %
22.03.2016 03:20 4,9 C 81 % 1012,7 hPa 0,0 l/m 6,8 km/h (2 Bft) W 279 0 min 0,000 mm 0,0 UV-I 0 W/m 1,9 C 4,6 C 9,7 km/h (2 Bft) 100,00 %
22.03.2016 03:21 4,9 C 81 % 1012,6 hPa 0,0 l/m 10,3 km/h (2 Bft) SW 225 0 min 0,000 mm 0,0 UV-I 0 W/m 1,9 C 1,8 C 16,1 km/h (3 Bft) 98,48 %
22.03.2016 03:22 4,9 C 81 % 1012,6 hPa 0,0 l/m 10,6 km/h (2 Bft) SW 236 0 min 0,000 mm 0,0 UV-I 0 W/m 1,9 C 1,5 C 14,5 km/h (3 Bft) 100,00 %
22.03.2016 03:23 4,9 C 81 % 1012,6 hPa 0,0 l/m 7,0 km/h (2 Bft) W-SW 238 0 min 0,000 mm 0,0 UV-I 0 W/m 1,9 C 4,4 C 12,9 km/h (3 Bft) 100,00 %
22.03.2016 03:24 4,9 C 81 % 1012,6 hPa 0,0 l/m 10,5 km/h (2 Bft) S-SW 211 0 min 0,000 mm 0,0 UV-I 0 W/m 1,9 C 1,6 C 16,1 km/h (3 Bft) 100,00 %
22.03.2016 03:25 4,9 C 81 % 1012,5 hPa 0,0 l/m 8,0 km/h (2 Bft) S-SW 213 0 min 0,000 mm 0,0 UV-I 0 W/m 1,9 C 3,5 C 11,3 km/h (2 Bft) 100,00 %
22.03.2016 03:26 4,9 C 81 % 1012,6 hPa 0,0 l/m 10,4 km/h (2 Bft) SW 233 0 min 0,000 mm 0,0 UV-I 0 W/m 1,9 C 1,7 C 16,1 km/h (3 Bft) 100,00 %
22.03.2016 03:27 4,9 C 81 % 1012,6 hPa 0,0 l/m 10,9 km/h (2 Bft) W-SW 242 0 min 0,000 mm 0,0 UV-I 0 W/m 1,9 C 1,3 C 17,7 km/h (3 Bft) 100,00 %
22.03.2016 03:28 4,9 C 81 % 1012,6 hPa 0,0 l/m 11,4 km/h (2 Bft) W-SW 254 0 min 0,000 mm 0,0 UV-I 0 W/m 1,9 C 1,0 C 17,7 km/h (3 Bft) 100,00 %
22.03.2016 03:29 4,9 C 81 % 1012,6 hPa 0,0 l/m 9,3 km/h (2 Bft) W-SW 246 0 min 0,000 mm 0,0 UV-I 0 W/m 1,9 C 2,5 C 19,3 km/h (3 Bft) 100,00 %
22.03.2016 03:30 4,9 C 81 % 1012,6 hPa 0,0 l/m 8,7 km/h (2 Bft) SW 228 0 min 0,000 mm 0,0 UV-I 0 W/m 1,9 C 2,9 C 12,9 km/h (3 Bft) 100,00 %
22.03.2016 03:31 5,0 C 81 % 1012,6 hPa 0,0 l/m 12,8 km/h (3 Bft) S-SW 211 0 min 0,000 mm 0,0 UV-I 0 W/m 2,0 C 0,3 C 17,7 km/h (3 Bft) 100,00 %
22.03.2016 03:32 5,0 C 81 % 1012,6 hPa 0,0 l/m 12,1 km/h (2 Bft) SW 223 0 min 0,000 mm 0,0 UV-I 0 W/m 2,0 C 0,7 C 17,7 km/h (3 Bft) 100,00 %
22.03.2016 03:33 5,0 C 81 % 1012,6 hPa 0,0 l/m 13,5 km/h (3 Bft) SW 222 0 min 0,000 mm 0,0 UV-I 0 W/m 2,0 C -0,1 C 17,7 km/h (3 Bft) 100,00 %
22.03.2016 03:34 4,9 C 81 % 1012,6 hPa 0,0 l/m 14,5 km/h (3 Bft) SW 224 0 min 0,000 mm 0,0 UV-I 0 W/m 1,9 C -0,8 C 20,9 km/h (4 Bft) 100,00 %
22.03.2016 03:35 5,0 C 81 % 1012,6 hPa 0,0 l/m 13,3 km/h (3 Bft) W-SW 240 0 min 0,000 mm 0,0 UV-I 0 W/m 2,0 C -0,0 C 17,7 km/h (3 Bft) 100,00 %
22.03.2016 03:36 4,9 C 81 % 1012,6 hPa 0,0 l/m 10,8 km/h (2 Bft) SW 236 0 min 0,000 mm 0,0 UV-I 0 W/m 1,9 C 1,4 C 16,1 km/h (3 Bft) 100,00 %
22.03.2016 03:37 4,9 C 81 % 1012,5 hPa 0,0 l/m 10,6 km/h (2 Bft) S-SW 200 0 min 0,000 mm 0,0 UV-I 0 W/m 1,9 C 1,5 C 14,5 km/h (3 Bft) 100,00 %
22.03.2016 03:38 4,9 C 81 % 1012,5 hPa 0,0 l/m 12,7 km/h (3 Bft) SW 223 0 min 0,000 mm 0,0 UV-I 0 W/m 1,9 C 0,2 C 16,1 km/h (3 Bft) 100,00 %
22.03.2016 03:39 4,9 C 81 % 1012,5 hPa 0,0 l/m 11,1 km/h (2 Bft) W-SW 249 0 min 0,000 mm 0,0 UV-I 0 W/m 1,9 C 1,2 C 16,1 km/h (3 Bft) 95,65 %
22.03.2016 03:40 4,9 C 81 % 1012,5 hPa 0,0 l/m 12,5 km/h (3 Bft) SW 232 0 min 0,000 mm 0,0 UV-I 0 W/m 1,9 C 0,3 C 19,3 km/h (3 Bft) 100,00 %
22.03.2016 03:41 4,9 C 81 % 1012,5 hPa 0,0 l/m 16,0 km/h (3 Bft) SW 233 0 min 0,000 mm 0,0 UV-I 0 W/m 1,9 C -1,5 C 22,5 km/h (4 Bft) 100,00 %
22.03.2016 03:42 4,9 C 81 % 1012,5 hPa 0,0 l/m 12,4 km/h (3 Bft) SW 215 0 min 0,000 mm 0,0 UV-I 0 W/m 1,9 C 0,4 C 16,1 km/h (3 Bft) 100,00 %
22.03.2016 03:43 4,9 C 81 % 1012,5 hPa 0,0 l/m 18,3 km/h (3 Bft) W 261 0 min 0,000 mm 0,0 UV-I 0 W/m 1,9 C -2,6 C 24,1 km/h (4 Bft) 100,00 %
22.03.2016 03:44 4,9 C 81 % 1012,5 hPa 0,0 l/m 15,2 km/h (3 Bft) SW 227 0 min 0,000 mm 0,0 UV-I 0 W/m 1,9 C -1,1 C 20,9 km/h (4 Bft) 100,00 %
22.03.2016 03:45 4,9 C 81 % 1012,5 hPa 0,0 l/m 12,8 km/h (3 Bft) S-SW 198 0 min 0,000 mm 0,0 UV-I 0 W/m 1,9 C 0,2 C 19,3 km/h (3 Bft) 97,56 %
22.03.2016 03:46 4,9 C 81 % 1012,5 hPa 0,0 l/m 12,7 km/h (3 Bft) S 184 0 min 0,000 mm 0,0 UV-I 0 W/m 1,9 C 0,2 C 20,9 km/h (4 Bft) 100,00 %
22.03.2016 03:47 4,9 C 81 % 1012,5 hPa 0,0 l/m 13,1 km/h (3 Bft) SW 232 0 min 0,000 mm 0,0 UV-I 0 W/m 1,9 C -0,0 C 17,7 km/h (3 Bft) 100,00 %
22.03.2016 03:48 4,9 C 81 % 1012,5 hPa 0,0 l/m 10,2 km/h (2 Bft) SW 215 0 min 0,000 mm 0,0 UV-I 0 W/m 1,9 C 1,8 C 14,5 km/h (3 Bft) 96,30 %
22.03.2016 03:49 4,9 C 81 % 1012,5 hPa 0,0 l/m 10,6 km/h (2 Bft) W-SW 248 0 min 0,000 mm 0,0 UV-I 0 W/m 1,9 C 1,5 C 16,1 km/h (3 Bft) 100,00 %
22.03.2016 03:50 4,9 C 81 % 1012,5 hPa 0,0 l/m 15,4 km/h (3 Bft) SW 227 0 min 0,000 mm 0,0 UV-I 0 W/m 1,9 C -1,2 C 19,3 km/h (3 Bft) 100,00 %
22.03.2016 03:51 4,9 C 81 % 1012,5 hPa 0,0 l/m 11,8 km/h (2 Bft) SW 227 0 min 0,000 mm 0,0 UV-I 0 W/m 1,9 C 0,8 C 16,1 km/h (3 Bft) 100,00 %
22.03.2016 03:52 4,9 C 81 % 1012,5 hPa 0,0 l/m 13,5 km/h (3 Bft) W-SW 248 0 min 0,000 mm 0,0 UV-I 0 W/m 1,9 C -0,2 C 19,3 km/h (3 Bft) 100,00 %
22.03.2016 03:53 4,9 C 81 % 1012,5 hPa 0,0 l/m 15,8 km/h (3 Bft) SW 236 0 min 0,000 mm 0,0 UV-I 0 W/m 1,9 C -1,4 C 19,3 km/h (3 Bft) 91,67 %
22.03.2016 03:54 4,9 C 81 % 1012,5 hPa 0,0 l/m 12,2 km/h (2 Bft) SW 230 0 min 0,000 mm 0,0 UV-I 0 W/m 1,9 C 0,5 C 22,5 km/h (4 Bft) 100,00 %
22.03.2016 03:55 4,9 C 81 % 1012,4 hPa 0,0 l/m 15,1 km/h (3 Bft) SW 229 0 min 0,000 mm 0,0 UV-I 0 W/m 1,9 C -1,1 C 19,3 km/h (3 Bft) 100,00 %
22.03.2016 03:56 4,9 C 81 % 1012,4 hPa 0,0 l/m 14,2 km/h (3 Bft) W-SW 246 0 min 0,000 mm 0,0 UV-I 0 W/m 1,9 C -0,6 C 17,7 km/h (3 Bft) 100,00 %
22.03.2016 03:57 4,9 C 81 % 1012,4 hPa 0,0 l/m 14,6 km/h (3 Bft) S 190 0 min 0,000 mm 0,0 UV-I 0 W/m 1,9 C -0,8 C 19,3 km/h (3 Bft) 100,00 %
22.03.2016 03:58 4,9 C 81 % 1012,4 hPa 0,0 l/m 9,9 km/h (2 Bft) SW 227 0 min 0,000 mm 0,0 UV-I 0 W/m 1,9 C 2,0 C 19,3 km/h (3 Bft) 100,00 %
22.03.2016 03:59 4,9 C 81 % 1012,4 hPa 0,0 l/m 10,4 km/h (2 Bft) S-SW 201 0 min 0,000 mm 0,0 UV-I 0 W/m 1,9 C 1,7 C 14,5 km/h (3 Bft) 100,00 %
22.03.2016 04:00 4,9 C 81 % 1012,4 hPa 0,0 l/m 15,1 km/h (3 Bft) W-SW 249 0 min 0,026 mm 0,0 UV-I 0 W/m 1,9 C -1,1 C 19,3 km/h (3 Bft) 100,00 %
22.03.2016 04:02 4,9 C 81 % 1012,4 hPa 0,0 l/m 13,1 km/h (3 Bft) SW 229 0 min 0,000 mm 0,0 UV-I 0 W/m 1,9 C -0,0 C 17,7 km/h (3 Bft) 96,55 %
22.03.2016 04:03 4,9 C 81 % 1012,4 hPa 0,0 l/m 13,5 km/h (3 Bft) SW 227 0 min 0,000 mm 0,0 UV-I 0 W/m 1,9 C -0,2 C 20,9 km/h (4 Bft) 100,00 %
22.03.2016 04:04 4,9 C 81 % 1012,4 hPa 0,0 l/m 14,3 km/h (3 Bft) SW 215 0 min 0,000 mm 0,0 UV-I 0 W/m 1,9 C -0,7 C 17,7 km/h (3 Bft) 92,31 %
22.03.2016 04:05 4,9 C 81 % 1012,4 hPa 0,0 l/m 15,0 km/h (3 Bft) W-SW 241 0 min 0,000 mm 0,0 UV-I 0 W/m 1,9 C -1,0 C 20,9 km/h (4 Bft) 100,00 %
22.03.2016 04:06 4,9 C 81 % 1012,4 hPa 0,0 l/m 13,5 km/h (3 Bft) SW 236 0 min 0,000 mm 0,0 UV-I 0 W/m 1,9 C -0,2 C 19,3 km/h (3 Bft) 95,65 %
22.03.2016 04:07 4,8 C 81 % 1012,4 hPa 0,0 l/m 18,9 km/h (3 Bft) SW 233 0 min 0,000 mm 0,0 UV-I 0 W/m 1,8 C -3,0 C 22,5 km/h (4 Bft) 100,00 %
22.03.2016 04:08 4,8 C 81 % 1012,4 hPa 0,0 l/m 14,8 km/h (3 Bft) SW 234 0 min 0,000 mm 0,0 UV-I 0 W/m 1,8 C -1,1 C 20,9 km/h (4 Bft) 100,00 %
22.03.2016 04:09 4,8 C 81 % 1012,5 hPa 0,0 l/m 13,0 km/h (3 Bft) SW 233 0 min 0,000 mm 0,0 UV-I 0 W/m 1,8 C -0,1 C 17,7 km/h (3 Bft) 100,00 %
22.03.2016 04:10 4,8 C 81 % 1012,4 hPa 0,0 l/m 14,2 km/h (3 Bft) W-SW 242 0 min 0,000 mm 0,0 UV-I 0 W/m 1,8 C -0,7 C 17,7 km/h (3 Bft) 100,00 %
22.03.2016 04:11 4,8 C 81 % 1012,4 hPa 0,0 l/m 17,1 km/h (3 Bft) SW 219 0 min 0,000 mm 0,0 UV-I 0 W/m 1,8 C -2,2 C 20,9 km/h (4 Bft) 100,00 %
22.03.2016 04:12 4,8 C 82 % 1012,4 hPa 0,0 l/m 17,2 km/h (3 Bft) W-SW 242 0 min 0,000 mm 0,0 UV-I 0 W/m 2,0 C -2,2 C 20,9 km/h (4 Bft) 100,00 %
22.03.2016 04:13 4,8 C 82 % 1012,4 hPa 0,0 l/m 15,7 km/h (3 Bft) SW 225 0 min 0,000 mm 0,0 UV-I 0 W/m 2,0 C -1,5 C 20,9 km/h (4 Bft) 100,00 %
22.03.2016 04:14 4,8 C 82 % 1012,5 hPa 0,0 l/m 13,5 km/h (3 Bft) SW 217 0 min 0,000 mm 0,0 UV-I 0 W/m 2,0 C -0,4 C 19,3 km/h (3 Bft) 100,00 %
22.03.2016 04:15 4,8 C 82 % 1012,4 hPa 0,0 l/m 15,0 km/h (3 Bft) SW 227 0 min 0,000 mm 0,0 UV-I 0 W/m 2,0 C -1,2 C 20,9 km/h (4 Bft) 100,00 %
22.03.2016 04:16 4,8 C 82 % 1012,4 hPa 0,0 l/m 14,2 km/h (3 Bft) SW 228 0 min 0,000 mm 0,0 UV-I 0 W/m 2,0 C -0,7 C 19,3 km/h (3 Bft) 91,67 %
22.03.2016 04:17 4,8 C 82 % 1012,4 hPa 0,0 l/m 15,2 km/h (3 Bft) W-SW 249 0 min 0,000 mm 0,0 UV-I 0 W/m 2,0 C -1,3 C 19,3 km/h (3 Bft) 100,00 %
22.03.2016 04:18 4,8 C 82 % 1012,4 hPa 0,0 l/m 15,2 km/h (3 Bft) W-SW 238 0 min 0,000 mm 0,0 UV-I 0 W/m 2,0 C -1,3 C 20,9 km/h (4 Bft) 100,00 %
22.03.2016 04:19 4,8 C 82 % 1012,4 hPa 0,0 l/m 14,6 km/h (3 Bft) W-SW 246 0 min 0,000 mm 0,0 UV-I 0 W/m 2,0 C -1,0 C 24,1 km/h (4 Bft) 100,00 %
22.03.2016 04:20 4,8 C 82 % 1012,4 hPa 0,0 l/m 15,0 km/h (3 Bft) SW 232 0 min 0,000 mm 0,0 UV-I 0 W/m 2,0 C -1,2 C 24,1 km/h (4 Bft) 100,00 %
22.03.2016 04:21 4,8 C 82 % 1012,4 hPa 0,0 l/m 17,7 km/h (3 Bft) W-SW 255 0 min 0,000 mm 0,0 UV-I 0 W/m 2,0 C -2,5 C 20,9 km/h (4 Bft) 100,00 %
22.03.2016 04:22 4,8 C 82 % 1012,4 hPa 0,0 l/m 16,3 km/h (3 Bft) W-SW 240 0 min 0,000 mm 0,0 UV-I 0 W/m 2,0 C -1,8 C 19,3 km/h (3 Bft) 96,30 %
22.03.2016 04:23 4,8 C 82 % 1012,4 hPa 0,0 l/m 14,5 km/h (3 Bft) W-SW 247 0 min 0,000 mm 0,0 UV-I 0 W/m 2,0 C -0,9 C 17,7 km/h (3 Bft) 100,00 %
22.03.2016 04:24 4,7 C 82 % 1012,4 hPa 0,0 l/m 14,2 km/h (3 Bft) W-SW 241 0 min 0,000 mm 0,0 UV-I 0 W/m 1,9 C -0,9 C 17,7 km/h (3 Bft) 96,67 %
22.03.2016 04:25 4,8 C 82 % 1012,4 hPa 0,0 l/m 15,3 km/h (3 Bft) W-SW 240 0 min 0,000 mm 0,0 UV-I 0 W/m 2,0 C -1,3 C 20,9 km/h (4 Bft) 100,00 %
22.03.2016 04:26 4,8 C 82 % 1012,4 hPa 0,0 l/m 12,9 km/h (3 Bft) SW 223 0 min 0,000 mm 0,0 UV-I 0 W/m 2,0 C -0,0 C 17,7 km/h (3 Bft) 100,00 %
22.03.2016 04:27 4,8 C 82 % 1012,4 hPa 0,0 l/m 11,4 km/h (2 Bft) SW 227 0 min 0,000 mm 0,0 UV-I 0 W/m 2,0 C 0,9 C 16,1 km/h (3 Bft) 100,00 %
22.03.2016 04:28 4,8 C 82 % 1012,4 hPa 0,0 l/m 14,6 km/h (3 Bft) S-SW 207 0 min 0,000 mm 0,0 UV-I 0 W/m 2,0 C -1,0 C 19,3 km/h (3 Bft) 100,00 %
22.03.2016 04:29 4,8 C 82 % 1012,4 hPa 0,0 l/m 14,3 km/h (3 Bft) SW 217 0 min 0,000 mm 0,0 UV-I 0 W/m 2,0 C -0,8 C 16,1 km/h (3 Bft) 96,15 %
22.03.2016 04:30 4,8 C 82 % 1012,4 hPa 0,0 l/m 15,4 km/h (3 Bft) S-SW 199 0 min 0,000 mm 0,0 UV-I 0 W/m 2,0 C -1,4 C 19,3 km/h (3 Bft) 100,00 %
22.03.2016 04:31 4,8 C 82 % 1012,4 hPa 0,0 l/m 15,6 km/h (3 Bft) SW 221 0 min 0,000 mm 0,0 UV-I 0 W/m 2,0 C -1,5 C 19,3 km/h (3 Bft) 96,15 %
22.03.2016 04:32 4,8 C 82 % 1012,4 hPa 0,0 l/m 12,9 km/h (3 Bft) SW 232 0 min 0,000 mm 0,0 UV-I 0 W/m 2,0 C -0,0 C 17,7 km/h (3 Bft) 100,00 %
22.03.2016 04:33 4,7 C 82 % 1012,3 hPa 0,0 l/m 12,5 km/h (3 Bft) W-SW 251 0 min 0,000 mm 0,0 UV-I 0 W/m 1,9 C 0,1 C 19,3 km/h (3 Bft) 91,67 %
22.03.2016 04:34 4,8 C 82 % 1012,3 hPa 0,0 l/m 14,4 km/h (3 Bft) W-SW 240 0 min 0,000 mm 0,0 UV-I 0 W/m 2,0 C -0,9 C 20,9 km/h (4 Bft) 97,56 %
22.03.2016 04:35 4,8 C 82 % 1012,3 hPa 0,0 l/m 16,4 km/h (3 Bft) W-SW 242 0 min 0,000 mm 0,0 UV-I 0 W/m 2,0 C -1,9 C 20,9 km/h (4 Bft) 100,00 %
22.03.2016 04:36 4,8 C 82 % 1012,3 hPa 0,0 l/m 16,0 km/h (3 Bft) W-SW 257 0 min 0,000 mm 0,0 UV-I 0 W/m 2,0 C -1,7 C 24,1 km/h (4 Bft) 91,67 %
22.03.2016 04:37 4,8 C 82 % 1012,3 hPa 0,0 l/m 12,8 km/h (3 Bft) SW 236 0 min 0,000 mm 0,0 UV-I 0 W/m 2,0 C 0,0 C 16,1 km/h (3 Bft) 100,00 %
22.03.2016 04:38 4,8 C 82 % 1012,3 hPa 0,0 l/m 12,4 km/h (3 Bft) SW 224 0 min 0,000 mm 0,0 UV-I 0 W/m 2,0 C 0,3 C 17,7 km/h (3 Bft) 96,15 %
22.03.2016 04:39 4,8 C 82 % 1012,3 hPa 0,0 l/m 15,8 km/h (3 Bft) SW 219 0 min 0,000 mm 0,0 UV-I 0 W/m 2,0 C -1,6 C 22,5 km/h (4 Bft) 100,00 %
22.03.2016 04:40 4,8 C 82 % 1012,3 hPa 0,0 l/m 12,2 km/h (2 Bft) W-SW 238 0 min 0,000 mm 0,0 UV-I 0 W/m 2,0 C 0,4 C 16,1 km/h (3 Bft) 96,55 %
22.03.2016 04:41 4,8 C 82 % 1012,3 hPa 0,0 l/m 11,6 km/h (2 Bft) W-SW 241 0 min 0,000 mm 0,0 UV-I 0 W/m 2,0 C 0,8 C 19,3 km/h (3 Bft) 100,00 %
22.03.2016 04:42 4,8 C 82 % 1012,3 hPa 0,0 l/m 13,4 km/h (3 Bft) W-SW 242 0 min 0,000 mm 0,0 UV-I 0 W/m 2,0 C -0,3 C 17,7 km/h (3 Bft) 92,31 %
22.03.2016 04:43 4,8 C 82 % 1012,3 hPa 0,0 l/m 14,4 km/h (3 Bft) SW 234 0 min 0,000 mm 0,0 UV-I 0 W/m 2,0 C -0,9 C 17,7 km/h (3 Bft) 100,00 %
22.03.2016 04:44 4,8 C 82 % 1012,3 hPa 0,0 l/m 12,9 km/h (3 Bft) W-SW 258 0 min 0,000 mm 0,0 UV-I 0 W/m 2,0 C -0,0 C 17,7 km/h (3 Bft) 96,55 %
22.03.2016 04:45 4,8 C 82 % 1012,3 hPa 0,0 l/m 13,7 km/h (3 Bft) SW 235 0 min 0,000 mm 0,0 UV-I 0 W/m 2,0 C -0,5 C 19,3 km/h (3 Bft) 96,30 %
22.03.2016 04:46 4,8 C 82 % 1012,2 hPa 0,0 l/m 13,1 km/h (3 Bft) SW 234 0 min 0,000 mm 0,0 UV-I 0 W/m 2,0 C -0,1 C 16,1 km/h (3 Bft) 100,00 %
22.03.2016 04:47 4,8 C 82 % 1012,2 hPa 0,0 l/m 12,6 km/h (3 Bft) SW 215 0 min 0,000 mm 0,0 UV-I 0 W/m 2,0 C 0,2 C 17,7 km/h (3 Bft) 95,83 %
22.03.2016 04:48 4,8 C 82 % 1012,2 hPa 0,0 l/m 16,1 km/h (3 Bft) W-SW 257 0 min 0,000 mm 0,0 UV-I 0 W/m 2,0 C -1,7 C 20,9 km/h (4 Bft) 94,12 %
22.03.2016 04:49 4,8 C 82 % 1012,2 hPa 0,0 l/m 13,1 km/h (3 Bft) W-SW 242 0 min 0,000 mm 0,0 UV-I 0 W/m 2,0 C -0,1 C 19,3 km/h (3 Bft) 95,83 %
22.03.2016 04:50 4,7 C 82 % 1012,2 hPa 0,0 l/m 12,1 km/h (2 Bft) SW 235 0 min 0,000 mm 0,0 UV-I 0 W/m 1,9 C 0,3 C 17,7 km/h (3 Bft) 100,00 %
22.03.2016 04:51 4,7 C 82 % 1012,2 hPa 0,0 l/m 14,8 km/h (3 Bft) SW 229 0 min 0,000 mm 0,0 UV-I 0 W/m 1,9 C -1,2 C 22,5 km/h (4 Bft) 96,67 %
22.03.2016 04:52 4,8 C 82 % 1012,2 hPa 0,0 l/m 16,2 km/h (3 Bft) W-SW 242 0 min 0,000 mm 0,0 UV-I 0 W/m 2,0 C -1,8 C 22,5 km/h (4 Bft) 100,00 %
22.03.2016 04:53 4,8 C 82 % 1012,3 hPa 0,0 l/m 9,7 km/h (2 Bft) W 262 0 min 0,000 mm 0,0 UV-I 0 W/m 2,0 C 2,1 C 14,5 km/h (3 Bft) 93,10 %
22.03.2016 04:54 4,8 C 82 % 1012,3 hPa 0,0 l/m 11,7 km/h (2 Bft) W-SW 256 0 min 0,000 mm 0,0 UV-I 0 W/m 2,0 C 0,7 C 16,1 km/h (3 Bft) 96,55 %
22.03.2016 04:55 4,7 C 82 % 1012,3 hPa 0,0 l/m 11,0 km/h (2 Bft) W-NW 291 0 min 0,000 mm 0,0 UV-I 0 W/m 1,9 C 1,1 C 16,1 km/h (3 Bft) 97,92 %
22.03.2016 04:56 4,7 C 82 % 1012,3 hPa 0,0 l/m 8,4 km/h (2 Bft) W-SW 255 0 min 0,000 mm 0,0 UV-I 0 W/m 1,9 C 3,0 C 14,5 km/h (3 Bft) 97,62 %
22.03.2016 04:57 4,7 C 82 % 1012,3 hPa 0,0 l/m 8,3 km/h (2 Bft) W 273 0 min 0,000 mm 0,0 UV-I 0 W/m 1,9 C 3,0 C 11,3 km/h (2 Bft) 100,00 %
22.03.2016 04:58 4,7 C 82 % 1012,4 hPa 0,0 l/m 6,4 km/h (2 Bft) W-NW 294 0 min 0,000 mm 0,0 UV-I 0 W/m 1,9 C 4,7 C 9,7 km/h (2 Bft) 94,44 %
22.03.2016 04:59 4,7 C 82 % 1012,4 hPa 0,0 l/m 5,4 km/h (1 Bft) W 273 0 min 0,000 mm 0,0 UV-I 0 W/m 1,9 C 4,7 C 6,4 km/h (2 Bft) 92,31 %
22.03.2016 05:00 4,7 C 82 % 1012,4 hPa 0,0 l/m 3,4 km/h (1 Bft) W-SW 254 0 min 0,025 mm 0,0 UV-I 0 W/m 1,9 C 4,7 C 6,4 km/h (2 Bft) 100,00 %
22.03.2016 05:02 4,7 C 82 % 1012,4 hPa 0,0 l/m 5,0 km/h (1 Bft) W 271 0 min 0,000 mm 0,0 UV-I 0 W/m 1,9 C 4,7 C 9,7 km/h (2 Bft) 100,00 %
22.03.2016 05:03 4,7 C 82 % 1012,4 hPa 0,0 l/m 5,4 km/h (1 Bft) W-SW 252 0 min 0,000 mm 0,0 UV-I 0 W/m 1,9 C 4,7 C 6,4 km/h (2 Bft) 95,65 %
22.03.2016 05:04 4,7 C 82 % 1012,5 hPa 0,0 l/m 6,4 km/h (2 Bft) W 276 0 min 0,000 mm 0,0 UV-I 0 W/m 1,9 C 4,7 C 9,7 km/h (2 Bft) 100,00 %
22.03.2016 05:05 4,7 C 82 % 1012,5 hPa 0,0 l/m 7,5 km/h (2 Bft) W-SW 257 0 min 0,000 mm 0,0 UV-I 0 W/m 1,9 C 3,7 C 11,3 km/h (2 Bft) 100,00 %
22.03.2016 05:06 4,7 C 82 % 1012,5 hPa 0,0 l/m 5,8 km/h (2 Bft) W 271 0 min 0,000 mm 0,0 UV-I 0 W/m 1,9 C 4,7 C 9,7 km/h (2 Bft) 100,00 %
22.03.2016 05:07 4,7 C 82 % 1012,5 hPa 0,0 l/m 5,0 km/h (1 Bft) W-SW 252 0 min 0,000 mm 0,0 UV-I 0 W/m 1,9 C 4,7 C 6,4 km/h (2 Bft) 100,00 %
22.03.2016 05:08 4,7 C 82 % 1012,5 hPa 0,0 l/m 4,2 km/h (1 Bft) W 269 0 min 0,000 mm 0,0 UV-I 0 W/m 1,9 C 4,7 C 6,4 km/h (2 Bft) 100,00 %
22.03.2016 05:09 4,7 C 82 % 1012,5 hPa 0,0 l/m 5,6 km/h (1 Bft) W 261 0 min 0,000 mm 0,0 UV-I 0 W/m 1,9 C 4,7 C 6,4 km/h (2 Bft) 95,65 %
22.03.2016 05:10 4,7 C 82 % 1012,5 hPa 0,0 l/m 6,9 km/h (2 Bft) W 278 0 min 0,000 mm 0,0 UV-I 0 W/m 1,9 C 4,3 C 9,7 km/h (2 Bft) 100,00 %
22.03.2016 05:11 4,7 C 82 % 1012,4 hPa 0,0 l/m 5,8 km/h (2 Bft) W-SW 240 0 min 0,000 mm 0,0 UV-I 0 W/m 1,9 C 4,7 C 6,4 km/h (2 Bft) 100,00 %
22.03.2016 05:12 4,7 C 82 % 1012,4 hPa 0,0 l/m 5,4 km/h (1 Bft) W-NW 295 0 min 0,000 mm 0,0 UV-I 0 W/m 1,9 C 4,7 C 9,7 km/h (2 Bft) 93,33 %
22.03.2016 05:13 4,7 C 82 % 1012,4 hPa 0,0 l/m 9,7 km/h (2 Bft) W-SW 250 0 min 0,000 mm 0,0 UV-I 0 W/m 1,9 C 2,0 C 14,5 km/h (3 Bft) 100,00 %
22.03.2016 05:14 4,7 C 82 % 1012,4 hPa 0,0 l/m 5,3 km/h (1 Bft) W-SW 256 0 min 0,000 mm 0,0 UV-I 0 W/m 1,9 C 4,7 C 6,4 km/h (2 Bft) 100,00 %
22.03.2016 05:15 4,7 C 82 % 1012,4 hPa 0,0 l/m 4,5 km/h (1 Bft) W 259 0 min 0,000 mm 0,0 UV-I 0 W/m 1,9 C 4,7 C 6,4 km/h (2 Bft) 100,00 %
22.03.2016 05:16 4,7 C 82 % 1012,4 hPa 0,0 l/m 6,4 km/h (2 Bft) W 273 0 min 0,000 mm 0,0 UV-I 0 W/m 1,9 C 4,7 C 9,7 km/h (2 Bft) 100,00 %
22.03.2016 05:17 4,7 C 82 % 1012,4 hPa 0,0 l/m 5,5 km/h (1 Bft) W-SW 243 0 min 0,000 mm 0,0 UV-I 0 W/m 1,9 C 4,7 C 6,4 km/h (2 Bft) 100,00 %
22.03.2016 05:18 4,7 C 82 % 1012,4 hPa 0,0 l/m 5,2 km/h (1 Bft) W-SW 251 0 min 0,000 mm 0,0 UV-I 0 W/m 1,9 C 4,7 C 6,4 km/h (2 Bft) 100,00 %
22.03.2016 05:19 4,7 C 82 % 1012,4 hPa 0,0 l/m 9,0 km/h (2 Bft) W-SW 247 0 min 0,000 mm 0,0 UV-I 0 W/m 1,9 C 2,5 C 14,5 km/h (3 Bft) 100,00 %
22.03.2016 05:20 4,7 C 82 % 1012,4 hPa 0,0 l/m 5,8 km/h (2 Bft) W-SW 242 0 min 0,000 mm 0,0 UV-I 0 W/m 1,9 C 4,7 C 6,4 km/h (2 Bft) 100,00 %
22.03.2016 05:21 4,7 C 82 % 1012,4 hPa 0,0 l/m 4,5 km/h (1 Bft) W-SW 255 0 min 0,000 mm 0,0 UV-I 0 W/m 1,9 C 4,7 C 4,8 km/h (1 Bft) 100,00 %
22.03.2016 05:22 4,7 C 82 % 1012,4 hPa 0,0 l/m 5,3 km/h (1 Bft) W 259 0 min 0,000 mm 0,0 UV-I 0 W/m 1,9 C 4,7 C 9,7 km/h (2 Bft) 100,00 %
22.03.2016 05:23 4,7 C 82 % 1012,4 hPa 0,0 l/m 6,1 km/h (2 Bft) W-SW 252 0 min 0,000 mm 0,0 UV-I 0 W/m 1,9 C 4,7 C 8,0 km/h (2 Bft) 100,00 %
22.03.2016 05:24 4,7 C 82 % 1012,4 hPa 0,0 l/m 5,7 km/h (1 Bft) SW 232 0 min 0,000 mm 0,0 UV-I 0 W/m 1,9 C 4,7 C 9,7 km/h (2 Bft) 96,55 %
22.03.2016 05:25 4,6 C 82 % 1012,4 hPa 0,0 l/m 6,8 km/h (2 Bft) W-SW 256 0 min 0,000 mm 0,0 UV-I 0 W/m 1,8 C 4,3 C 11,3 km/h (2 Bft) 100,00 %
22.03.2016 05:26 4,6 C 82 % 1012,5 hPa 0,0 l/m 6,9 km/h (2 Bft) W-SW 244 0 min 0,000 mm 0,0 UV-I 0 W/m 1,8 C 4,2 C 11,3 km/h (2 Bft) 91,30 %
22.03.2016 05:27 4,6 C 82 % 1012,4 hPa 0,0 l/m 6,6 km/h (2 Bft) W 259 0 min 0,000 mm 0,0 UV-I 0 W/m 1,8 C 4,4 C 11,3 km/h (2 Bft) 100,00 %
22.03.2016 05:28 4,6 C 82 % 1012,4 hPa 0,0 l/m 5,3 km/h (1 Bft) W-SW 254 0 min 0,000 mm 0,0 UV-I 0 W/m 1,8 C 4,6 C 6,4 km/h (2 Bft) 100,00 %
22.03.2016 05:29 4,6 C 82 % 1012,4 hPa 0,0 l/m 5,5 km/h (1 Bft) SW 236 0 min 0,000 mm 0,0 UV-I 0 W/m 1,8 C 4,6 C 9,7 km/h (2 Bft) 100,00 %
22.03.2016 05:30 4,6 C 82 % 1012,4 hPa 0,0 l/m 3,6 km/h (1 Bft) SW 236 0 min 0,000 mm 0,0 UV-I 0 W/m 1,8 C 4,6 C 4,8 km/h (1 Bft) 100,00 %
22.03.2016 05:31 4,6 C 82 % 1012,5 hPa 0,0 l/m 5,0 km/h (1 Bft) W-SW 243 0 min 0,000 mm 0,0 UV-I 0 W/m 1,8 C 4,6 C 6,4 km/h (2 Bft) 100,00 %
22.03.2016 05:32 4,6 C 83 % 1012,4 hPa 0,0 l/m 5,6 km/h (1 Bft) W-SW 256 0 min 0,000 mm 0,0 UV-I 0 W/m 2,0 C 4,6 C 8,0 km/h (2 Bft) 100,00 %
22.03.2016 05:33 4,5 C 83 % 1012,5 hPa 0,0 l/m 3,8 km/h (1 Bft) W 263 0 min 0,000 mm 0,0 UV-I 0 W/m 1,9 C 4,5 C 6,4 km/h (2 Bft) 96,55 %
22.03.2016 05:34 4,5 C 83 % 1012,5 hPa 0,0 l/m 5,9 km/h (2 Bft) W 259 0 min 0,000 mm 0,0 UV-I 0 W/m 1,9 C 4,5 C 9,7 km/h (2 Bft) 91,67 %
22.03.2016 05:35 4,5 C 83 % 1012,5 hPa 0,0 l/m 5,1 km/h (1 Bft) W-SW 255 0 min 0,000 mm 0,0 UV-I 0 W/m 1,9 C 4,5 C 6,4 km/h (2 Bft) 100,00 %
22.03.2016 05:36 4,5 C 83 % 1012,5 hPa 0,0 l/m 5,5 km/h (1 Bft) W-SW 251 0 min 0,000 mm 0,0 UV-I 0 W/m 1,9 C 4,5 C 8,0 km/h (2 Bft) 100,00 %
22.03.2016 05:37 4,4 C 83 % 1012,5 hPa 0,0 l/m 5,7 km/h (1 Bft) SW 236 0 min 0,000 mm 0,0 UV-I 0 W/m 1,8 C 4,4 C 8,0 km/h (2 Bft) 100,00 %
22.03.2016 05:38 4,4 C 83 % 1012,4 hPa 0,0 l/m 5,4 km/h (1 Bft) W-SW 242 0 min 0,000 mm 0,0 UV-I 0 W/m 1,8 C 4,4 C 8,0 km/h (2 Bft) 96,30 %
22.03.2016 05:39 4,5 C 83 % 1012,4 hPa 0,0 l/m 5,9 km/h (2 Bft) W-SW 243 0 min 0,000 mm 0,0 UV-I 0 W/m 1,9 C 4,5 C 11,3 km/h (2 Bft) 95,65 %
22.03.2016 05:40 4,4 C 83 % 1012,4 hPa 0,0 l/m 4,0 km/h (1 Bft) SW 235 0 min 0,000 mm 0,0 UV-I 0 W/m 1,8 C 4,4 C 4,8 km/h (1 Bft) 100,00 %
22.03.2016 05:41 4,5 C 83 % 1012,5 hPa 0,0 l/m 5,9 km/h (2 Bft) W-SW 244 0 min 0,000 mm 0,0 UV-I 0 W/m 1,9 C 4,5 C 8,0 km/h (2 Bft) 100,00 %
22.03.2016 05:42 4,4 C 83 % 1012,5 hPa 0,0 l/m 5,8 km/h (2 Bft) SW 233 0 min 0,000 mm 0,0 UV-I 0 W/m 1,8 C 4,4 C 8,0 km/h (2 Bft) 100,00 %
22.03.2016 05:43 4,4 C 83 % 1012,5 hPa 0,0 l/m 5,0 km/h (1 Bft) W-SW 250 0 min 0,000 mm 0,0 UV-I 0 W/m 1,8 C 4,4 C 6,4 km/h (2 Bft) 100,00 %
22.03.2016 05:44 4,4 C 83 % 1012,5 hPa 0,0 l/m 6,4 km/h (2 Bft) SW 223 0 min 0,000 mm 0,0 UV-I 0 W/m 1,8 C 4,4 C 8,0 km/h (2 Bft) 100,00 %
22.03.2016 05:45 4,4 C 83 % 1012,5 hPa 0,0 l/m 5,8 km/h (2 Bft) S-SW 208 0 min 0,000 mm 0,0 UV-I 0 W/m 1,8 C 4,4 C 8,0 km/h (2 Bft) 100,00 %
22.03.2016 05:46 4,4 C 83 % 1012,5 hPa 0,0 l/m 4,5 km/h (1 Bft) S-SW 209 0 min 0,000 mm 0,0 UV-I 0 W/m 1,8 C 4,4 C 6,4 km/h (2 Bft) 100,00 %
22.03.2016 05:47 4,4 C 83 % 1012,5 hPa 0,0 l/m 5,7 km/h (1 Bft) SW 223 0 min 0,000 mm 0,0 UV-I 0 W/m 1,8 C 4,4 C 8,0 km/h (2 Bft) 100,00 %
22.03.2016 05:48 4,4 C 83 % 1012,5 hPa 0,0 l/m 5,9 km/h (2 Bft) S-SW 196 0 min 0,000 mm 0,0 UV-I 0 W/m 1,8 C 4,4 C 8,0 km/h (2 Bft) 100,00 %
22.03.2016 05:49 4,3 C 83 % 1012,5 hPa 0,0 l/m 4,8 km/h (1 Bft) SW 223 0 min 0,000 mm 0,0 UV-I 0 W/m 1,7 C 4,3 C 6,4 km/h (2 Bft) 100,00 %
22.03.2016 05:50 4,3 C 84 % 1012,5 hPa 0,0 l/m 4,5 km/h (1 Bft) SW 226 0 min 0,000 mm 0,0 UV-I 0 W/m 1,8 C 4,3 C 6,4 km/h (2 Bft) 100,00 %
22.03.2016 05:51 4,3 C 83 % 1012,5 hPa 0,0 l/m 6,6 km/h (2 Bft) SW 226 0 min 0,000 mm 0,0 UV-I 0 W/m 1,7 C 4,1 C 8,0 km/h (2 Bft) 100,00 %
22.03.2016 05:52 4,3 C 83 % 1012,5 hPa 0,0 l/m 5,6 km/h (1 Bft) SW 225 0 min 0,000 mm 0,0 UV-I 0 W/m 1,7 C 4,3 C 6,4 km/h (2 Bft) 92,31 %
22.03.2016 05:53 4,3 C 84 % 1012,5 hPa 0,0 l/m 4,7 km/h (1 Bft) SW 229 0 min 0,000 mm 0,0 UV-I 0 W/m 1,8 C 4,3 C 6,4 km/h (2 Bft) 100,00 %
22.03.2016 05:54 4,3 C 84 % 1012,5 hPa 0,0 l/m 5,3 km/h (1 Bft) SW 224 0 min 0,000 mm 0,0 UV-I 0 W/m 1,8 C 4,3 C 8,0 km/h (2 Bft) 100,00 %
22.03.2016 05:55 4,3 C 83 % 1012,5 hPa 0,0 l/m 5,7 km/h (1 Bft) S-SW 213 0 min 0,000 mm 0,0 UV-I 0 W/m 1,7 C 4,3 C 8,0 km/h (2 Bft) 100,00 %
22.03.2016 05:56 4,3 C 83 % 1012,5 hPa 0,0 l/m 5,6 km/h (1 Bft) SW 226 0 min 0,000 mm 0,0 UV-I 0 W/m 1,7 C 4,3 C 6,4 km/h (2 Bft) 100,00 %
22.03.2016 05:57 4,3 C 83 % 1012,5 hPa 0,0 l/m 6,8 km/h (2 Bft) SW 232 0 min 0,000 mm 0,0 UV-I 0 W/m 1,7 C 3,9 C 9,7 km/h (2 Bft) 100,00 %
22.03.2016 05:58 4,3 C 83 % 1012,5 hPa 0,0 l/m 5,3 km/h (1 Bft) SW 221 0 min 0,000 mm 0,0 UV-I 0 W/m 1,7 C 4,3 C 8,0 km/h (2 Bft) 96,15 %
22.03.2016 05:59 4,3 C 84 % 1012,5 hPa 0,0 l/m 6,0 km/h (2 Bft) SW 231 0 min 0,000 mm 0,0 UV-I 0 W/m 1,8 C 4,3 C 8,0 km/h (2 Bft) 100,00 %
22.03.2016 06:00 4,3 C 84 % 1012,5 hPa 0,0 l/m 5,8 km/h (2 Bft) SW 217 0 min 0,000 mm 0,0 UV-I 0 W/m 1,8 C 4,3 C 8,0 km/h (2 Bft) 100,00 %
22.03.2016 06:02 4,3 C 84 % 1012,5 hPa 0,0 l/m 5,9 km/h (2 Bft) S 186 0 min 0,000 mm 0,0 UV-I 0 W/m 1,8 C 4,3 C 8,0 km/h (2 Bft) 100,00 %
22.03.2016 06:03 4,3 C 83 % 1012,5 hPa 0,0 l/m 4,5 km/h (1 Bft) SW 232 0 min 0,000 mm 0,0 UV-I 0 W/m 1,7 C 4,3 C 6,4 km/h (2 Bft) 100,00 %
22.03.2016 06:04 4,3 C 83 % 1012,5 hPa 0,0 l/m 5,1 km/h (1 Bft) S-SW 202 0 min 0,000 mm 0,0 UV-I 0 W/m 1,7 C 4,3 C 6,4 km/h (2 Bft) 100,00 %
22.03.2016 06:05 4,3 C 83 % 1012,5 hPa 0,0 l/m 5,5 km/h (1 Bft) S-SW 202 0 min 0,000 mm 0,0 UV-I 0 W/m 1,7 C 4,3 C 6,4 km/h (2 Bft) 100,00 %
22.03.2016 06:06 4,3 C 84 % 1012,5 hPa 0,0 l/m 6,0 km/h (2 Bft) SW 220 0 min 0,000 mm 0,0 UV-I 0 W/m 1,8 C 4,3 C 8,0 km/h (2 Bft) 100,00 %
22.03.2016 06:07 4,3 C 83 % 1012,5 hPa 0,0 l/m 4,7 km/h (1 Bft) SW 226 0 min 0,000 mm 0,0 UV-I 0 W/m 1,7 C 4,3 C 6,4 km/h (2 Bft) 100,00 %
22.03.2016 06:08 4,3 C 83 % 1012,5 hPa 0,0 l/m 6,0 km/h (2 Bft) SW 223 0 min 0,000 mm 0,0 UV-I 0 W/m 1,7 C 4,3 C 8,0 km/h (2 Bft) 100,00 %
22.03.2016 06:09 4,3 C 83 % 1012,5 hPa 0,0 l/m 6,0 km/h (2 Bft) SW 227 0 min 0,000 mm 0,0 UV-I 0 W/m 1,7 C 4,3 C 8,0 km/h (2 Bft) 96,67 %
22.03.2016 06:10 4,3 C 84 % 1012,5 hPa 0,0 l/m 5,9 km/h (2 Bft) W 265 0 min 0,000 mm 0,0 UV-I 0 W/m 1,8 C 4,3 C 9,7 km/h (2 Bft) 100,00 %
22.03.2016 06:11 4,3 C 84 % 1012,5 hPa 0,0 l/m 7,2 km/h (2 Bft) W-SW 243 0 min 0,000 mm 0,0 UV-I 5 W/m 1,8 C 3,6 C 9,7 km/h (2 Bft) 100,00 %
22.03.2016 06:12 4,3 C 84 % 1012,5 hPa 0,0 l/m 7,2 km/h (2 Bft) SW 230 0 min 0,000 mm 0,0 UV-I 5 W/m 1,8 C 3,6 C 9,7 km/h (2 Bft) 100,00 %
22.03.2016 06:13 4,3 C 84 % 1012,5 hPa 0,0 l/m 7,5 km/h (2 Bft) SW 231 0 min 0,000 mm 0,0 UV-I 5 W/m 1,8 C 3,3 C 9,7 km/h (2 Bft) 100,00 %
22.03.2016 06:14 4,3 C 84 % 1012,5 hPa 0,0 l/m 5,8 km/h (2 Bft) W-SW 238 0 min 0,000 mm 0,0 UV-I 5 W/m 1,8 C 4,3 C 8,0 km/h (2 Bft) 100,00 %
22.03.2016 06:15 4,3 C 84 % 1012,5 hPa 0,0 l/m 7,3 km/h (2 Bft) SW 229 0 min 0,000 mm 0,0 UV-I 5 W/m 1,8 C 3,5 C 8,0 km/h (2 Bft) 100,00 %
22.03.2016 06:16 4,3 C 84 % 1012,5 hPa 0,0 l/m 6,2 km/h (2 Bft) S-SW 209 0 min 0,000 mm 0,0 UV-I 5 W/m 1,8 C 4,3 C 8,0 km/h (2 Bft) 100,00 %
22.03.2016 06:17 4,3 C 84 % 1012,5 hPa 0,0 l/m 6,2 km/h (2 Bft) W-SW 237 0 min 0,000 mm 0,0 UV-I 5 W/m 1,8 C 4,3 C 8,0 km/h (2 Bft) 100,00 %
22.03.2016 06:18 4,3 C 84 % 1012,5 hPa 0,0 l/m 6,4 km/h (2 Bft) S-SW 213 0 min 0,000 mm 0,0 UV-I 5 W/m 1,8 C 4,3 C 9,7 km/h (2 Bft) 100,00 %
22.03.2016 06:19 4,3 C 84 % 1012,5 hPa 0,0 l/m 5,9 km/h (2 Bft) SW 235 0 min 0,000 mm 0,0 UV-I 6 W/m 1,8 C 4,3 C 8,0 km/h (2 Bft) 91,67 %
22.03.2016 06:20 4,3 C 84 % 1012,5 hPa 0,0 l/m 6,6 km/h (2 Bft) SW 233 0 min 0,000 mm 0,0 UV-I 7 W/m 1,8 C 4,1 C 8,0 km/h (2 Bft) 95,83 %
22.03.2016 06:21 4,3 C 84 % 1012,4 hPa 0,0 l/m 6,4 km/h (2 Bft) SW 220 0 min 0,000 mm 0,0 UV-I 7 W/m 1,8 C 4,3 C 8,0 km/h (2 Bft) 100,00 %
22.03.2016 06:22 4,3 C 84 % 1012,4 hPa 0,0 l/m 6,0 km/h (2 Bft) SW 236 0 min 0,000 mm 0,0 UV-I 7 W/m 1,8 C 4,3 C 9,7 km/h (2 Bft) 100,00 %
22.03.2016 06:23 4,3 C 84 % 1012,4 hPa 0,0 l/m 6,7 km/h (2 Bft) W-SW 239 0 min 0,000 mm 0,0 UV-I 7 W/m 1,8 C 4,0 C 9,7 km/h (2 Bft) 100,00 %
22.03.2016 06:24 4,3 C 85 % 1012,5 hPa 0,0 l/m 6,6 km/h (2 Bft) SW 223 0 min 0,000 mm 0,0 UV-I 9 W/m 2,0 C 4,1 C 9,7 km/h (2 Bft) 100,00 %
22.03.2016 06:25 4,3 C 85 % 1012,5 hPa 0,0 l/m 4,4 km/h (1 Bft) SW 225 0 min 0,000 mm 0,0 UV-I 9 W/m 2,0 C 4,3 C 6,4 km/h (2 Bft) 100,00 %
22.03.2016 06:26 4,3 C 84 % 1012,5 hPa 0,0 l/m 5,1 km/h (1 Bft) SW 236 0 min 0,000 mm 0,0 UV-I 10 W/m 1,8 C 4,3 C 6,4 km/h (2 Bft) 96,30 %
22.03.2016 06:27 4,3 C 84 % 1012,5 hPa 0,0 l/m 6,7 km/h (2 Bft) SW 235 0 min 0,000 mm 0,0 UV-I 11 W/m 1,8 C 4,0 C 8,0 km/h (2 Bft) 100,00 %
22.03.2016 06:28 4,3 C 85 % 1012,5 hPa 0,0 l/m 6,5 km/h (2 Bft) SW 232 0 min 0,000 mm 0,0 UV-I 11 W/m 2,0 C 4,2 C 9,7 km/h (2 Bft) 100,00 %
22.03.2016 06:29 4,3 C 85 % 1012,5 hPa 0,0 l/m 5,6 km/h (1 Bft) SW 229 0 min 0,000 mm 0,0 UV-I 12 W/m 2,0 C 4,3 C 8,0 km/h (2 Bft) 100,00 %
22.03.2016 06:30 4,3 C 85 % 1012,5 hPa 0,0 l/m 7,5 km/h (2 Bft) SW 233 0 min 0,000 mm 0,0 UV-I 12 W/m 2,0 C 3,3 C 9,7 km/h (2 Bft) 100,00 %
22.03.2016 06:31 4,3 C 85 % 1012,4 hPa 0,0 l/m 7,6 km/h (2 Bft) W-SW 238 0 min 0,000 mm 0,0 UV-I 12 W/m 2,0 C 3,2 C 9,7 km/h (2 Bft) 100,00 %
22.03.2016 06:32 4,3 C 85 % 1012,5 hPa 0,0 l/m 5,8 km/h (2 Bft) W-SW 256 0 min 0,000 mm 0,0 UV-I 12 W/m 2,0 C 4,3 C 6,4 km/h (2 Bft) 100,00 %
22.03.2016 06:33 4,3 C 85 % 1012,5 hPa 0,0 l/m 4,6 km/h (1 Bft) S 182 0 min 0,000 mm 0,0 UV-I 12 W/m 2,0 C 4,3 C 8,0 km/h (2 Bft) 95,83 %
22.03.2016 06:34 4,3 C 84 % 1012,5 hPa 0,0 l/m 5,8 km/h (2 Bft) SW 214 0 min 0,000 mm 0,0 UV-I 14 W/m 1,8 C 4,3 C 8,0 km/h (2 Bft) 96,15 %
22.03.2016 06:35 4,3 C 84 % 1012,5 hPa 0,0 l/m 5,9 km/h (2 Bft) SW 225 0 min 0,000 mm 0,0 UV-I 14 W/m 1,8 C 4,3 C 8,0 km/h (2 Bft) 100,00 %
22.03.2016 06:36 4,3 C 84 % 1012,5 hPa 0,0 l/m 8,6 km/h (2 Bft) SW 227 0 min 0,000 mm 0,0 UV-I 15 W/m 1,8 C 2,4 C 11,3 km/h (2 Bft) 96,15 %
22.03.2016 06:37 4,3 C 84 % 1012,5 hPa 0,0 l/m 6,7 km/h (2 Bft) S-SW 209 0 min 0,000 mm 0,0 UV-I 16 W/m 1,8 C 4,0 C 11,3 km/h (2 Bft) 93,33 %
22.03.2016 06:38 4,4 C 84 % 1012,5 hPa 0,0 l/m 7,2 km/h (2 Bft) W-SW 255 0 min 0,000 mm 0,0 UV-I 17 W/m 1,9 C 3,7 C 9,7 km/h (2 Bft) 96,15 %
22.03.2016 06:39 4,4 C 84 % 1012,5 hPa 0,0 l/m 6,9 km/h (2 Bft) S-SW 202 0 min 0,000 mm 0,0 UV-I 19 W/m 1,9 C 4,0 C 9,7 km/h (2 Bft) 100,00 %
22.03.2016 06:40 4,4 C 84 % 1012,5 hPa 0,0 l/m 8,0 km/h (2 Bft) SW 219 0 min 0,000 mm 0,0 UV-I 21 W/m 1,9 C 3,0 C 11,3 km/h (2 Bft) 95,65 %
22.03.2016 06:41 4,4 C 84 % 1012,5 hPa 0,0 l/m 7,9 km/h (2 Bft) S-SW 211 0 min 0,000 mm 0,0 UV-I 21 W/m 1,9 C 3,1 C 9,7 km/h (2 Bft) 91,67 %
22.03.2016 06:42 4,4 C 84 % 1012,5 hPa 0,0 l/m 5,8 km/h (2 Bft) S-SW 205 0 min 0,000 mm 0,0 UV-I 23 W/m 1,9 C 4,4 C 8,0 km/h (2 Bft) 96,15 %
22.03.2016 06:43 4,4 C 84 % 1012,5 hPa 0,0 l/m 8,3 km/h (2 Bft) W-SW 243 0 min 0,000 mm 0,0 UV-I 24 W/m 1,9 C 2,7 C 11,3 km/h (2 Bft) 96,67 %
22.03.2016 06:44 4,4 C 84 % 1012,5 hPa 0,0 l/m 8,1 km/h (2 Bft) S-SW 196 0 min 0,000 mm 0,0 UV-I 25 W/m 1,9 C 2,9 C 11,3 km/h (2 Bft) 91,30 %
22.03.2016 06:45 4,4 C 84 % 1012,5 hPa 0,0 l/m 8,8 km/h (2 Bft) S-SW 200 0 min 0,000 mm 0,0 UV-I 26 W/m 1,9 C 2,3 C 14,5 km/h (3 Bft) 96,30 %
22.03.2016 06:46 4,4 C 84 % 1012,5 hPa 0,0 l/m 9,2 km/h (2 Bft) W-SW 252 0 min 0,000 mm 0,0 UV-I 26 W/m 1,9 C 2,0 C 12,9 km/h (3 Bft) 100,00 %
22.03.2016 06:47 4,5 C 84 % 1012,5 hPa 0,0 l/m 9,7 km/h (2 Bft) S 190 0 min 0,000 mm 0,0 UV-I 26 W/m 2,0 C 1,7 C 14,5 km/h (3 Bft) 96,30 %
22.03.2016 06:48 4,5 C 84 % 1012,5 hPa 0,0 l/m 7,9 km/h (2 Bft) SW 236 0 min 0,000 mm 0,0 UV-I 26 W/m 2,0 C 3,2 C 12,9 km/h (3 Bft) 100,00 %
22.03.2016 06:49 4,5 C 84 % 1012,5 hPa 0,0 l/m 8,6 km/h (2 Bft) S 179 0 min 0,000 mm 0,0 UV-I 27 W/m 2,0 C 2,6 C 12,9 km/h (3 Bft) 96,30 %
22.03.2016 06:50 4,5 C 84 % 1012,5 hPa 0,0 l/m 7,9 km/h (2 Bft) SW 218 0 min 0,000 mm 0,0 UV-I 28 W/m 2,0 C 3,2 C 16,1 km/h (3 Bft) 91,30 %
22.03.2016 06:51 4,5 C 83 % 1012,5 hPa 0,0 l/m 11,3 km/h (2 Bft) W-SW 237 0 min 0,000 mm 0,0 UV-I 28 W/m 1,9 C 0,6 C 14,5 km/h (3 Bft) 100,00 %
22.03.2016 06:52 4,5 C 83 % 1012,5 hPa 0,0 l/m 8,8 km/h (2 Bft) S-SW 209 0 min 0,000 mm 0,0 UV-I 28 W/m 1,9 C 2,4 C 14,5 km/h (3 Bft) 100,00 %
22.03.2016 06:53 4,6 C 83 % 1012,5 hPa 0,0 l/m 8,1 km/h (2 Bft) S 190 0 min 0,000 mm 0,0 UV-I 28 W/m 2,0 C 3,1 C 11,3 km/h (2 Bft) 96,55 %
22.03.2016 06:54 4,6 C 83 % 1012,6 hPa 0,0 l/m 8,6 km/h (2 Bft) S-SW 212 0 min 0,000 mm 0,0 UV-I 29 W/m 2,0 C 2,7 C 12,9 km/h (3 Bft) 96,15 %
22.03.2016 06:55 4,6 C 83 % 1012,5 hPa 0,0 l/m 10,5 km/h (2 Bft) SW 225 0 min 0,000 mm 0,0 UV-I 30 W/m 2,0 C 1,3 C 12,9 km/h (3 Bft) 100,00 %
22.03.2016 06:56 4,6 C 83 % 1012,5 hPa 0,0 l/m 12,3 km/h (3 Bft) S-SW 197 0 min 0,000 mm 0,0 UV-I 31 W/m 2,0 C 0,1 C 17,7 km/h (3 Bft) 96,67 %
22.03.2016 06:57 4,6 C 83 % 1012,5 hPa 0,0 l/m 9,9 km/h (2 Bft) SW 227 0 min 0,000 mm 0,0 UV-I 33 W/m 2,0 C 1,7 C 12,9 km/h (3 Bft) 100,00 %
22.03.2016 06:58 4,6 C 83 % 1012,6 hPa 0,0 l/m 8,3 km/h (2 Bft) W-SW 238 0 min 0,000 mm 0,0 UV-I 33 W/m 2,0 C 2,9 C 14,5 km/h (3 Bft) 91,67 %
22.03.2016 06:59 4,6 C 83 % 1012,5 hPa 0,0 l/m 10,2 km/h (2 Bft) SW 218 0 min 0,000 mm 0,0 UV-I 35 W/m 2,0 C 1,5 C 16,1 km/h (3 Bft) 100,00 %
22.03.2016 07:00 4,6 C 83 % 1012,5 hPa 0,0 l/m 8,2 km/h (2 Bft) W-SW 246 0 min 0,025 mm 0,0 UV-I 36 W/m 2,0 C 3,0 C 14,5 km/h (3 Bft) 96,30 %
22.03.2016 07:04 4,7 C 83 % 1012,5 hPa 0,0 l/m 9,5 km/h (2 Bft) SW 231 0 min 0,000 mm 0,0 UV-I 40 W/m 2,1 C 2,1 C 11,3 km/h (2 Bft) 97,75 %
22.03.2016 07:05 4,7 C 83 % 1012,5 hPa 0,0 l/m 7,4 km/h (2 Bft) SW 233 0 min 0,000 mm 0,0 UV-I 42 W/m 2,1 C 3,8 C 11,3 km/h (2 Bft) 95,83 %
22.03.2016 07:06 4,7 C 83 % 1012,5 hPa 0,0 l/m 6,2 km/h (2 Bft) SW 219 0 min 0,000 mm 0,0 UV-I 42 W/m 2,1 C 4,7 C 9,7 km/h (2 Bft) 100,00 %
22.03.2016 07:07 4,7 C 83 % 1012,5 hPa 0,0 l/m 6,7 km/h (2 Bft) SW 228 0 min 0,000 mm 0,0 UV-I 42 W/m 2,1 C 4,4 C 11,3 km/h (2 Bft) 100,00 %
22.03.2016 07:08 4,7 C 83 % 1012,5 hPa 0,0 l/m 11,4 km/h (2 Bft) SW 221 0 min 0,000 mm 0,0 UV-I 42 W/m 2,1 C 0,8 C 16,1 km/h (3 Bft) 96,15 %
22.03.2016 07:09 4,7 C 83 % 1012,5 hPa 0,0 l/m 10,7 km/h (2 Bft) SW 224 0 min 0,000 mm 0,0 UV-I 42 W/m 2,1 C 1,3 C 14,5 km/h (3 Bft) 100,00 %
22.03.2016 07:10 4,7 C 83 % 1012,5 hPa 0,0 l/m 8,9 km/h (2 Bft) SW 234 0 min 0,000 mm 0,0 UV-I 42 W/m 2,1 C 2,6 C 12,9 km/h (3 Bft) 100,00 %
22.03.2016 07:11 4,7 C 84 % 1012,5 hPa 0,0 l/m 8,8 km/h (2 Bft) W-SW 258 0 min 0,000 mm 0,0 UV-I 42 W/m 2,2 C 2,6 C 11,3 km/h (2 Bft) 100,00 %
22.03.2016 07:12 4,7 C 83 % 1012,5 hPa 0,0 l/m 8,3 km/h (2 Bft) SW 215 0 min 0,000 mm 0,0 UV-I 42 W/m 2,1 C 3,0 C 12,9 km/h (3 Bft) 100,00 %
22.03.2016 07:13 4,7 C 83 % 1012,5 hPa 0,0 l/m 8,0 km/h (2 Bft) W-SW 238 0 min 0,000 mm 0,0 UV-I 41 W/m 2,1 C 3,3 C 11,3 km/h (2 Bft) 100,00 %
22.03.2016 07:14 4,7 C 83 % 1012,5 hPa 0,0 l/m 8,2 km/h (2 Bft) W-SW 248 0 min 0,000 mm 0,0 UV-I 40 W/m 2,1 C 3,1 C 9,7 km/h (2 Bft) 100,00 %
22.03.2016 07:15 4,7 C 83 % 1012,5 hPa 0,0 l/m 10,8 km/h (2 Bft) SW 225 0 min 0,000 mm 0,0 UV-I 40 W/m 2,1 C 1,2 C 14,5 km/h (3 Bft) 96,15 %
22.03.2016 07:16 4,7 C 83 % 1012,5 hPa 0,0 l/m 10,8 km/h (2 Bft) SW 236 0 min 0,000 mm 0,0 UV-I 40 W/m 2,1 C 1,2 C 14,5 km/h (3 Bft) 96,30 %
22.03.2016 07:17 4,7 C 83 % 1012,5 hPa 0,0 l/m 9,6 km/h (2 Bft) S-SW 205 0 min 0,000 mm 0,0 UV-I 40 W/m 2,1 C 2,0 C 12,9 km/h (3 Bft) 95,65 %
22.03.2016 07:18 4,7 C 83 % 1012,5 hPa 0,0 l/m 8,0 km/h (2 Bft) W-SW 244 0 min 0,000 mm 0,0 UV-I 39 W/m 2,1 C 3,3 C 11,3 km/h (2 Bft) 100,00 %
22.03.2016 07:19 4,7 C 84 % 1012,5 hPa 0,0 l/m 9,1 km/h (2 Bft) SW 230 0 min 0,000 mm 0,0 UV-I 39 W/m 2,2 C 2,4 C 17,7 km/h (3 Bft) 100,00 %
22.03.2016 07:20 4,7 C 84 % 1012,5 hPa 0,0 l/m 11,8 km/h (2 Bft) SW 234 0 min 0,000 mm 0,0 UV-I 39 W/m 2,2 C 0,5 C 14,5 km/h (3 Bft) 100,00 %
22.03.2016 07:21 4,7 C 83 % 1012,5 hPa 0,0 l/m 10,5 km/h (2 Bft) W-SW 242 0 min 0,000 mm 0,0 UV-I 40 W/m 2,1 C 1,4 C 14,5 km/h (3 Bft) 100,00 %
22.03.2016 07:22 4,7 C 84 % 1012,5 hPa 0,0 l/m 8,2 km/h (2 Bft) SW 236 0 min 0,000 mm 0,0 UV-I 40 W/m 2,2 C 3,1 C 12,9 km/h (3 Bft) 100,00 %
22.03.2016 07:23 4,7 C 83 % 1012,6 hPa 0,0 l/m 10,7 km/h (2 Bft) SW 232 0 min 0,000 mm 0,0 UV-I 43 W/m 2,1 C 1,3 C 12,9 km/h (3 Bft) 100,00 %
22.03.2016 07:24 4,7 C 84 % 1012,5 hPa 0,0 l/m 8,0 km/h (2 Bft) SW 223 0 min 0,000 mm 0,0 UV-I 46 W/m 2,2 C 3,3 C 11,3 km/h (2 Bft) 100,00 %
22.03.2016 07:25 4,7 C 84 % 1012,5 hPa 0,0 l/m 9,6 km/h (2 Bft) SW 227 0 min 0,000 mm 0,0 UV-I 48 W/m 2,2 C 2,0 C 12,9 km/h (3 Bft) 100,00 %
22.03.2016 07:26 4,7 C 84 % 1012,5 hPa 0,0 l/m 9,7 km/h (2 Bft) SW 229 0 min 0,000 mm 0,0 UV-I 51 W/m 2,2 C 2,0 C 14,5 km/h (3 Bft) 100,00 %
22.03.2016 07:27 4,7 C 84 % 1012,5 hPa 0,0 l/m 10,8 km/h (2 Bft) SW 219 0 min 0,000 mm 0,0 UV-I 54 W/m 2,2 C 1,2 C 14,5 km/h (3 Bft) 96,15 %
22.03.2016 07:28 4,7 C 84 % 1012,5 hPa 0,0 l/m 9,9 km/h (2 Bft) SW 228 0 min 0,000 mm 0,0 UV-I 58 W/m 2,2 C 1,8 C 14,5 km/h (3 Bft) 100,00 %
22.03.2016 07:29 4,7 C 83 % 1012,5 hPa 0,0 l/m 8,6 km/h (2 Bft) W-SW 238 0 min 0,000 mm 0,0 UV-I 61 W/m 2,1 C 2,8 C 12,9 km/h (3 Bft) 100,00 %
22.03.2016 07:30 4,7 C 83 % 1012,5 hPa 0,0 l/m 9,9 km/h (2 Bft) SW 229 0 min 0,000 mm 0,0 UV-I 65 W/m 2,1 C 1,8 C 16,1 km/h (3 Bft) 100,00 %
22.03.2016 07:31 4,8 C 83 % 1012,5 hPa 0,0 l/m 9,7 km/h (2 Bft) W-SW 239 0 min 0,000 mm 0,0 UV-I 68 W/m 2,2 C 2,1 C 12,9 km/h (3 Bft) 100,00 %
22.03.2016 07:32 4,8 C 83 % 1012,5 hPa 0,0 l/m 7,7 km/h (2 Bft) W-SW 246 0 min 0,000 mm 0,0 UV-I 70 W/m 2,2 C 3,6 C 9,7 km/h (2 Bft) 100,00 %
22.03.2016 07:33 4,8 C 83 % 1012,4 hPa 0,0 l/m 10,9 km/h (2 Bft) SW 231 0 min 0,000 mm 0,0 UV-I 72 W/m 2,2 C 1,2 C 14,5 km/h (3 Bft) 95,83 %
22.03.2016 07:34 4,8 C 83 % 1012,4 hPa 0,0 l/m 9,3 km/h (2 Bft) S-SW 211 0 min 0,000 mm 0,0 UV-I 74 W/m 2,2 C 2,4 C 14,5 km/h (3 Bft) 100,00 %
22.03.2016 07:35 4,8 C 83 % 1012,4 hPa 0,0 l/m 9,0 km/h (2 Bft) SW 228 0 min 0,000 mm 0,0 UV-I 76 W/m 2,2 C 2,6 C 11,3 km/h (2 Bft) 100,00 %
22.03.2016 07:36 4,8 C 83 % 1012,4 hPa 0,0 l/m 10,0 km/h (2 Bft) S 184 0 min 0,000 mm 0,0 UV-I 78 W/m 2,2 C 1,9 C 14,5 km/h (3 Bft) 100,00 %
22.03.2016 07:37 4,8 C 83 % 1012,4 hPa 0,0 l/m 9,3 km/h (2 Bft) W-SW 237 0 min 0,000 mm 0,0 UV-I 80 W/m 2,2 C 2,4 C 11,3 km/h (2 Bft) 100,00 %
22.03.2016 07:38 4,8 C 83 % 1012,5 hPa 0,0 l/m 8,9 km/h (2 Bft) W-SW 250 0 min 0,000 mm 0,0 UV-I 82 W/m 2,2 C 2,7 C 16,1 km/h (3 Bft) 100,00 %
22.03.2016 07:39 4,9 C 83 % 1012,4 hPa 0,0 l/m 12,2 km/h (2 Bft) W-SW 240 0 min 0,000 mm 0,0 UV-I 84 W/m 2,3 C 0,5 C 19,3 km/h (3 Bft) 100,00 %
22.03.2016 07:40 4,9 C 82 % 1012,4 hPa 0,0 l/m 13,6 km/h (3 Bft) S-SW 212 0 min 0,000 mm 0,0 UV-I 84 W/m 2,1 C -0,3 C 16,1 km/h (3 Bft) 100,00 %
22.03.2016 07:41 4,9 C 82 % 1012,4 hPa 0,0 l/m 11,5 km/h (2 Bft) W-SW 239 0 min 0,000 mm 0,0 UV-I 86 W/m 2,1 C 1,0 C 16,1 km/h (3 Bft) 97,56 %
22.03.2016 07:42 4,9 C 82 % 1012,4 hPa 0,0 l/m 12,0 km/h (2 Bft) SW 217 0 min 0,000 mm 0,0 UV-I 87 W/m 2,1 C 0,6 C 16,1 km/h (3 Bft) 100,00 %
22.03.2016 07:43 4,9 C 82 % 1012,4 hPa 0,0 l/m 11,3 km/h (2 Bft) S-SW 209 0 min 0,000 mm 0,0 UV-I 90 W/m 2,1 C 1,1 C 17,7 km/h (3 Bft) 100,00 %
22.03.2016 07:44 5,0 C 82 % 1012,4 hPa 0,0 l/m 8,9 km/h (2 Bft) W-SW 246 0 min 0,000 mm 0,0 UV-I 93 W/m 2,2 C 2,9 C 12,9 km/h (3 Bft) 100,00 %
22.03.2016 07:45 5,0 C 82 % 1012,4 hPa 0,0 l/m 9,4 km/h (2 Bft) SW 223 0 min 0,000 mm 0,0 UV-I 97 W/m 2,2 C 2,5 C 12,9 km/h (3 Bft) 100,00 %
22.03.2016 07:46 5,0 C 82 % 1012,4 hPa 0,0 l/m 9,7 km/h (2 Bft) W 279 0 min 0,000 mm 0,0 UV-I 99 W/m 2,2 C 2,3 C 16,1 km/h (3 Bft) 100,00 %
22.03.2016 07:47 5,1 C 82 % 1012,4 hPa 0,0 l/m 13,3 km/h (3 Bft) W-SW 240 0 min 0,000 mm 0,0 UV-I 103 W/m 2,3 C 0,1 C 16,1 km/h (3 Bft) 100,00 %
22.03.2016 07:48 5,1 C 82 % 1012,4 hPa 0,0 l/m 11,1 km/h (2 Bft) S-SW 212 0 min 0,000 mm 0,0 UV-I 107 W/m 2,3 C 1,4 C 14,5 km/h (3 Bft) 100,00 %
22.03.2016 07:49 5,1 C 82 % 1012,4 hPa 0,0 l/m 8,2 km/h (2 Bft) SW 218 0 min 0,000 mm 0,0 UV-I 110 W/m 2,3 C 3,5 C 9,7 km/h (2 Bft) 100,00 %
22.03.2016 07:50 5,2 C 82 % 1012,4 hPa 0,0 l/m 10,0 km/h (2 Bft) W-SW 239 0 min 0,000 mm 0,0 UV-I 113 W/m 2,4 C 2,3 C 16,1 km/h (3 Bft) 100,00 %
22.03.2016 07:51 5,2 C 81 % 1012,4 hPa 0,0 l/m 10,7 km/h (2 Bft) W-SW 254 0 min 0,000 mm 0,0 UV-I 118 W/m 2,2 C 1,8 C 16,1 km/h (3 Bft) 100,00 %
22.03.2016 07:52 5,2 C 81 % 1012,4 hPa 0,0 l/m 11,0 km/h (2 Bft) W-SW 242 0 min 0,000 mm 0,0 UV-I 120 W/m 2,2 C 1,6 C 14,5 km/h (3 Bft) 100,00 %
22.03.2016 07:53 5,2 C 81 % 1012,4 hPa 0,0 l/m 7,8 km/h (2 Bft) W-SW 258 0 min 0,000 mm 0,0 UV-I 122 W/m 2,2 C 4,0 C 9,7 km/h (2 Bft) 100,00 %
22.03.2016 07:54 5,3 C 82 % 1012,4 hPa 0,0 l/m 11,3 km/h (2 Bft) W-SW 251 0 min 0,000 mm 0,0 UV-I 123 W/m 2,5 C 1,5 C 14,5 km/h (3 Bft) 100,00 %
22.03.2016 07:55 5,3 C 81 % 1012,4 hPa 0,0 l/m 10,2 km/h (2 Bft) W-SW 248 0 min 0,000 mm 0,0 UV-I 123 W/m 2,3 C 2,3 C 16,1 km/h (3 Bft) 100,00 %
22.03.2016 07:56 5,3 C 81 % 1012,4 hPa 0,0 l/m 9,7 km/h (2 Bft) W 259 0 min 0,000 mm 0,0 UV-I 123 W/m 2,3 C 2,6 C 14,5 km/h (3 Bft) 100,00 %
22.03.2016 07:57 5,3 C 81 % 1012,4 hPa 0,0 l/m 10,8 km/h (2 Bft) S 186 0 min 0,000 mm 0,0 UV-I 123 W/m 2,3 C 1,9 C 14,5 km/h (3 Bft) 100,00 %
22.03.2016 07:58 5,3 C 81 % 1012,5 hPa 0,0 l/m 7,5 km/h (2 Bft) W-SW 247 0 min 0,000 mm 0,0 UV-I 123 W/m 2,3 C 4,3 C 12,9 km/h (3 Bft) 100,00 %
22.03.2016 07:59 5,3 C 81 % 1012,4 hPa 0,0 l/m 7,5 km/h (2 Bft) W 259 0 min 0,000 mm 0,0 UV-I 123 W/m 2,3 C 4,3 C 11,3 km/h (2 Bft) 96,15 %
22.03.2016 08:00 5,3 C 80 % 1012,4 hPa 0,0 l/m 10,8 km/h (2 Bft) W-SW 244 0 min 0,000 mm 0,0 UV-I 123 W/m 2,1 C 1,9 C 14,5 km/h (3 Bft) 100,00 %
22.03.2016 08:01 5,4 C 81 % 1012,5 hPa 0,0 l/m 10,1 km/h (2 Bft) W 262 0 min 0,051 mm 0,0 UV-I 123 W/m 2,4 C 2,4 C 14,5 km/h (3 Bft) 100,00 %
22.03.2016 08:02 5,4 C 80 % 1012,5 hPa 0,0 l/m 10,7 km/h (2 Bft) SW 219 0 min 0,000 mm 0,0 UV-I 123 W/m 2,2 C 2,0 C 12,9 km/h (3 Bft) 100,00 %
22.03.2016 08:03 5,4 C 80 % 1012,4 hPa 0,0 l/m 11,9 km/h (2 Bft) SW 231 0 min 0,000 mm 0,0 UV-I 123 W/m 2,2 C 1,3 C 20,9 km/h (4 Bft) 100,00 %
22.03.2016 08:04 5,4 C 80 % 1012,5 hPa 0,0 l/m 11,2 km/h (2 Bft) SW 228 0 min 0,000 mm 0,0 UV-I 125 W/m 2,2 C 1,7 C 16,1 km/h (3 Bft) 100,00 %
22.03.2016 08:05 5,4 C 80 % 1012,5 hPa 0,0 l/m 8,9 km/h (2 Bft) W 263 0 min 0,000 mm 0,0 UV-I 126 W/m 2,2 C 3,3 C 14,5 km/h (3 Bft) 100,00 %
22.03.2016 08:06 5,4 C 80 % 1012,4 hPa 0,0 l/m 11,4 km/h (2 Bft) W 265 0 min 0,000 mm 0,0 UV-I 127 W/m 2,2 C 1,6 C 14,5 km/h (3 Bft) 96,67 %
22.03.2016 08:07 5,5 C 80 % 1012,5 hPa 0,0 l/m 10,1 km/h (2 Bft) SW 234 0 min 0,000 mm 0,0 UV-I 128 W/m 2,3 C 2,6 C 12,9 km/h (3 Bft) 100,00 %
22.03.2016 08:08 5,5 C 79 % 1012,4 hPa 0,0 l/m 10,6 km/h (2 Bft) W-SW 250 0 min 0,000 mm 0,0 UV-I 130 W/m 2,2 C 2,2 C 14,5 km/h (3 Bft) 100,00 %
22.03.2016 08:09 5,6 C 79 % 1012,4 hPa 0,0 l/m 11,9 km/h (2 Bft) W-SW 257 0 min 0,000 mm 0,0 UV-I 130 W/m 2,3 C 1,5 C 16,1 km/h (3 Bft) 100,00 %
22.03.2016 08:10 5,5 C 79 % 1012,5 hPa 0,0 l/m 10,4 km/h (2 Bft) W-SW 244 0 min 0,000 mm 0,0 UV-I 131 W/m 2,2 C 2,4 C 14,5 km/h (3 Bft) 100,00 %
22.03.2016 08:11 5,6 C 79 % 1012,5 hPa 0,0 l/m 9,3 km/h (2 Bft) W-SW 249 0 min 0,000 mm 0,0 UV-I 132 W/m 2,3 C 3,2 C 17,7 km/h (3 Bft) 100,00 %
22.03.2016 08:12 5,6 C 79 % 1012,5 hPa 0,0 l/m 6,9 km/h (2 Bft) W-SW 244 0 min 0,000 mm 0,0 UV-I 132 W/m 2,3 C 5,2 C 12,9 km/h (3 Bft) 100,00 %
22.03.2016 08:13 5,6 C 79 % 1012,5 hPa 0,0 l/m 6,8 km/h (2 Bft) W-SW 254 0 min 0,000 mm 0,0 UV-I 132 W/m 2,3 C 5,3 C 14,5 km/h (3 Bft) 96,15 %
22.03.2016 08:14 5,6 C 79 % 1012,5 hPa 0,0 l/m 11,0 km/h (2 Bft) W-SW 250 0 min 0,000 mm 0,0 UV-I 132 W/m 2,3 C 2,1 C 14,5 km/h (3 Bft) 98,61 %
22.03.2016 08:15 5,6 C 79 % 1012,5 hPa 0,0 l/m 6,1 km/h (2 Bft) W 267 0 min 0,000 mm 0,0 UV-I 132 W/m 2,3 C 5,6 C 9,7 km/h (2 Bft) 100,00 %
22.03.2016 08:16 5,7 C 79 % 1012,5 hPa 0,0 l/m 6,5 km/h (2 Bft) W 260 0 min 0,000 mm 0,0 UV-I 132 W/m 2,3 C 5,6 C 9,7 km/h (2 Bft) 100,00 %
22.03.2016 08:17 5,7 C 79 % 1012,5 hPa 0,0 l/m 7,7 km/h (2 Bft) W-SW 239 0 min 0,000 mm 0,0 UV-I 133 W/m 2,3 C 4,6 C 11,3 km/h (2 Bft) 100,00 %
22.03.2016 08:18 5,7 C 78 % 1012,5 hPa 0,0 l/m 10,3 km/h (2 Bft) W 261 0 min 0,000 mm 0,0 UV-I 134 W/m 2,2 C 2,6 C 12,9 km/h (3 Bft) 100,00 %
22.03.2016 08:19 5,7 C 78 % 1012,5 hPa 0,0 l/m 9,8 km/h (2 Bft) W-SW 242 0 min 0,000 mm 0,0 UV-I 135 W/m 2,2 C 3,0 C 12,9 km/h (3 Bft) 100,00 %
22.03.2016 08:20 5,8 C 78 % 1012,5 hPa 0,0 l/m 10,1 km/h (2 Bft) W-SW 248 0 min 0,000 mm 0,0 UV-I 137 W/m 2,3 C 2,9 C 14,5 km/h (3 Bft) 90,91 %
22.03.2016 08:21 5,8 C 78 % 1012,5 hPa 0,0 l/m 7,4 km/h (2 Bft) W-SW 255 0 min 0,000 mm 0,0 UV-I 139 W/m 2,3 C 4,9 C 11,3 km/h (2 Bft) 100,00 %
22.03.2016 08:22 5,8 C 77 % 1012,5 hPa 0,0 l/m 6,0 km/h (2 Bft) W-SW 250 0 min 0,000 mm 0,0 UV-I 140 W/m 2,1 C 5,8 C 8,0 km/h (2 Bft) 100,00 %
22.03.2016 08:23 5,8 C 78 % 1012,5 hPa 0,0 l/m 5,6 km/h (1 Bft) W-SW 256 0 min 0,000 mm 0,0 UV-I 141 W/m 2,3 C 5,8 C 8,0 km/h (2 Bft) 100,00 %
22.03.2016 08:24 5,8 C 78 % 1012,5 hPa 0,0 l/m 7,2 km/h (2 Bft) W-SW 252 0 min 0,000 mm 0,0 UV-I 142 W/m 2,3 C 5,1 C 11,3 km/h (2 Bft) 96,55 %
22.03.2016 08:25 5,8 C 78 % 1012,6 hPa 0,0 l/m 9,7 km/h (2 Bft) W 266 0 min 0,000 mm 0,0 UV-I 142 W/m 2,3 C 3,2 C 12,9 km/h (3 Bft) 100,00 %
22.03.2016 08:26 5,8 C 78 % 1012,5 hPa 0,0 l/m 5,8 km/h (2 Bft) W-SW 242 0 min 0,000 mm 0,0 UV-I 141 W/m 2,3 C 5,8 C 11,3 km/h (2 Bft) 92,86 %
22.03.2016 08:27 5,9 C 78 % 1012,5 hPa 0,0 l/m 7,9 km/h (2 Bft) W 262 0 min 0,000 mm 0,0 UV-I 140 W/m 2,4 C 4,6 C 11,3 km/h (2 Bft) 100,00 %
22.03.2016 08:28 5,9 C 77 % 1012,6 hPa 0,0 l/m 8,9 km/h (2 Bft) W-SW 244 0 min 0,000 mm 0,0 UV-I 138 W/m 2,2 C 3,9 C 14,5 km/h (3 Bft) 100,00 %
22.03.2016 08:29 5,9 C 77 % 1012,5 hPa 0,0 l/m 8,6 km/h (2 Bft) W-SW 241 0 min 0,000 mm 0,0 UV-I 136 W/m 2,2 C 4,1 C 12,9 km/h (3 Bft) 100,00 %
22.03.2016 08:30 5,9 C 77 % 1012,5 hPa 0,0 l/m 8,8 km/h (2 Bft) W-SW 240 0 min 0,000 mm 0,0 UV-I 134 W/m 2,2 C 3,9 C 12,9 km/h (3 Bft) 95,65 %
22.03.2016 08:31 5,9 C 77 % 1012,5 hPa 0,0 l/m 6,0 km/h (2 Bft) SW 225 0 min 0,000 mm 0,0 UV-I 134 W/m 2,2 C 5,9 C 11,3 km/h (2 Bft) 100,00 %
22.03.2016 08:32 5,9 C 77 % 1012,5 hPa 0,0 l/m 6,9 km/h (2 Bft) W-SW 258 0 min 0,000 mm 0,0 UV-I 135 W/m 2,2 C 5,5 C 12,9 km/h (3 Bft) 100,00 %
22.03.2016 08:33 5,9 C 77 % 1012,6 hPa 0,0 l/m 9,2 km/h (2 Bft) W-SW 240 0 min 0,000 mm 0,0 UV-I 143 W/m 2,2 C 3,6 C 14,5 km/h (3 Bft) 95,65 %
22.03.2016 08:34 6,0 C 77 % 1012,5 hPa 0,0 l/m 8,1 km/h (2 Bft) SW 234 0 min 0,000 mm 0,0 UV-I 152 W/m 2,3 C 4,6 C 14,5 km/h (3 Bft) 100,00 %
22.03.2016 08:35 6,0 C 77 % 1012,5 hPa 0,0 l/m 9,4 km/h (2 Bft) W-SW 255 0 min 0,000 mm 0,0 UV-I 159 W/m 2,3 C 3,6 C 14,5 km/h (3 Bft) 91,30 %
22.03.2016 08:36 6,0 C 76 % 1012,5 hPa 0,0 l/m 10,6 km/h (2 Bft) W-SW 238 0 min 0,000 mm 0,0 UV-I 163 W/m 2,1 C 2,8 C 19,3 km/h (3 Bft) 95,83 %
22.03.2016 08:37 6,0 C 77 % 1012,5 hPa 0,0 l/m 7,4 km/h (2 Bft) W-SW 238 0 min 0,000 mm 0,3 UV-I 165 W/m 2,3 C 5,1 C 8,0 km/h (2 Bft) 100,00 %
22.03.2016 08:38 6,0 C 77 % 1012,5 hPa 0,0 l/m 7,6 km/h (2 Bft) W-SW 243 0 min 0,000 mm 0,5 UV-I 172 W/m 2,3 C 5,0 C 12,9 km/h (3 Bft) 96,67 %
22.03.2016 08:39 6,1 C 77 % 1012,5 hPa 0,0 l/m 7,8 km/h (2 Bft) S-SW 211 0 min 0,000 mm 0,5 UV-I 178 W/m 2,4 C 4,9 C 12,9 km/h (3 Bft) 100,00 %
22.03.2016 08:40 6,1 C 76 % 1012,5 hPa 0,0 l/m 11,5 km/h (2 Bft) W 262 0 min 0,000 mm 0,5 UV-I 187 W/m 2,2 C 2,3 C 17,7 km/h (3 Bft) 96,30 %
22.03.2016 08:41 6,1 C 77 % 1012,5 hPa 0,0 l/m 10,1 km/h (2 Bft) W-SW 240 0 min 0,000 mm 0,5 UV-I 193 W/m 2,4 C 3,2 C 14,5 km/h (3 Bft) 100,00 %
22.03.2016 08:42 6,1 C 76 % 1012,5 hPa 0,0 l/m 9,5 km/h (2 Bft) W-SW 248 0 min 0,000 mm 0,5 UV-I 198 W/m 2,2 C 3,6 C 11,3 km/h (2 Bft) 96,30 %
22.03.2016 08:43 6,1 C 76 % 1012,5 hPa 0,0 l/m 11,7 km/h (2 Bft) W-SW 239 0 min 0,000 mm 0,6 UV-I 202 W/m 2,2 C 2,2 C 17,7 km/h (3 Bft) 100,00 %
22.03.2016 08:44 6,2 C 76 % 1012,5 hPa 0,0 l/m 15,9 km/h (3 Bft) SW 225 0 min 0,000 mm 0,6 UV-I 204 W/m 2,3 C 0,1 C 20,9 km/h (4 Bft) 96,97 %
22.03.2016 08:45 6,2 C 76 % 1012,5 hPa 0,0 l/m 11,9 km/h (2 Bft) W-SW 258 0 min 0,000 mm 0,6 UV-I 206 W/m 2,3 C 2,2 C 17,7 km/h (3 Bft) 100,00 %
22.03.2016 08:46 6,2 C 76 % 1012,4 hPa 0,0 l/m 16,5 km/h (3 Bft) W 260 0 min 0,000 mm 0,6 UV-I 209 W/m 2,3 C -0,2 C 22,5 km/h (4 Bft) 97,14 %
22.03.2016 08:47 6,2 C 75 % 1012,4 hPa 0,0 l/m 12,4 km/h (3 Bft) S-SW 194 0 min 0,000 mm 0,6 UV-I 212 W/m 2,1 C 1,9 C 17,7 km/h (3 Bft) 91,67 %
22.03.2016 08:48 6,2 C 75 % 1012,4 hPa 0,0 l/m 12,2 km/h (2 Bft) W-SW 250 0 min 0,000 mm 0,6 UV-I 213 W/m 2,1 C 2,0 C 14,5 km/h (3 Bft) 100,00 %
22.03.2016 08:49 6,2 C 76 % 1012,5 hPa 0,0 l/m 13,4 km/h (3 Bft) SW 221 0 min 0,000 mm 0,6 UV-I 213 W/m 2,3 C 1,4 C 19,3 km/h (3 Bft) 91,67 %
22.03.2016 08:50 6,2 C 76 % 1012,5 hPa 0,0 l/m 10,9 km/h (2 Bft) W 263 0 min 0,000 mm 0,6 UV-I 214 W/m 2,3 C 2,8 C 14,5 km/h (3 Bft) 100,00 %
22.03.2016 08:51 6,2 C 76 % 1012,4 hPa 0,0 l/m 13,3 km/h (3 Bft) SW 223 0 min 0,000 mm 0,6 UV-I 216 W/m 2,3 C 1,4 C 16,1 km/h (3 Bft) 91,67 %
22.03.2016 08:52 6,2 C 77 % 1012,4 hPa 0,0 l/m 9,2 km/h (2 Bft) W-SW 249 0 min 0,000 mm 0,6 UV-I 217 W/m 2,5 C 4,0 C 14,5 km/h (3 Bft) 100,00 %
22.03.2016 08:53 6,3 C 77 % 1012,4 hPa 0,0 l/m 10,1 km/h (2 Bft) W-SW 249 0 min 0,000 mm 0,6 UV-I 218 W/m 2,6 C 3,4 C 14,5 km/h (3 Bft) 96,30 %
22.03.2016 08:54 6,3 C 76 % 1012,4 hPa 0,0 l/m 11,7 km/h (2 Bft) W-SW 248 0 min 0,000 mm 0,6 UV-I 218 W/m 2,4 C 2,4 C 16,1 km/h (3 Bft) 96,15 %
22.03.2016 08:55 6,4 C 76 % 1012,4 hPa 0,0 l/m 9,5 km/h (2 Bft) W-SW 253 0 min 0,000 mm 0,6 UV-I 218 W/m 2,5 C 4,0 C 16,1 km/h (3 Bft) 100,00 %
22.03.2016 08:56 6,4 C 76 % 1012,4 hPa 0,0 l/m 11,1 km/h (2 Bft) W-SW 246 0 min 0,000 mm 0,6 UV-I 218 W/m 2,5 C 2,9 C 16,1 km/h (3 Bft) 95,65 %
22.03.2016 08:57 6,4 C 77 % 1012,4 hPa 0,0 l/m 11,7 km/h (2 Bft) SW 234 0 min 0,000 mm 0,6 UV-I 220 W/m 2,7 C 2,5 C 17,7 km/h (3 Bft) 100,00 %
22.03.2016 08:58 6,4 C 76 % 1012,4 hPa 0,0 l/m 11,7 km/h (2 Bft) W-SW 244 0 min 0,000 mm 0,6 UV-I 221 W/m 2,5 C 2,5 C 16,1 km/h (3 Bft) 93,10 %
22.03.2016 08:59 6,4 C 75 % 1012,4 hPa 0,0 l/m 9,1 km/h (2 Bft) SW 223 0 min 0,000 mm 0,7 UV-I 222 W/m 2,3 C 4,2 C 12,9 km/h (3 Bft) 96,30 %
22.03.2016 09:00 6,4 C 75 % 1012,4 hPa 0,0 l/m 14,4 km/h (3 Bft) W 259 0 min 0,076 mm 0,7 UV-I 227 W/m 2,3 C 1,1 C 17,7 km/h (3 Bft) 100,00 %
22.03.2016 09:01 6,5 C 75 % 1012,4 hPa 0,0 l/m 14,6 km/h (3 Bft) SW 223 0 min 0,000 mm 0,7 UV-I 229 W/m 2,4 C 1,1 C 19,3 km/h (3 Bft) 100,00 %
22.03.2016 09:02 6,5 C 76 % 1012,4 hPa 0,0 l/m 13,7 km/h (3 Bft) W-SW 254 0 min 0,000 mm 0,7 UV-I 230 W/m 2,6 C 1,5 C 17,7 km/h (3 Bft) 95,65 %
22.03.2016 09:03 6,5 C 75 % 1012,4 hPa 0,0 l/m 11,7 km/h (2 Bft) SW 223 0 min 0,000 mm 0,7 UV-I 233 W/m 2,4 C 2,7 C 16,1 km/h (3 Bft) 100,00 %
22.03.2016 09:04 6,5 C 75 % 1012,4 hPa 0,0 l/m 13,0 km/h (3 Bft) W-SW 247 0 min 0,000 mm 0,7 UV-I 234 W/m 2,4 C 1,9 C 16,1 km/h (3 Bft) 95,65 %
22.03.2016 09:05 6,5 C 75 % 1012,4 hPa 0,0 l/m 9,8 km/h (2 Bft) W-SW 247 0 min 0,000 mm 0,7 UV-I 236 W/m 2,4 C 3,9 C 19,3 km/h (3 Bft) 95,83 %
22.03.2016 09:06 6,6 C 75 % 1012,4 hPa 0,0 l/m 13,8 km/h (3 Bft) W-SW 248 0 min 0,000 mm 0,7 UV-I 240 W/m 2,5 C 1,6 C 17,7 km/h (3 Bft) 100,00 %
22.03.2016 09:07 6,6 C 74 % 1012,4 hPa 0,0 l/m 11,1 km/h (2 Bft) SW 229 0 min 0,000 mm 0,7 UV-I 243 W/m 2,3 C 3,1 C 16,1 km/h (3 Bft) 100,00 %
22.03.2016 09:08 6,6 C 74 % 1012,4 hPa 0,0 l/m 11,8 km/h (2 Bft) W-SW 250 0 min 0,000 mm 0,7 UV-I 244 W/m 2,3 C 2,7 C 16,1 km/h (3 Bft) 100,00 %
22.03.2016 09:09 6,6 C 74 % 1012,4 hPa 0,0 l/m 14,0 km/h (3 Bft) W-SW 248 0 min 0,000 mm 0,8 UV-I 246 W/m 2,3 C 1,5 C 19,3 km/h (3 Bft) 100,00 %
22.03.2016 09:10 6,6 C 74 % 1012,4 hPa 0,0 l/m 15,2 km/h (3 Bft) W-SW 249 0 min 0,000 mm 0,8 UV-I 249 W/m 2,3 C 0,9 C 24,1 km/h (4 Bft) 100,00 %
22.03.2016 09:11 6,6 C 74 % 1012,4 hPa 0,0 l/m 15,3 km/h (3 Bft) W 278 0 min 0,000 mm 0,8 UV-I 251 W/m 2,3 C 0,9 C 20,9 km/h (4 Bft) 96,15 %
22.03.2016 09:12 6,6 C 74 % 1012,4 hPa 0,0 l/m 16,3 km/h (3 Bft) SW 232 0 min 0,000 mm 0,8 UV-I 252 W/m 2,3 C 0,4 C 20,9 km/h (4 Bft) 100,00 %
22.03.2016 09:13 6,6 C 74 % 1012,4 hPa 0,0 l/m 11,4 km/h (2 Bft) W 264 0 min 0,000 mm 0,8 UV-I 255 W/m 2,3 C 3,0 C 17,7 km/h (3 Bft) 100,00 %
22.03.2016 09:14 6,7 C 74 % 1012,4 hPa 0,0 l/m 15,7 km/h (3 Bft) W 260 0 min 0,000 mm 0,8 UV-I 259 W/m 2,4 C 0,8 C 20,9 km/h (4 Bft) 96,67 %
22.03.2016 09:15 6,7 C 74 % 1012,4 hPa 0,0 l/m 16,0 km/h (3 Bft) W 269 0 min 0,000 mm 0,8 UV-I 262 W/m 2,4 C 0,7 C 20,9 km/h (4 Bft) 100,00 %
22.03.2016 09:16 6,7 C 74 % 1012,4 hPa 0,0 l/m 14,8 km/h (3 Bft) SW 215 0 min 0,000 mm 0,8 UV-I 265 W/m 2,4 C 1,2 C 17,7 km/h (3 Bft) 100,00 %
22.03.2016 09:17 6,7 C 74 % 1012,4 hPa 0,0 l/m 11,5 km/h (2 Bft) W-SW 245 0 min 0,000 mm 0,8 UV-I 268 W/m 2,4 C 3,0 C 17,7 km/h (3 Bft) 95,65 %
22.03.2016 09:18 6,8 C 74 % 1012,3 hPa 0,0 l/m 14,8 km/h (3 Bft) W 261 0 min 0,000 mm 0,9 UV-I 273 W/m 2,5 C 1,4 C 19,3 km/h (3 Bft) 100,00 %
22.03.2016 09:19 6,8 C 74 % 1012,3 hPa 0,0 l/m 11,8 km/h (2 Bft) NW 309 1 min 0,000 mm 0,9 UV-I 280 W/m 2,5 C 2,9 C 16,1 km/h (3 Bft) 96,15 %
22.03.2016 09:20 6,9 C 74 % 1012,3 hPa 0,0 l/m 10,0 km/h (2 Bft) W 273 1 min 0,000 mm 0,9 UV-I 288 W/m 2,6 C 4,2 C 12,9 km/h (3 Bft) 100,00 %
22.03.2016 09:21 6,9 C 74 % 1012,3 hPa 0,0 l/m 8,0 km/h (2 Bft) W-SW 242 1 min 0,000 mm 0,9 UV-I 294 W/m 2,6 C 5,6 C 11,3 km/h (2 Bft) 100,00 %
22.03.2016 09:22 7,0 C 72 % 1012,3 hPa 0,0 l/m 6,5 km/h (2 Bft) N-NW 339 1 min 0,000 mm 1,0 UV-I 300 W/m 2,3 C 6,9 C 9,7 km/h (2 Bft) 100,00 %
22.03.2016 09:23 7,0 C 73 % 1012,3 hPa 0,0 l/m 6,5 km/h (2 Bft) W 266 1 min 0,000 mm 1,0 UV-I 302 W/m 2,5 C 6,9 C 12,9 km/h (3 Bft) 100,00 %
22.03.2016 09:24 7,0 C 72 % 1012,2 hPa 0,0 l/m 12,8 km/h (3 Bft) W-SW 249 1 min 0,000 mm 1,0 UV-I 305 W/m 2,3 C 2,6 C 16,1 km/h (3 Bft) 100,00 %
22.03.2016 09:25 7,0 C 72 % 1012,2 hPa 0,0 l/m 12,0 km/h (2 Bft) W-SW 252 1 min 0,000 mm 1,0 UV-I 302 W/m 2,3 C 3,1 C 16,1 km/h (3 Bft) 100,00 %
22.03.2016 09:26 7,0 C 73 % 1012,2 hPa 0,0 l/m 10,5 km/h (2 Bft) W 276 1 min 0,000 mm 1,0 UV-I 300 W/m 2,5 C 4,0 C 14,5 km/h (3 Bft) 100,00 %
22.03.2016 09:27 7,1 C 73 % 1012,2 hPa 0,0 l/m 11,6 km/h (2 Bft) W-SW 257 1 min 0,000 mm 1,0 UV-I 295 W/m 2,6 C 3,4 C 17,7 km/h (3 Bft) 100,00 %
22.03.2016 09:28 7,1 C 72 % 1012,3 hPa 0,0 l/m 12,2 km/h (2 Bft) SW 232 0 min 0,000 mm 1,0 UV-I 286 W/m 2,4 C 3,1 C 16,1 km/h (3 Bft) 100,00 %
22.03.2016 09:29 7,1 C 73 % 1012,2 hPa 0,0 l/m 8,6 km/h (2 Bft) W-SW 250 0 min 0,000 mm 1,0 UV-I 273 W/m 2,6 C 5,4 C 16,1 km/h (3 Bft) 100,00 %
22.03.2016 09:30 7,1 C 72 % 1012,2 hPa 0,0 l/m 6,6 km/h (2 Bft) W-SW 255 0 min 0,000 mm 1,0 UV-I 258 W/m 2,4 C 7,0 C 12,9 km/h (3 Bft) 100,00 %
22.03.2016 09:31 7,1 C 72 % 1012,2 hPa 0,0 l/m 6,8 km/h (2 Bft) W-SW 238 0 min 0,000 mm 0,9 UV-I 249 W/m 2,4 C 6,8 C 9,7 km/h (2 Bft) 100,00 %
22.03.2016 09:32 7,1 C 72 % 1012,3 hPa 0,0 l/m 7,3 km/h (2 Bft) W-SW 238 0 min 0,000 mm 0,9 UV-I 239 W/m 2,4 C 6,4 C 9,7 km/h (2 Bft) 100,00 %
22.03.2016 09:33 7,0 C 73 % 1012,3 hPa 0,0 l/m 9,4 km/h (2 Bft) W-SW 252 0 min 0,000 mm 0,9 UV-I 218 W/m 2,5 C 4,7 C 14,5 km/h (3 Bft) 100,00 %
22.03.2016 09:34 7,1 C 73 % 1012,2 hPa 0,0 l/m 10,7 km/h (2 Bft) W 259 0 min 0,000 mm 0,8 UV-I 188 W/m 2,6 C 3,9 C 17,7 km/h (3 Bft) 100,00 %
22.03.2016 09:35 7,1 C 73 % 1012,2 hPa 0,0 l/m 10,8 km/h (2 Bft) SW 236 0 min 0,000 mm 0,8 UV-I 157 W/m 2,6 C 3,9 C 14,5 km/h (3 Bft) 100,00 %
22.03.2016 09:36 7,0 C 72 % 1012,2 hPa 0,0 l/m 15,0 km/h (3 Bft) W-SW 242 0 min 0,000 mm 0,8 UV-I 154 W/m 2,3 C 1,5 C 20,9 km/h (4 Bft) 96,15 %
22.03.2016 09:37 6,9 C 72 % 1012,2 hPa 0,0 l/m 15,2 km/h (3 Bft) W 277 0 min 0,000 mm 0,9 UV-I 157 W/m 2,2 C 1,3 C 20,9 km/h (4 Bft) 100,00 %
22.03.2016 09:38 6,9 C 72 % 1012,2 hPa 0,0 l/m 11,3 km/h (2 Bft) W 262 0 min 0,000 mm 0,9 UV-I 164 W/m 2,2 C 3,4 C 14,5 km/h (3 Bft) 100,00 %
22.03.2016 09:39 6,8 C 72 % 1012,2 hPa 0,0 l/m 12,2 km/h (2 Bft) W-SW 256 0 min 0,000 mm 0,9 UV-I 167 W/m 2,1 C 2,7 C 16,1 km/h (3 Bft) 100,00 %
22.03.2016 09:40 6,8 C 72 % 1012,2 hPa 0,0 l/m 11,3 km/h (2 Bft) W 261 0 min 0,000 mm 0,9 UV-I 160 W/m 2,1 C 3,2 C 14,5 km/h (3 Bft) 100,00 %
22.03.2016 09:41 6,7 C 72 % 1012,2 hPa 0,0 l/m 11,7 km/h (2 Bft) W 265 0 min 0,000 mm 1,0 UV-I 160 W/m 2,0 C 2,9 C 16,1 km/h (3 Bft) 100,00 %
22.03.2016 09:42 6,7 C 72 % 1012,2 hPa 0,0 l/m 8,9 km/h (2 Bft) W-SW 254 0 min 0,000 mm 1,0 UV-I 172 W/m 2,0 C 4,7 C 14,5 km/h (3 Bft) 96,15 %
22.03.2016 09:43 6,7 C 72 % 1012,2 hPa 0,0 l/m 11,0 km/h (2 Bft) W-SW 242 0 min 0,000 mm 1,1 UV-I 213 W/m 2,0 C 3,3 C 14,5 km/h (3 Bft) 100,00 %
22.03.2016 09:44 6,8 C 73 % 1012,1 hPa 0,0 l/m 12,4 km/h (3 Bft) SW 226 0 min 0,000 mm 1,1 UV-I 267 W/m 2,3 C 2,6 C 17,7 km/h (3 Bft) 100,00 %
22.03.2016 09:45 6,8 C 72 % 1012,2 hPa 0,0 l/m 14,1 km/h (3 Bft) W 265 1 min 0,000 mm 1,3 UV-I 308 W/m 2,1 C 1,7 C 17,7 km/h (3 Bft) 100,00 %
22.03.2016 09:46 6,8 C 72 % 1012,1 hPa 0,0 l/m 14,9 km/h (3 Bft) W-SW 252 1 min 0,000 mm 1,3 UV-I 308 W/m 2,1 C 1,3 C 19,3 km/h (3 Bft) 100,00 %
22.03.2016 09:47 6,9 C 73 % 1012,2 hPa 0,0 l/m 11,5 km/h (2 Bft) W-SW 243 1 min 0,000 mm 1,5 UV-I 308 W/m 2,4 C 3,2 C 16,1 km/h (3 Bft) 100,00 %
22.03.2016 09:48 7,1 C 74 % 1012,2 hPa 0,0 l/m 9,3 km/h (2 Bft) W 266 1 min 0,000 mm 1,4 UV-I 323 W/m 2,8 C 4,9 C 14,5 km/h (3 Bft) 100,00 %
22.03.2016 09:49 7,2 C 72 % 1012,2 hPa 0,0 l/m 12,9 km/h (3 Bft) SW 221 1 min 0,000 mm 1,3 UV-I 442 W/m 2,5 C 2,8 C 17,7 km/h (3 Bft) 96,30 %
22.03.2016 09:50 7,3 C 72 % 1012,2 hPa 0,0 l/m 10,6 km/h (2 Bft) W-SW 257 1 min 0,000 mm 1,3 UV-I 422 W/m 2,6 C 4,2 C 17,7 km/h (3 Bft) 100,00 %
22.03.2016 09:51 7,3 C 71 % 1012,2 hPa 0,0 l/m 14,7 km/h (3 Bft) SW 234 1 min 0,000 mm 1,2 UV-I 468 W/m 2,4 C 2,0 C 19,3 km/h (3 Bft) 100,00 %
22.03.2016 09:52 7,4 C 71 % 1012,2 hPa 0,0 l/m 10,1 km/h (2 Bft) SW 234 1 min 0,000 mm 1,1 UV-I 343 W/m 2,5 C 4,7 C 17,7 km/h (3 Bft) 100,00 %
22.03.2016 09:53 7,4 C 70 % 1012,2 hPa 0,0 l/m 13,6 km/h (3 Bft) W 264 0 min 0,000 mm 1,1 UV-I 268 W/m 2,3 C 2,7 C 19,3 km/h (3 Bft) 100,00 %
22.03.2016 09:54 7,4 C 70 % 1012,2 hPa 0,0 l/m 13,8 km/h (3 Bft) W-SW 245 0 min 0,000 mm 1,0 UV-I 262 W/m 2,3 C 2,6 C 20,9 km/h (4 Bft) 100,00 %
22.03.2016 09:55 7,3 C 70 % 1012,2 hPa 0,0 l/m 14,4 km/h (3 Bft) W-SW 257 0 min 0,000 mm 1,0 UV-I 258 W/m 2,2 C 2,1 C 17,7 km/h (3 Bft) 92,31 %
22.03.2016 09:56 7,3 C 69 % 1012,2 hPa 0,0 l/m 11,6 km/h (2 Bft) W-SW 250 0 min 0,000 mm 1,0 UV-I 250 W/m 2,0 C 3,6 C 16,1 km/h (3 Bft) 96,30 %
22.03.2016 09:57 7,3 C 70 % 1012,1 hPa 0,0 l/m 9,2 km/h (2 Bft) W-SW 247 0 min 0,000 mm 1,0 UV-I 251 W/m 2,2 C 5,1 C 14,5 km/h (3 Bft) 100,00 %
22.03.2016 09:58 7,3 C 70 % 1012,1 hPa 0,0 l/m 11,7 km/h (2 Bft) W-SW 244 0 min 0,000 mm 1,1 UV-I 258 W/m 2,2 C 3,6 C 19,3 km/h (3 Bft) 100,00 %
22.03.2016 09:59 7,3 C 70 % 1012,1 hPa 0,0 l/m 14,2 km/h (3 Bft) W 261 1 min 0,000 mm 1,2 UV-I 343 W/m 2,2 C 2,2 C 17,7 km/h (3 Bft) 100,00 %
22.03.2016 10:00 7,2 C 69 % 1012,2 hPa 0,0 l/m 17,9 km/h (3 Bft) W-SW 248 0 min 0,000 mm 1,1 UV-I 261 W/m 1,9 C 0,5 C 24,1 km/h (4 Bft) 100,00 %
22.03.2016 10:01 7,2 C 70 % 1012,1 hPa 0,0 l/m 16,2 km/h (3 Bft) W 261 0 min 0,153 mm 1,1 UV-I 288 W/m 2,1 C 1,2 C 20,9 km/h (4 Bft) 100,00 %
22.03.2016 10:02 7,2 C 70 % 1012,1 hPa 0,0 l/m 13,3 km/h (3 Bft) W 270 0 min 0,000 mm 1,1 UV-I 294 W/m 2,1 C 2,6 C 16,1 km/h (3 Bft) 96,30 %
22.03.2016 10:03 7,2 C 70 % 1012,1 hPa 0,0 l/m 6,6 km/h (2 Bft) W-SW 246 0 min 0,000 mm 1,0 UV-I 239 W/m 2,1 C 7,1 C 11,3 km/h (2 Bft) 100,00 %
22.03.2016 10:04 7,2 C 70 % 1012,1 hPa 0,0 l/m 8,6 km/h (2 Bft) S-SW 204 0 min 0,000 mm 1,1 UV-I 198 W/m 2,1 C 5,5 C 12,9 km/h (3 Bft) 100,00 %
22.03.2016 10:05 7,3 C 71 % 1012,1 hPa 0,0 l/m 6,8 km/h (2 Bft) SW 236 0 min 0,000 mm 1,2 UV-I 193 W/m 2,4 C 7,0 C 14,5 km/h (3 Bft) 95,65 %
22.03.2016 10:06 7,3 C 70 % 1012,1 hPa 0,0 l/m 7,7 km/h (2 Bft) W 272 0 min 0,000 mm 1,4 UV-I 249 W/m 2,2 C 6,2 C 14,5 km/h (3 Bft) 100,00 %
22.03.2016 10:07 7,3 C 70 % 1012,0 hPa 0,0 l/m 6,5 km/h (2 Bft) W 274 0 min 0,000 mm 1,3 UV-I 229 W/m 2,2 C 7,2 C 12,9 km/h (3 Bft) 100,00 %
22.03.2016 10:08 7,3 C 71 % 1012,0 hPa 0,0 l/m 9,0 km/h (2 Bft) W-SW 238 0 min 0,000 mm 1,7 UV-I 276 W/m 2,4 C 5,3 C 16,1 km/h (3 Bft) 96,15 %
22.03.2016 10:09 7,3 C 71 % 1012,0 hPa 0,0 l/m 13,7 km/h (3 Bft) W-SW 253 1 min 0,000 mm 1,6 UV-I 346 W/m 2,4 C 2,5 C 19,3 km/h (3 Bft) 100,00 %
22.03.2016 10:10 7,4 C 70 % 1012,0 hPa 0,0 l/m 17,0 km/h (3 Bft) W-SW 250 0 min 0,000 mm 1,4 UV-I 278 W/m 2,3 C 1,1 C 22,5 km/h (4 Bft) 100,00 %
22.03.2016 10:11 7,4 C 70 % 1012,0 hPa 0,0 l/m 16,3 km/h (3 Bft) W-SW 241 0 min 0,000 mm 1,7 UV-I 250 W/m 2,3 C 1,4 C 20,9 km/h (4 Bft) 100,00 %
22.03.2016 10:12 7,4 C 70 % 1012,0 hPa 0,0 l/m 18,7 km/h (3 Bft) W 262 1 min 0,000 mm 1,9 UV-I 647 W/m 2,3 C 0,4 C 25,7 km/h (4 Bft) 100,00 %
22.03.2016 10:13 7,5 C 69 % 1011,9 hPa 0,0 l/m 18,3 km/h (3 Bft) W 260 1 min 0,000 mm 1,8 UV-I 633 W/m 2,2 C 0,7 C 22,5 km/h (4 Bft) 100,00 %
22.03.2016 10:14 7,6 C 69 % 1011,9 hPa 0,0 l/m 14,5 km/h (3 Bft) W-SW 237 1 min 0,000 mm 1,9 UV-I 635 W/m 2,3 C 2,5 C 17,7 km/h (3 Bft) 100,00 %
22.03.2016 10:15 7,6 C 68 % 1011,9 hPa 0,0 l/m 11,6 km/h (2 Bft) W-SW 258 1 min 0,000 mm 2,0 UV-I 683 W/m 2,1 C 4,0 C 14,5 km/h (3 Bft) 100,00 %
22.03.2016 10:16 7,7 C 68 % 1011,9 hPa 0,0 l/m 14,2 km/h (3 Bft) W-SW 239 1 min 0,000 mm 1,9 UV-I 696 W/m 2,2 C 2,7 C 19,3 km/h (3 Bft) 100,00 %
22.03.2016 10:17 7,7 C 69 % 1011,9 hPa 0,0 l/m 12,5 km/h (3 Bft) W-SW 242 1 min 0,000 mm 1,9 UV-I 696 W/m 2,4 C 3,6 C 20,9 km/h (4 Bft) 100,00 %
22.03.2016 10:18 7,8 C 68 % 1011,9 hPa 0,0 l/m 14,2 km/h (3 Bft) W-SW 257 1 min 0,000 mm 2,0 UV-I 696 W/m 2,3 C 2,8 C 20,9 km/h (4 Bft) 100,00 %
22.03.2016 10:19 7,8 C 68 % 1011,9 hPa 0,0 l/m 12,4 km/h (3 Bft) W 267 1 min 0,000 mm 1,5 UV-I 579 W/m 2,3 C 3,8 C 17,7 km/h (3 Bft) 100,00 %
22.03.2016 10:20 7,8 C 68 % 1011,9 hPa 0,0 l/m 9,8 km/h (2 Bft) W-SW 253 0 min 0,000 mm 1,3 UV-I 322 W/m 2,3 C 5,3 C 14,5 km/h (3 Bft) 100,00 %
22.03.2016 10:21 7,8 C 69 % 1011,9 hPa 0,0 l/m 8,2 km/h (2 Bft) W-SW 251 0 min 0,000 mm 1,2 UV-I 282 W/m 2,5 C 6,4 C 11,3 km/h (2 Bft) 100,00 %
22.03.2016 10:22 7,9 C 69 % 1011,9 hPa 0,0 l/m 9,3 km/h (2 Bft) W-SW 252 0 min 0,000 mm 1,1 UV-I 255 W/m 2,6 C 5,7 C 17,7 km/h (3 Bft) 95,65 %
22.03.2016 10:23 7,9 C 68 % 1011,9 hPa 0,0 l/m 9,1 km/h (2 Bft) W 267 0 min 0,000 mm 1,1 UV-I 238 W/m 2,4 C 5,9 C 12,9 km/h (3 Bft) 100,00 %
22.03.2016 10:24 7,9 C 67 % 1011,9 hPa 0,0 l/m 12,6 km/h (3 Bft) SW 234 0 min 0,000 mm 1,1 UV-I 235 W/m 2,2 C 3,8 C 16,1 km/h (3 Bft) 98,65 %
22.03.2016 10:25 7,8 C 67 % 1011,8 hPa 0,0 l/m 8,6 km/h (2 Bft) W-SW 251 0 min 0,000 mm 1,2 UV-I 249 W/m 2,1 C 6,1 C 12,9 km/h (3 Bft) 95,74 %
22.03.2016 10:26 7,8 C 68 % 1011,8 hPa 0,0 l/m 4,5 km/h (1 Bft) SW 234 0 min 0,000 mm 1,2 UV-I 272 W/m 2,3 C 7,8 C 9,7 km/h (2 Bft) 96,15 %
22.03.2016 10:27 7,8 C 70 % 1011,8 hPa 0,0 l/m 7,5 km/h (2 Bft) W 264 0 min 0,000 mm 1,2 UV-I 338 W/m 2,7 C 6,9 C 11,3 km/h (2 Bft) 100,00 %
22.03.2016 10:28 7,9 C 69 % 1011,9 hPa 0,0 l/m 13,6 km/h (3 Bft) W-SW 252 0 min 0,000 mm 1,3 UV-I 317 W/m 2,6 C 3,3 C 19,3 km/h (3 Bft) 96,15 %
22.03.2016 10:29 7,9 C 68 % 1011,8 hPa 0,0 l/m 10,2 km/h (2 Bft) W-SW 253 0 min 0,000 mm 1,3 UV-I 318 W/m 2,4 C 5,1 C 16,1 km/h (3 Bft) 95,83 %
22.03.2016 10:30 7,8 C 67 % 1011,8 hPa 0,0 l/m 6,1 km/h (2 Bft) W 262 0 min 0,000 mm 1,3 UV-I 331 W/m 2,1 C 7,8 C 11,3 km/h (2 Bft) 100,00 %
22.03.2016 10:31 7,9 C 69 % 1011,8 hPa 0,0 l/m 7,0 km/h (2 Bft) W 261 1 min 0,000 mm 1,3 UV-I 367 W/m 2,6 C 7,4 C 11,3 km/h (2 Bft) 96,15 %
22.03.2016 10:32 7,9 C 69 % 1011,8 hPa 0,0 l/m 8,1 km/h (2 Bft) W-SW 249 1 min 0,000 mm 1,3 UV-I 377 W/m 2,6 C 6,6 C 14,5 km/h (3 Bft) 95,83 %
22.03.2016 10:33 8,0 C 67 % 1011,8 hPa 0,0 l/m 8,4 km/h (2 Bft) W-SW 244 1 min 0,000 mm 1,3 UV-I 345 W/m 2,3 C 6,5 C 12,9 km/h (3 Bft) 95,65 %
22.03.2016 10:34 8,0 C 67 % 1011,8 hPa 0,0 l/m 4,6 km/h (1 Bft) W-SW 241 1 min 0,000 mm 1,5 UV-I 345 W/m 2,3 C 8,0 C 8,0 km/h (2 Bft) 100,00 %
22.03.2016 10:35 8,1 C 69 % 1011,8 hPa 0,0 l/m 10,8 km/h (2 Bft) W-SW 255 1 min 0,000 mm 1,2 UV-I 345 W/m 2,8 C 5,0 C 16,1 km/h (3 Bft) 92,86 %
22.03.2016 10:36 8,0 C 67 % 1011,6 hPa 0,0 l/m 9,3 km/h (2 Bft) W-SW 249 1 min 0,000 mm 1,5 UV-I 345 W/m 2,3 C 5,8 C 12,9 km/h (3 Bft) 96,30 %
22.03.2016 10:37 8,1 C 68 % 1011,7 hPa 0,0 l/m 13,2 km/h (3 Bft) W-SW 254 1 min 0,000 mm 1,2 UV-I 345 W/m 2,6 C 3,7 C 17,7 km/h (3 Bft) 96,15 %
22.03.2016 10:38 8,1 C 67 % 1011,7 hPa 0,0 l/m 12,4 km/h (3 Bft) W 272 1 min 0,000 mm 1,5 UV-I 476 W/m 2,3 C 4,1 C 14,5 km/h (3 Bft) 100,00 %
22.03.2016 10:39 8,1 C 66 % 1011,6 hPa 0,0 l/m 11,0 km/h (2 Bft) S-SW 195 1 min 0,000 mm 1,1 UV-I 657 W/m 2,1 C 4,9 C 14,5 km/h (3 Bft) 96,55 %
22.03.2016 10:40 8,1 C 65 % 1011,6 hPa 0,0 l/m 8,9 km/h (2 Bft) SW 232 0 min 0,000 mm 0,7 UV-I 289 W/m 1,9 C 6,2 C 17,7 km/h (3 Bft) 96,67 %
22.03.2016 10:41 8,1 C 66 % 1011,6 hPa 0,0 l/m 13,9 km/h (3 Bft) S-SW 212 0 min 0,000 mm 0,6 UV-I 151 W/m 2,1 C 3,3 C 19,3 km/h (3 Bft) 100,00 %
22.03.2016 10:42 7,9 C 65 % 1011,6 hPa 0,0 l/m 11,4 km/h (2 Bft) W-SW 247 0 min 0,000 mm 0,5 UV-I 129 W/m 1,7 C 4,4 C 17,7 km/h (3 Bft) 96,30 %
22.03.2016 10:43 7,8 C 65 % 1011,6 hPa 0,0 l/m 13,3 km/h (3 Bft) W-SW 254 0 min 0,000 mm 0,5 UV-I 117 W/m 1,6 C 3,3 C 17,7 km/h (3 Bft) 100,00 %
22.03.2016 10:44 7,8 C 66 % 1011,6 hPa 0,0 l/m 11,2 km/h (2 Bft) W-NW 284 0 min 0,000 mm 0,5 UV-I 109 W/m 1,9 C 4,4 C 16,1 km/h (3 Bft) 91,67 %
22.03.2016 10:45 7,8 C 67 % 1011,6 hPa 0,0 l/m 7,7 km/h (2 Bft) SW 229 0 min 0,000 mm 0,6 UV-I 112 W/m 2,1 C 6,8 C 11,3 km/h (2 Bft) 92,31 %
22.03.2016 10:46 7,7 C 67 % 1011,6 hPa 0,0 l/m 13,8 km/h (3 Bft) W-SW 239 0 min 0,000 mm 0,7 UV-I 118 W/m 2,0 C 2,9 C 17,7 km/h (3 Bft) 100,00 %
22.03.2016 10:47 7,7 C 66 % 1011,6 hPa 0,0 l/m 11,1 km/h (2 Bft) W-SW 254 0 min 0,000 mm 0,7 UV-I 132 W/m 1,8 C 4,4 C 16,1 km/h (3 Bft) 100,00 %
22.03.2016 10:48 7,6 C 66 % 1011,5 hPa 0,0 l/m 10,9 km/h (2 Bft) W 265 0 min 0,000 mm 0,8 UV-I 147 W/m 1,7 C 4,4 C 16,1 km/h (3 Bft) 96,55 %
22.03.2016 10:49 7,6 C 67 % 1011,5 hPa 0,0 l/m 16,6 km/h (3 Bft) W-NW 286 0 min 0,000 mm 0,8 UV-I 156 W/m 1,9 C 1,5 C 22,5 km/h (4 Bft) 96,55 %
22.03.2016 10:50 7,6 C 67 % 1011,6 hPa 0,0 l/m 10,7 km/h (2 Bft) W-SW 256 0 min 0,000 mm 0,9 UV-I 168 W/m 1,9 C 4,5 C 12,9 km/h (3 Bft) 98,53 %
22.03.2016 10:51 7,5 C 67 % 1011,6 hPa 0,0 l/m 8,7 km/h (2 Bft) W-SW 242 0 min 0,000 mm 0,9 UV-I 172 W/m 1,8 C 5,7 C 14,5 km/h (3 Bft) 100,00 %
22.03.2016 10:52 7,5 C 67 % 1011,6 hPa 0,0 l/m 9,0 km/h (2 Bft) W-NW 291 0 min 0,000 mm 0,9 UV-I 170 W/m 1,8 C 5,5 C 12,9 km/h (3 Bft) 93,10 %
22.03.2016 10:53 7,5 C 67 % 1011,6 hPa 0,0 l/m 10,7 km/h (2 Bft) W-NW 284 0 min 0,000 mm 0,9 UV-I 156 W/m 1,8 C 4,4 C 20,9 km/h (4 Bft) 100,00 %
22.03.2016 10:54 7,5 C 68 % 1011,6 hPa 0,0 l/m 11,3 km/h (2 Bft) W 270 0 min 0,000 mm 0,9 UV-I 149 W/m 2,0 C 4,0 C 14,5 km/h (3 Bft) 100,00 %
22.03.2016 10:55 7,4 C 69 % 1011,6 hPa 0,0 l/m 9,8 km/h (2 Bft) W-NW 294 0 min 0,000 mm 0,9 UV-I 143 W/m 2,1 C 4,9 C 12,9 km/h (3 Bft) 100,00 %
22.03.2016 10:56 7,4 C 67 % 1011,6 hPa 0,0 l/m 11,9 km/h (2 Bft) W-SW 250 0 min 0,000 mm 1,0 UV-I 138 W/m 1,7 C 3,6 C 16,1 km/h (3 Bft) 100,00 %
22.03.2016 10:57 7,3 C 68 % 1011,6 hPa 0,0 l/m 9,4 km/h (2 Bft) W-SW 257 0 min 0,000 mm 1,1 UV-I 137 W/m 1,8 C 5,0 C 16,1 km/h (3 Bft) 100,00 %
22.03.2016 10:58 7,3 C 68 % 1011,6 hPa 0,0 l/m 12,8 km/h (3 Bft) W 265 0 min 0,000 mm 1,1 UV-I 139 W/m 1,8 C 3,0 C 17,7 km/h (3 Bft) 98,53 %
22.03.2016 10:59 7,3 C 68 % 1011,5 hPa 0,0 l/m 7,5 km/h (2 Bft) W-SW 242 0 min 0,000 mm 1,1 UV-I 141 W/m 1,8 C 6,4 C 12,9 km/h (3 Bft) 100,00 %
22.03.2016 11:00 7,3 C 68 % 1011,5 hPa 0,0 l/m 5,0 km/h (1 Bft) W-SW 248 0 min 0,178 mm 1,2 UV-I 140 W/m 1,8 C 7,3 C 9,7 km/h (2 Bft) 100,00 %
22.03.2016 11:01 7,2 C 69 % 1011,5 hPa 0,0 l/m 6,5 km/h (2 Bft) W 272 0 min 0,000 mm 1,2 UV-I 138 W/m 1,9 C 7,1 C 11,3 km/h (2 Bft) 96,00 %
22.03.2016 11:02 7,2 C 70 % 1011,5 hPa 0,0 l/m 7,1 km/h (2 Bft) W-SW 254 0 min 0,000 mm 1,2 UV-I 137 W/m 2,1 C 6,6 C 12,9 km/h (3 Bft) 100,00 %
22.03.2016 11:03 7,2 C 69 % 1011,5 hPa 0,0 l/m 8,4 km/h (2 Bft) W-SW 257 0 min 0,000 mm 1,2 UV-I 137 W/m 1,9 C 5,6 C 16,1 km/h (3 Bft) 100,00 %
22.03.2016 11:04 7,2 C 70 % 1011,6 hPa 0,0 l/m 10,9 km/h (2 Bft) W-SW 255 0 min 0,000 mm 1,3 UV-I 137 W/m 2,1 C 3,9 C 12,9 km/h (3 Bft) 96,15 %
22.03.2016 11:05 7,2 C 69 % 1011,5 hPa 0,0 l/m 10,2 km/h (2 Bft) W 278 0 min 0,000 mm 1,3 UV-I 137 W/m 1,9 C 4,4 C 14,5 km/h (3 Bft) 100,00 %
22.03.2016 11:06 7,2 C 69 % 1011,5 hPa 0,0 l/m 13,4 km/h (3 Bft) W 265 0 min 0,000 mm 1,3 UV-I 140 W/m 1,9 C 2,5 C 17,7 km/h (3 Bft) 100,00 %
22.03.2016 11:07 7,1 C 69 % 1011,5 hPa 0,0 l/m 11,2 km/h (2 Bft) W 272 0 min 0,000 mm 1,3 UV-I 142 W/m 1,8 C 3,6 C 16,1 km/h (3 Bft) 100,00 %
22.03.2016 11:08 7,1 C 69 % 1011,5 hPa 0,0 l/m 10,7 km/h (2 Bft) W-SW 242 0 min 0,000 mm 1,3 UV-I 147 W/m 1,8 C 3,9 C 16,1 km/h (3 Bft) 100,00 %
22.03.2016 11:09 7,1 C 69 % 1011,5 hPa 0,0 l/m 10,3 km/h (2 Bft) W 264 0 min 0,000 mm 1,4 UV-I 154 W/m 1,8 C 4,2 C 14,5 km/h (3 Bft) 100,00 %
22.03.2016 11:10 7,1 C 70 % 1011,5 hPa 0,0 l/m 7,1 km/h (2 Bft) W-SW 242 0 min 0,000 mm 1,4 UV-I 160 W/m 2,0 C 6,5 C 11,3 km/h (2 Bft) 100,00 %
22.03.2016 11:11 7,1 C 69 % 1011,5 hPa 0,0 l/m 9,6 km/h (2 Bft) W-SW 252 0 min 0,000 mm 1,4 UV-I 155 W/m 1,8 C 4,7 C 14,5 km/h (3 Bft) 95,65 %
22.03.2016 11:12 7,1 C 69 % 1011,5 hPa 0,0 l/m 7,6 km/h (2 Bft) W-SW 249 0 min 0,000 mm 1,4 UV-I 150 W/m 1,8 C 6,1 C 11,3 km/h (2 Bft) 100,00 %
22.03.2016 11:13 7,1 C 69 % 1011,5 hPa 0,0 l/m 13,5 km/h (3 Bft) W 264 0 min 0,000 mm 1,4 UV-I 152 W/m 1,8 C 2,4 C 17,7 km/h (3 Bft) 100,00 %
22.03.2016 11:14 7,1 C 69 % 1011,5 hPa 0,0 l/m 9,2 km/h (2 Bft) W-NW 285 0 min 0,000 mm 1,4 UV-I 160 W/m 1,8 C 4,9 C 16,1 km/h (3 Bft) 100,00 %
22.03.2016 11:15 7,1 C 69 % 1011,5 hPa 0,0 l/m 6,8 km/h (2 Bft) W-SW 245 0 min 0,000 mm 1,5 UV-I 170 W/m 1,8 C 6,8 C 14,5 km/h (3 Bft) 100,00 %
22.03.2016 11:16 7,1 C 69 % 1011,4 hPa 0,0 l/m 7,9 km/h (2 Bft) NW 304 0 min 0,000 mm 1,6 UV-I 186 W/m 1,8 C 5,9 C 12,9 km/h (3 Bft) 100,00 %
22.03.2016 11:17 7,2 C 69 % 1011,4 hPa 0,0 l/m 1,9 km/h (1 Bft) N-NW 333 0 min 0,000 mm 1,7 UV-I 226 W/m 1,9 C 7,2 C 4,8 km/h (1 Bft) 100,00 %
22.03.2016 11:18 7,2 C 70 % 1011,4 hPa 0,0 l/m 1,9 km/h (1 Bft) W-NW 286 0 min 0,000 mm 1,9 UV-I 266 W/m 2,1 C 7,2 C 4,8 km/h (1 Bft) 96,30 %
22.03.2016 11:19 7,3 C 71 % 1011,3 hPa 0,0 l/m 1,1 km/h (1 Bft) W-NW 286 0 min 0,000 mm 2,5 UV-I 306 W/m 2,4 C 7,3 C 3,2 km/h (1 Bft) 100,00 %
22.03.2016 11:20 7,6 C 72 % 1011,3 hPa 0,0 l/m 4,6 km/h (1 Bft) W 280 1 min 0,000 mm 2,6 UV-I 630 W/m 2,9 C 7,6 C 12,9 km/h (3 Bft) 100,00 %
22.03.2016 11:21 7,8 C 68 % 1011,3 hPa 0,0 l/m 6,6 km/h (2 Bft) W 265 1 min 0,000 mm 2,6 UV-I 809 W/m 2,3 C 7,7 C 11,3 km/h (2 Bft) 100,00 %
22.03.2016 11:22 7,9 C 69 % 1011,3 hPa 0,0 l/m 5,5 km/h (1 Bft) SW 229 1 min 0,000 mm 2,1 UV-I 780 W/m 2,6 C 7,9 C 8,0 km/h (2 Bft) 100,00 %
22.03.2016 11:23 8,1 C 68 % 1011,3 hPa 0,0 l/m 5,6 km/h (1 Bft) W-NW 286 1 min 0,000 mm 2,2 UV-I 621 W/m 2,6 C 8,1 C 8,0 km/h (2 Bft) 100,00 %
22.03.2016 11:24 8,1 C 68 % 1011,3 hPa 0,0 l/m 5,8 km/h (2 Bft) W 276 1 min 0,000 mm 2,0 UV-I 599 W/m 2,6 C 8,1 C 9,7 km/h (2 Bft) 96,97 %
22.03.2016 11:25 8,1 C 67 % 1011,3 hPa 0,0 l/m 6,8 km/h (2 Bft) W-NW 287 1 min 0,000 mm 1,7 UV-I 374 W/m 2,3 C 7,8 C 11,3 km/h (2 Bft) 100,00 %
22.03.2016 11:26 8,1 C 65 % 1011,3 hPa 0,0 l/m 6,1 km/h (2 Bft) W-NW 291 0 min 0,000 mm 2,4 UV-I 240 W/m 1,9 C 8,1 C 9,7 km/h (2 Bft) 100,00 %
22.03.2016 11:27 8,2 C 65 % 1011,2 hPa 0,0 l/m 13,5 km/h (3 Bft) W 273 0 min 0,000 mm 2,6 UV-I 251 W/m 2,0 C 3,7 C 22,5 km/h (4 Bft) 100,00 %
22.03.2016 11:28 8,3 C 65 % 1011,2 hPa 0,0 l/m 10,7 km/h (2 Bft) W-SW 245 1 min 0,000 mm 2,7 UV-I 742 W/m 2,1 C 5,3 C 16,1 km/h (3 Bft) 100,00 %
22.03.2016 11:29 8,4 C 65 % 1011,2 hPa 0,0 l/m 8,2 km/h (2 Bft) W 273 1 min 0,000 mm 2,7 UV-I 736 W/m 2,2 C 7,0 C 12,9 km/h (3 Bft) 100,00 %
22.03.2016 11:30 8,7 C 66 % 1011,2 hPa 0,0 l/m 6,2 km/h (2 Bft) SW 231 1 min 0,000 mm 2,8 UV-I 768 W/m 2,7 C 8,7 C 12,9 km/h (3 Bft) 100,00 %
22.03.2016 11:31 8,8 C 64 % 1011,2 hPa 0,0 l/m 11,2 km/h (2 Bft) SW 236 1 min 0,000 mm 2,8 UV-I 780 W/m 2,4 C 5,6 C 17,7 km/h (3 Bft) 100,00 %
22.03.2016 11:32 8,9 C 65 % 1011,1 hPa 0,0 l/m 4,0 km/h (1 Bft) W-SW 239 1 min 0,000 mm 2,8 UV-I 784 W/m 2,7 C 8,9 C 11,3 km/h (2 Bft) 100,00 %
22.03.2016 11:33 9,1 C 67 % 1011,1 hPa 0,0 l/m 5,3 km/h (1 Bft) W-SW 246 1 min 0,000 mm 2,8 UV-I 782 W/m 3,3 C 9,1 C 9,7 km/h (2 Bft) 100,00 %
22.03.2016 11:34 9,4 C 66 % 1011,1 hPa 0,0 l/m 5,2 km/h (1 Bft) W-SW 256 1 min 0,000 mm 2,8 UV-I 810 W/m 3,4 C 9,4 C 11,3 km/h (2 Bft) 100,00 %
22.03.2016 11:35 9,6 C 67 % 1011,1 hPa 0,0 l/m 4,3 km/h (1 Bft) W-SW 244 1 min 0,000 mm 2,6 UV-I 814 W/m 3,8 C 9,6 C 8,0 km/h (2 Bft) 100,00 %
22.03.2016 11:36 9,7 C 63 % 1011,1 hPa 0,0 l/m 6,4 km/h (2 Bft) S-SW 200 1 min 0,000 mm 1,9 UV-I 582 W/m 3,0 C 9,7 C 11,3 km/h (2 Bft) 100,00 %
22.03.2016 11:37 9,7 C 62 % 1011,1 hPa 0,0 l/m 3,4 km/h (1 Bft) NW 320 0 min 0,000 mm 2,1 UV-I 299 W/m 2,8 C 9,7 C 4,8 km/h (1 Bft) 100,00 %
22.03.2016 11:38 9,7 C 63 % 1011,1 hPa 0,0 l/m 4,2 km/h (1 Bft) W-NW 288 0 min 0,000 mm 1,9 UV-I 299 W/m 3,0 C 9,7 C 6,4 km/h (2 Bft) 100,00 %
22.03.2016 11:39 9,6 C 62 % 1011,1 hPa 0,0 l/m 3,3 km/h (1 Bft) W 274 0 min 0,000 mm 1,5 UV-I 226 W/m 2,7 C 9,6 C 6,4 km/h (2 Bft) 95,83 %
22.03.2016 11:40 9,6 C 64 % 1011,1 hPa 0,0 l/m 2,9 km/h (1 Bft) W 271 0 min 0,000 mm 1,6 UV-I 222 W/m 3,1 C 9,6 C 6,4 km/h (2 Bft) 100,00 %
22.03.2016 11:41 9,4 C 63 % 1011,1 hPa 0,0 l/m 3,6 km/h (1 Bft) W-SW 258 0 min 0,000 mm 2,6 UV-I 257 W/m 2,7 C 9,4 C 6,4 km/h (2 Bft) 100,00 %
22.03.2016 11:42 9,4 C 62 % 1011,1 hPa 0,0 l/m 2,3 km/h (1 Bft) W-NW 294 1 min 0,000 mm 2,7 UV-I 561 W/m 2,5 C 9,4 C 4,8 km/h (1 Bft) 100,00 %
22.03.2016 11:43 9,6 C 66 % 1011,1 hPa 0,0 l/m 5,8 km/h (2 Bft) NW 304 1 min 0,000 mm 2,3 UV-I 809 W/m 3,6 C 9,6 C 14,5 km/h (3 Bft) 100,00 %
22.03.2016 11:44 9,6 C 59 % 1011,0 hPa 0,0 l/m 4,3 km/h (1 Bft) NW 314 1 min 0,000 mm 2,4 UV-I 809 W/m 2,0 C 9,6 C 12,9 km/h (3 Bft) 100,00 %
22.03.2016 11:45 9,6 C 62 % 1011,0 hPa 0,0 l/m 3,4 km/h (1 Bft) W 266 1 min 0,000 mm 2,9 UV-I 826 W/m 2,7 C 9,6 C 4,8 km/h (1 Bft) 100,00 %
22.03.2016 11:46 9,6 C 61 % 1011,0 hPa 0,0 l/m 5,2 km/h (1 Bft) W 273 1 min 0,000 mm 2,9 UV-I 854 W/m 2,5 C 9,6 C 11,3 km/h (2 Bft) 100,00 %
22.03.2016 11:47 9,7 C 60 % 1011,0 hPa 0,0 l/m 7,5 km/h (2 Bft) SW 234 1 min 0,000 mm 2,8 UV-I 860 W/m 2,3 C 8,9 C 11,3 km/h (2 Bft) 100,00 %
22.03.2016 11:48 9,8 C 61 % 1011,0 hPa 0,0 l/m 11,4 km/h (2 Bft) W 268 1 min 0,000 mm 2,4 UV-I 860 W/m 2,6 C 6,6 C 16,1 km/h (3 Bft) 100,00 %
22.03.2016 11:49 9,8 C 57 % 1011,0 hPa 0,0 l/m 13,6 km/h (3 Bft) SW 228 1 min 0,000 mm 3,0 UV-I 932 W/m 1,7 C 5,5 C 19,3 km/h (3 Bft) 100,00 %
22.03.2016 11:50 9,8 C 59 % 1011,0 hPa 0,0 l/m 5,8 km/h (2 Bft) W 280 1 min 0,000 mm 3,1 UV-I 948 W/m 2,2 C 9,8 C 11,3 km/h (2 Bft) 100,00 %
22.03.2016 11:51 9,9 C 60 % 1011,0 hPa 0,0 l/m 2,3 km/h (1 Bft) W 273 1 min 0,000 mm 2,9 UV-I 941 W/m 2,5 C 9,9 C 4,8 km/h (1 Bft) 98,64 %
22.03.2016 11:52 10,2 C 62 % 1010,9 hPa 0,0 l/m 2,4 km/h (1 Bft) NW 313 1 min 0,000 mm 2,8 UV-I 922 W/m 3,3 C 10,2 C 6,4 km/h (2 Bft) 100,00 %
22.03.2016 11:53 10,3 C 62 % 1010,9 hPa 0,0 l/m 6,4 km/h (2 Bft) N-NW 339 1 min 0,000 mm 2,7 UV-I 912 W/m 3,3 C 10,3 C 11,3 km/h (2 Bft) 100,00 %
22.03.2016 11:54 10,4 C 56 % 1010,9 hPa 0,0 l/m 7,8 km/h (2 Bft) N-NW 341 1 min 0,000 mm 2,3 UV-I 924 W/m 2,0 C 9,4 C 12,9 km/h (3 Bft) 96,30 %
22.03.2016 11:55 10,2 C 58 % 1011,0 hPa 0,0 l/m 5,9 km/h (2 Bft) W 264 1 min 0,000 mm 2,0 UV-I 933 W/m 2,3 C 10,2 C 9,7 km/h (2 Bft) 100,00 %
22.03.2016 11:56 10,1 C 58 % 1011,0 hPa 0,0 l/m 9,5 km/h (2 Bft) W-SW 252 1 min 0,000 mm 1,9 UV-I 675 W/m 2,2 C 8,0 C 14,5 km/h (3 Bft) 100,00 %
22.03.2016 11:57 10,1 C 60 % 1010,9 hPa 0,0 l/m 9,0 km/h (2 Bft) SW 218 1 min 0,000 mm 1,4 UV-I 566 W/m 2,7 C 8,3 C 16,1 km/h (3 Bft) 100,00 %
22.03.2016 11:58 9,9 C 60 % 1010,9 hPa 0,0 l/m 4,7 km/h (1 Bft) W-SW 257 0 min 0,000 mm 1,4 UV-I 344 W/m 2,5 C 9,9 C 8,0 km/h (2 Bft) 100,00 %
22.03.2016 11:59 9,8 C 59 % 1011,0 hPa 0,0 l/m 3,5 km/h (1 Bft) NW 325 1 min 0,000 mm 1,2 UV-I 399 W/m 2,2 C 9,8 C 8,0 km/h (2 Bft) 100,00 %
22.03.2016 12:00 9,7 C 62 % 1011,0 hPa 0,0 l/m 5,4 km/h (1 Bft) W-NW 298 0 min 0,254 mm 1,0 UV-I 299 W/m 2,8 C 9,7 C 9,7 km/h (2 Bft) 100,00 %
22.03.2016 12:02 9,2 C 62 % 1010,9 hPa 0,0 l/m 9,6 km/h (2 Bft) N-NW 334 0 min 0,000 mm 0,8 UV-I 178 W/m 2,3 C 7,0 C 19,3 km/h (3 Bft) 100,00 %
22.03.2016 12:03 8,9 C 63 % 1010,9 hPa 0,0 l/m 10,0 km/h (2 Bft) NW 317 0 min 0,000 mm 0,6 UV-I 137 W/m 2,2 C 6,4 C 19,3 km/h (3 Bft) 100,00 %
22.03.2016 12:04 8,7 C 64 % 1010,9 hPa 0,0 l/m 5,8 km/h (2 Bft) W-NW 298 0 min 0,000 mm 0,5 UV-I 117 W/m 2,3 C 8,7 C 12,9 km/h (3 Bft) 96,30 %
22.03.2016 12:05 8,6 C 65 % 1010,9 hPa 0,0 l/m 4,3 km/h (1 Bft) NW 323 0 min 0,000 mm 0,5 UV-I 106 W/m 2,4 C 8,6 C 6,4 km/h (2 Bft) 100,00 %
22.03.2016 12:06 8,4 C 66 % 1011,0 hPa 0,0 l/m 6,4 km/h (2 Bft) NW 317 0 min 0,000 mm 0,5 UV-I 104 W/m 2,4 C 8,4 C 14,5 km/h (3 Bft) 93,33 %
22.03.2016 12:07 8,3 C 68 % 1010,9 hPa 0,0 l/m 5,8 km/h (2 Bft) NW 310 0 min 0,000 mm 0,5 UV-I 105 W/m 2,7 C 8,3 C 11,3 km/h (2 Bft) 100,00 %
22.03.2016 12:08 8,3 C 68 % 1010,9 hPa 0,0 l/m 3,5 km/h (1 Bft) N-NW 327 0 min 0,000 mm 0,5 UV-I 105 W/m 2,7 C 8,3 C 4,8 km/h (1 Bft) 86,67 %
22.03.2016 12:09 8,2 C 69 % 1011,0 hPa 0,0 l/m 4,5 km/h (1 Bft) W-NW 294 0 min 0,000 mm 0,6 UV-I 111 W/m 2,9 C 8,2 C 11,3 km/h (2 Bft) 100,00 %
22.03.2016 12:10 8,2 C 67 % 1011,0 hPa 0,0 l/m 8,1 km/h (2 Bft) W-NW 298 0 min 0,000 mm 0,6 UV-I 113 W/m 2,4 C 6,9 C 14,5 km/h (3 Bft) 94,12 %
22.03.2016 12:11 8,1 C 66 % 1011,0 hPa 0,0 l/m 4,6 km/h (1 Bft) W 280 0 min 0,000 mm 0,6 UV-I 114 W/m 2,1 C 8,1 C 9,7 km/h (2 Bft) 100,00 %
22.03.2016 12:12 8,1 C 67 % 1011,0 hPa 0,0 l/m 6,8 km/h (2 Bft) W-NW 300 0 min 0,000 mm 0,6 UV-I 111 W/m 2,3 C 7,8 C 11,3 km/h (2 Bft) 96,15 %
22.03.2016 12:13 8,1 C 67 % 1011,0 hPa 0,0 l/m 10,6 km/h (2 Bft) N-NW 331 0 min 0,000 mm 0,5 UV-I 106 W/m 2,3 C 5,1 C 17,7 km/h (3 Bft) 96,67 %
22.03.2016 12:14 8,0 C 68 % 1011,1 hPa 0,0 l/m 4,2 km/h (1 Bft) W-NW 289 0 min 0,000 mm 0,5 UV-I 102 W/m 2,5 C 8,0 C 11,3 km/h (2 Bft) 95,65 %
22.03.2016 12:15 8,0 C 68 % 1011,1 hPa 0,0 l/m 5,0 km/h (1 Bft) W-NW 288 0 min 0,000 mm 0,5 UV-I 98 W/m 2,5 C 8,0 C 9,7 km/h (2 Bft) 95,83 %
22.03.2016 12:16 7,9 C 68 % 1011,0 hPa 0,0 l/m 10,5 km/h (2 Bft) W 267 0 min 0,000 mm 0,5 UV-I 97 W/m 2,4 C 5,0 C 22,5 km/h (4 Bft) 100,00 %
22.03.2016 12:17 7,9 C 68 % 1011,1 hPa 0,0 l/m 11,0 km/h (2 Bft) NW 305 0 min 0,000 mm 0,5 UV-I 95 W/m 2,4 C 4,7 C 25,7 km/h (4 Bft) 96,30 %
22.03.2016 12:18 7,8 C 68 % 1011,1 hPa 0,0 l/m 8,8 km/h (2 Bft) W-NW 296 0 min 0,000 mm 0,5 UV-I 94 W/m 2,3 C 6,0 C 14,5 km/h (3 Bft) 100,00 %
22.03.2016 12:19 7,8 C 68 % 1011,1 hPa 0,0 l/m 10,4 km/h (2 Bft) W-NW 288 0 min 0,000 mm 0,5 UV-I 94 W/m 2,3 C 4,9 C 19,3 km/h (3 Bft) 91,67 %
22.03.2016 12:20 7,7 C 70 % 1011,1 hPa 0,0 l/m 11,6 km/h (2 Bft) W-NW 290 0 min 0,000 mm 0,5 UV-I 95 W/m 2,6 C 4,1 C 20,9 km/h (4 Bft) 100,00 %
22.03.2016 12:21 7,6 C 69 % 1011,1 hPa 0,0 l/m 13,0 km/h (3 Bft) W 263 0 min 0,000 mm 0,5 UV-I 95 W/m 2,3 C 3,2 C 20,9 km/h (4 Bft) 95,12 %
22.03.2016 12:22 7,6 C 70 % 1011,1 hPa 0,0 l/m 11,4 km/h (2 Bft) W 273 0 min 0,000 mm 0,5 UV-I 96 W/m 2,5 C 4,1 C 20,9 km/h (4 Bft) 95,65 %
22.03.2016 12:23 7,5 C 69 % 1011,1 hPa 0,0 l/m 10,9 km/h (2 Bft) W-NW 287 0 min 0,000 mm 0,5 UV-I 97 W/m 2,2 C 4,3 C 19,3 km/h (3 Bft) 100,00 %
22.03.2016 12:24 7,4 C 69 % 1011,1 hPa 0,0 l/m 17,9 km/h (3 Bft) W-NW 290 0 min 0,000 mm 0,5 UV-I 98 W/m 2,1 C 0,7 C 22,5 km/h (4 Bft) 93,33 %
22.03.2016 12:25 7,3 C 69 % 1011,2 hPa 0,0 l/m 12,6 km/h (3 Bft) NW 315 0 min 0,000 mm 0,5 UV-I 97 W/m 2,0 C 3,1 C 17,7 km/h (3 Bft) 100,00 %
22.03.2016 12:26 7,3 C 68 % 1011,2 hPa 0,0 l/m 17,0 km/h (3 Bft) W-SW 254 0 min 0,000 mm 0,5 UV-I 97 W/m 1,8 C 1,0 C 27,4 km/h (4 Bft) 95,83 %
22.03.2016 12:27 7,2 C 67 % 1011,1 hPa 0,0 l/m 7,6 km/h (2 Bft) W-NW 289 0 min 0,000 mm 0,5 UV-I 95 W/m 1,5 C 6,2 C 11,3 km/h (2 Bft) 100,00 %
22.03.2016 12:28 7,1 C 69 % 1011,1 hPa 0,0 l/m 6,6 km/h (2 Bft) W-NW 286 0 min 0,000 mm 0,5 UV-I 98 W/m 1,8 C 7,0 C 9,7 km/h (2 Bft) 95,83 %
22.03.2016 12:29 7,1 C 69 % 1011,0 hPa 0,0 l/m 5,7 km/h (1 Bft) W-SW 254 0 min 0,000 mm 0,5 UV-I 103 W/m 1,8 C 7,1 C 11,3 km/h (2 Bft) 95,65 %
22.03.2016 12:30 7,0 C 69 % 1011,0 hPa 0,0 l/m 7,6 km/h (2 Bft) W 265 0 min 0,000 mm 0,5 UV-I 113 W/m 1,7 C 6,0 C 12,9 km/h (3 Bft) 100,00 %
22.03.2016 12:31 6,9 C 67 % 1011,1 hPa 0,0 l/m 8,9 km/h (2 Bft) W 262 0 min 0,000 mm 0,7 UV-I 126 W/m 1,2 C 4,9 C 11,3 km/h (2 Bft) 96,15 %
22.03.2016 12:32 6,9 C 67 % 1011,0 hPa 0,0 l/m 3,7 km/h (1 Bft) W 278 0 min 0,000 mm 0,7 UV-I 140 W/m 1,2 C 6,9 C 6,4 km/h (2 Bft) 100,00 %
22.03.2016 12:33 6,9 C 70 % 1011,0 hPa 0,0 l/m 1,5 km/h (1 Bft) W 262 0 min 0,000 mm 0,8 UV-I 154 W/m 1,8 C 6,9 C 4,8 km/h (1 Bft) 91,30 %
22.03.2016 12:34 6,9 C 71 % 1011,0 hPa 0,0 l/m 7,7 km/h (2 Bft) W-NW 296 0 min 0,000 mm 0,9 UV-I 165 W/m 2,0 C 5,8 C 12,9 km/h (3 Bft) 100,00 %
22.03.2016 12:35 6,9 C 68 % 1011,0 hPa 0,0 l/m 8,0 km/h (2 Bft) W 276 0 min 0,000 mm 0,9 UV-I 170 W/m 1,4 C 5,6 C 11,3 km/h (2 Bft) 100,00 %
22.03.2016 12:36 7,0 C 69 % 1011,0 hPa 0,0 l/m 3,6 km/h (1 Bft) W-NW 286 0 min 0,000 mm 1,0 UV-I 177 W/m 1,7 C 7,0 C 9,7 km/h (2 Bft) 100,00 %
22.03.2016 12:37 7,0 C 70 % 1010,9 hPa 0,0 l/m 2,8 km/h (1 Bft) W 267 0 min 0,000 mm 1,1 UV-I 181 W/m 1,9 C 7,0 C 6,4 km/h (2 Bft) 100,00 %
22.03.2016 12:38 7,1 C 69 % 1010,9 hPa 0,0 l/m 6,7 km/h (2 Bft) W-SW 252 0 min 0,000 mm 1,1 UV-I 185 W/m 1,8 C 6,9 C 11,3 km/h (2 Bft) 100,00 %
22.03.2016 12:39 7,1 C 69 % 1010,9 hPa 0,0 l/m 3,4 km/h (1 Bft) W-SW 252 0 min 0,000 mm 1,2 UV-I 191 W/m 1,8 C 7,1 C 6,4 km/h (2 Bft) 100,00 %
22.03.2016 12:40 7,2 C 69 % 1010,9 hPa 0,0 l/m 3,7 km/h (1 Bft) W-SW 252 0 min 0,000 mm 1,2 UV-I 194 W/m 1,9 C 7,2 C 6,4 km/h (2 Bft) 95,83 %
22.03.2016 12:41 7,2 C 69 % 1010,9 hPa 0,0 l/m 3,9 km/h (1 Bft) N-NW 333 0 min 0,000 mm 1,3 UV-I 200 W/m 1,9 C 7,2 C 4,8 km/h (1 Bft) 100,00 %
22.03.2016 12:42 7,3 C 69 % 1010,8 hPa 0,0 l/m 4,8 km/h (1 Bft) W 263 0 min 0,000 mm 1,3 UV-I 209 W/m 2,0 C 7,3 C 8,0 km/h (2 Bft) 100,00 %
22.03.2016 12:43 7,3 C 70 % 1010,8 hPa 0,0 l/m 6,7 km/h (2 Bft) W-NW 291 0 min 0,000 mm 1,4 UV-I 219 W/m 2,2 C 7,1 C 12,9 km/h (3 Bft) 94,29 %
22.03.2016 12:44 7,4 C 69 % 1010,8 hPa 0,0 l/m 7,2 km/h (2 Bft) W-NW 291 0 min 0,000 mm 1,5 UV-I 238 W/m 2,1 C 6,8 C 11,3 km/h (2 Bft) 100,00 %
22.03.2016 12:45 7,4 C 67 % 1010,8 hPa 0,0 l/m 3,7 km/h (1 Bft) NW 310 0 min 0,000 mm 1,5 UV-I 263 W/m 1,7 C 7,4 C 11,3 km/h (2 Bft) 96,30 %
22.03.2016 12:46 7,5 C 68 % 1010,8 hPa 0,0 l/m 8,9 km/h (2 Bft) W 271 0 min 0,000 mm 1,6 UV-I 285 W/m 2,0 C 5,6 C 12,9 km/h (3 Bft) 100,00 %
22.03.2016 12:47 7,6 C 69 % 1010,7 hPa 0,0 l/m 4,4 km/h (1 Bft) W-NW 302 0 min 0,000 mm 1,7 UV-I 318 W/m 2,3 C 7,6 C 9,7 km/h (2 Bft) 100,00 %
22.03.2016 12:48 7,7 C 67 % 1010,7 hPa 0,0 l/m 1,9 km/h (1 Bft) NO 46 1 min 0,000 mm 1,8 UV-I 387 W/m 2,0 C 7,7 C 4,8 km/h (1 Bft) 100,00 %
22.03.2016 12:49 7,7 C 66 % 1010,7 hPa 0,0 l/m 4,8 km/h (1 Bft) W 259 1 min 0,000 mm 1,8 UV-I 380 W/m 1,8 C 7,7 C 6,4 km/h (2 Bft) 100,00 %
22.03.2016 12:50 7,8 C 67 % 1010,7 hPa 0,0 l/m 3,8 km/h (1 Bft) W-SW 253 1 min 0,000 mm 1,9 UV-I 398 W/m 2,1 C 7,8 C 6,4 km/h (2 Bft) 100,00 %
22.03.2016 12:51 8,0 C 65 % 1010,7 hPa 0,0 l/m 12,3 km/h (3 Bft) SW 225 1 min 0,000 mm 2,2 UV-I 447 W/m 1,8 C 4,0 C 17,7 km/h (3 Bft) 100,00 %
22.03.2016 12:52 8,1 C 63 % 1010,7 hPa 0,0 l/m 10,5 km/h (2 Bft) W-SW 253 1 min 0,000 mm 2,2 UV-I 490 W/m 1,5 C 5,2 C 16,1 km/h (3 Bft) 100,00 %
22.03.2016 12:53 8,2 C 62 % 1010,8 hPa 0,0 l/m 10,7 km/h (2 Bft) W 275 1 min 0,000 mm 2,2 UV-I 432 W/m 1,4 C 5,2 C 16,1 km/h (3 Bft) 100,00 %
22.03.2016 12:54 8,4 C 65 % 1010,7 hPa 0,0 l/m 10,9 km/h (2 Bft) SW 229 1 min 0,000 mm 2,4 UV-I 432 W/m 2,2 C 5,3 C 14,5 km/h (3 Bft) 100,00 %
22.03.2016 12:55 8,6 C 64 % 1010,7 hPa 0,0 l/m 12,3 km/h (3 Bft) W-SW 252 1 min 0,000 mm 2,3 UV-I 432 W/m 2,2 C 4,7 C 19,3 km/h (3 Bft) 100,00 %
22.03.2016 12:56 8,8 C 62 % 1010,7 hPa 0,0 l/m 6,7 km/h (2 Bft) W-SW 251 1 min 0,000 mm 1,9 UV-I 435 W/m 1,9 C 8,6 C 8,0 km/h (2 Bft) 100,00 %
22.03.2016 12:57 8,9 C 62 % 1010,7 hPa 0,0 l/m 8,0 km/h (2 Bft) W-NW 290 1 min 0,000 mm 1,9 UV-I 493 W/m 2,0 C 7,7 C 14,5 km/h (3 Bft) 96,30 %
22.03.2016 12:58 8,9 C 62 % 1010,8 hPa 0,0 l/m 4,5 km/h (1 Bft) W-SW 257 1 min 0,000 mm 1,9 UV-I 527 W/m 2,0 C 8,9 C 9,7 km/h (2 Bft) 100,00 %
22.03.2016 12:59 9,0 C 61 % 1010,7 hPa 0,0 l/m 12,4 km/h (3 Bft) W-NW 285 1 min 0,000 mm 1,8 UV-I 463 W/m 1,9 C 5,2 C 17,7 km/h (3 Bft) 100,00 %
22.03.2016 13:00 9,1 C 60 % 1010,7 hPa 0,0 l/m 7,1 km/h (2 Bft) W-NW 293 1 min 0,000 mm 1,7 UV-I 429 W/m 1,8 C 8,6 C 12,9 km/h (3 Bft) 100,00 %
22.03.2016 13:02 9,2 C 63 % 1010,7 hPa 0,0 l/m 4,1 km/h (1 Bft) W 273 2 min 0,127 mm 1,7 UV-I 413 W/m 2,5 C 9,2 C 11,3 km/h (2 Bft) 98,11 %
22.03.2016 13:03 9,2 C 63 % 1010,7 hPa 0,0 l/m 13,5 km/h (3 Bft) W-NW 286 1 min 0,000 mm 1,7 UV-I 403 W/m 2,5 C 4,8 C 19,3 km/h (3 Bft) 100,00 %
22.03.2016 13:04 9,2 C 61 % 1010,7 hPa 0,0 l/m 14,9 km/h (3 Bft) W 281 1 min 0,000 mm 1,7 UV-I 406 W/m 2,1 C 4,2 C 22,5 km/h (4 Bft) 100,00 %
22.03.2016 13:05 9,1 C 61 % 1010,7 hPa 0,0 l/m 4,3 km/h (1 Bft) W-NW 282 1 min 0,000 mm 1,7 UV-I 418 W/m 2,0 C 9,1 C 9,7 km/h (2 Bft) 100,00 %
22.03.2016 13:06 9,1 C 61 % 1010,7 hPa 0,0 l/m 6,0 km/h (2 Bft) W-NW 291 1 min 0,000 mm 1,7 UV-I 415 W/m 2,0 C 9,1 C 9,7 km/h (2 Bft) 100,00 %
22.03.2016 13:07 9,1 C 62 % 1010,7 hPa 0,0 l/m 11,0 km/h (2 Bft) W 261 1 min 0,000 mm 1,7 UV-I 415 W/m 2,2 C 6,0 C 19,3 km/h (3 Bft) 100,00 %
22.03.2016 13:08 9,1 C 60 % 1010,7 hPa 0,0 l/m 11,1 km/h (2 Bft) W 265 1 min 0,000 mm 1,7 UV-I 419 W/m 1,8 C 6,0 C 16,1 km/h (3 Bft) 100,00 %
22.03.2016 13:09 8,9 C 61 % 1010,7 hPa 0,0 l/m 9,8 km/h (2 Bft) W-NW 290 1 min 0,000 mm 1,7 UV-I 434 W/m 1,8 C 6,5 C 16,1 km/h (3 Bft) 96,15 %
22.03.2016 13:10 8,9 C 61 % 1010,7 hPa 0,0 l/m 5,4 km/h (1 Bft) W-NW 288 1 min 0,000 mm 1,8 UV-I 437 W/m 1,8 C 8,9 C 9,7 km/h (2 Bft) 100,00 %
22.03.2016 13:11 8,9 C 63 % 1010,7 hPa 0,0 l/m 5,9 km/h (2 Bft) W 274 1 min 0,000 mm 1,7 UV-I 452 W/m 2,2 C 8,9 C 19,3 km/h (3 Bft) 100,00 %
22.03.2016 13:12 9,0 C 62 % 1010,6 hPa 0,0 l/m 7,3 km/h (2 Bft) W-NW 288 1 min 0,000 mm 1,8 UV-I 514 W/m 2,1 C 8,3 C 14,5 km/h (3 Bft) 100,00 %
22.03.2016 13:13 9,0 C 61 % 1010,6 hPa 0,0 l/m 3,5 km/h (1 Bft) W-NW 298 1 min 0,000 mm 1,8 UV-I 446 W/m 1,9 C 9,0 C 8,0 km/h (2 Bft) 100,00 %
22.03.2016 13:14 9,1 C 64 % 1010,6 hPa 0,0 l/m 7,3 km/h (2 Bft) W-SW 253 1 min 0,000 mm 1,8 UV-I 468 W/m 2,7 C 8,4 C 19,3 km/h (3 Bft) 100,00 %
22.03.2016 13:15 9,1 C 61 % 1010,6 hPa 0,0 l/m 9,1 km/h (2 Bft) NW 308 1 min 0,000 mm 1,8 UV-I 442 W/m 2,0 C 7,2 C 17,7 km/h (3 Bft) 100,00 %
22.03.2016 13:16 9,2 C 64 % 1010,6 hPa 0,0 l/m 7,2 km/h (2 Bft) NW 306 1 min 0,000 mm 1,7 UV-I 433 W/m 2,8 C 8,6 C 16,1 km/h (3 Bft) 100,00 %
22.03.2016 13:17 9,2 C 65 % 1010,6 hPa 0,0 l/m 5,6 km/h (1 Bft) NW 306 1 min 0,000 mm 1,6 UV-I 425 W/m 3,0 C 9,2 C 8,0 km/h (2 Bft) 100,00 %
22.03.2016 13:18 9,2 C 62 % 1010,6 hPa 0,0 l/m 7,4 km/h (2 Bft) W-SW 257 1 min 0,000 mm 1,5 UV-I 395 W/m 2,3 C 8,4 C 12,9 km/h (3 Bft) 100,00 %
22.03.2016 13:19 9,2 C 61 % 1010,6 hPa 0,0 l/m 6,0 km/h (2 Bft) W-SW 250 0 min 0,000 mm 1,3 UV-I 325 W/m 2,1 C 9,2 C 11,3 km/h (2 Bft) 100,00 %
22.03.2016 13:20 9,1 C 61 % 1010,6 hPa 0,0 l/m 4,9 km/h (1 Bft) NO 52 0 min 0,000 mm 1,3 UV-I 318 W/m 2,0 C 9,1 C 6,4 km/h (2 Bft) 96,30 %
22.03.2016 13:21 9,1 C 64 % 1010,6 hPa 0,0 l/m 8,1 km/h (2 Bft) W-NW 300 0 min 0,000 mm 1,3 UV-I 322 W/m 2,7 C 7,8 C 16,1 km/h (3 Bft) 100,00 %
22.03.2016 13:22 9,1 C 64 % 1010,7 hPa 0,0 l/m 8,7 km/h (2 Bft) W 275 0 min 0,000 mm 1,3 UV-I 313 W/m 2,7 C 7,4 C 12,9 km/h (3 Bft) 100,00 %
22.03.2016 13:23 9,0 C 62 % 1010,6 hPa 0,0 l/m 7,2 km/h (2 Bft) NW 309 0 min 0,000 mm 1,3 UV-I 300 W/m 2,1 C 8,4 C 12,9 km/h (3 Bft) 93,33 %
22.03.2016 13:24 8,9 C 63 % 1010,6 hPa 0,0 l/m 4,3 km/h (1 Bft) W-NW 288 0 min 0,000 mm 1,3 UV-I 293 W/m 2,2 C 8,9 C 8,0 km/h (2 Bft) 100,00 %
22.03.2016 13:25 8,9 C 65 % 1010,7 hPa 0,0 l/m 5,1 km/h (1 Bft) N-NW 348 0 min 0,000 mm 1,3 UV-I 290 W/m 2,7 C 8,9 C 9,7 km/h (2 Bft) 100,00 %
22.03.2016 13:26 8,9 C 64 % 1010,6 hPa 0,0 l/m 5,9 km/h (2 Bft) W-NW 296 0 min 0,000 mm 1,3 UV-I 282 W/m 2,5 C 8,9 C 12,9 km/h (3 Bft) 96,30 %
22.03.2016 13:27 8,8 C 64 % 1010,6 hPa 0,0 l/m 9,9 km/h (2 Bft) W-NW 294 0 min 0,000 mm 1,3 UV-I 277 W/m 2,4 C 6,3 C 16,1 km/h (3 Bft) 100,00 %
22.03.2016 13:28 8,7 C 65 % 1010,6 hPa 0,0 l/m 9,2 km/h (2 Bft) N-NW 348 0 min 0,000 mm 1,2 UV-I 270 W/m 2,5 C 6,7 C 14,5 km/h (3 Bft) 100,00 %
22.03.2016 13:29 8,6 C 66 % 1010,6 hPa 0,0 l/m 6,8 km/h (2 Bft) W 269 0 min 0,000 mm 1,2 UV-I 264 W/m 2,6 C 8,3 C 12,9 km/h (3 Bft) 100,00 %
22.03.2016 13:30 8,4 C 67 % 1010,6 hPa 0,0 l/m 5,6 km/h (1 Bft) W 278 0 min 0,000 mm 1,1 UV-I 256 W/m 2,6 C 8,4 C 9,7 km/h (2 Bft) 100,00 %
22.03.2016 13:31 8,4 C 67 % 1010,6 hPa 0,0 l/m 5,8 km/h (2 Bft) NW 323 0 min 0,000 mm 1,1 UV-I 254 W/m 2,6 C 8,4 C 12,9 km/h (3 Bft) 100,00 %
22.03.2016 13:32 8,3 C 67 % 1010,6 hPa 0,0 l/m 3,9 km/h (1 Bft) NW 318 0 min 0,000 mm 1,2 UV-I 260 W/m 2,5 C 8,3 C 9,7 km/h (2 Bft) 100,00 %
22.03.2016 13:33 8,3 C 68 % 1010,6 hPa 0,0 l/m 6,0 km/h (2 Bft) NW 319 0 min 0,000 mm 1,2 UV-I 266 W/m 2,7 C 8,3 C 12,9 km/h (3 Bft) 100,00 %
22.03.2016 13:34 8,3 C 67 % 1010,6 hPa 0,0 l/m 9,3 km/h (2 Bft) W-NW 286 0 min 0,000 mm 1,2 UV-I 268 W/m 2,5 C 6,2 C 14,5 km/h (3 Bft) 100,00 %
22.03.2016 13:35 8,3 C 68 % 1010,6 hPa 0,0 l/m 3,9 km/h (1 Bft) W-NW 284 0 min 0,000 mm 1,2 UV-I 269 W/m 2,7 C 8,3 C 4,8 km/h (1 Bft) 100,00 %
22.03.2016 13:36 8,3 C 70 % 1010,6 hPa 0,0 l/m 3,3 km/h (1 Bft) NW 323 0 min 0,000 mm 1,2 UV-I 271 W/m 3,2 C 8,3 C 4,8 km/h (1 Bft) 100,00 %
22.03.2016 13:37 8,3 C 70 % 1010,6 hPa 0,0 l/m 5,7 km/h (1 Bft) SW 215 0 min 0,000 mm 1,2 UV-I 271 W/m 3,2 C 8,3 C 11,3 km/h (2 Bft) 100,00 %
22.03.2016 13:38 8,4 C 68 % 1010,6 hPa 0,0 l/m 2,7 km/h (1 Bft) NW 309 0 min 0,000 mm 1,2 UV-I 270 W/m 2,8 C 8,4 C 4,8 km/h (1 Bft) 100,00 %
22.03.2016 13:39 8,4 C 68 % 1010,6 hPa 0,0 l/m 3,8 km/h (1 Bft) NW 306 0 min 0,000 mm 1,2 UV-I 267 W/m 2,8 C 8,4 C 9,7 km/h (2 Bft) 96,30 %
22.03.2016 13:40 8,4 C 67 % 1010,6 hPa 0,0 l/m 3,7 km/h (1 Bft) W 277 0 min 0,000 mm 1,2 UV-I 262 W/m 2,6 C 8,4 C 8,0 km/h (2 Bft) 98,66 %
22.03.2016 13:41 8,4 C 68 % 1010,6 hPa 0,0 l/m 3,4 km/h (1 Bft) W 261 0 min 0,000 mm 1,1 UV-I 254 W/m 2,8 C 8,4 C 6,4 km/h (2 Bft) 97,56 %
22.03.2016 13:42 8,4 C 67 % 1010,6 hPa 0,0 l/m 3,6 km/h (1 Bft) W-NW 299 0 min 0,000 mm 1,1 UV-I 245 W/m 2,6 C 8,4 C 6,4 km/h (2 Bft) 100,00 %
22.03.2016 13:43 8,4 C 67 % 1010,6 hPa 0,0 l/m 3,9 km/h (1 Bft) W-SW 254 0 min 0,000 mm 1,1 UV-I 236 W/m 2,6 C 8,4 C 11,3 km/h (2 Bft) 100,00 %
22.03.2016 13:44 8,4 C 66 % 1010,6 hPa 0,0 l/m 4,0 km/h (1 Bft) NW 316 0 min 0,000 mm 1,0 UV-I 227 W/m 2,4 C 8,4 C 9,7 km/h (2 Bft) 100,00 %
22.03.2016 13:45 8,4 C 67 % 1010,6 hPa 0,0 l/m 5,8 km/h (2 Bft) W-NW 298 0 min 0,000 mm 1,0 UV-I 220 W/m 2,6 C 8,4 C 12,9 km/h (3 Bft) 100,00 %
22.03.2016 13:46 8,3 C 65 % 1010,6 hPa 0,0 l/m 5,6 km/h (1 Bft) W-NW 300 0 min 0,000 mm 1,0 UV-I 212 W/m 2,1 C 8,3 C 9,7 km/h (2 Bft) 96,30 %
22.03.2016 13:47 8,3 C 67 % 1010,6 hPa 0,0 l/m 7,5 km/h (2 Bft) W-NW 287 0 min 0,000 mm 0,9 UV-I 205 W/m 2,5 C 7,4 C 14,5 km/h (3 Bft) 100,00 %
22.03.2016 13:48 8,2 C 66 % 1010,6 hPa 0,0 l/m 4,2 km/h (1 Bft) W-NW 302 0 min 0,000 mm 0,9 UV-I 200 W/m 2,2 C 8,2 C 9,7 km/h (2 Bft) 100,00 %
22.03.2016 13:49 8,2 C 66 % 1010,6 hPa 0,0 l/m 3,8 km/h (1 Bft) W-NW 288 0 min 0,000 mm 0,9 UV-I 195 W/m 2,2 C 8,2 C 9,7 km/h (2 Bft) 100,00 %
22.03.2016 13:50 8,2 C 66 % 1010,6 hPa 0,0 l/m 4,3 km/h (1 Bft) NW 305 0 min 0,000 mm 0,8 UV-I 195 W/m 2,2 C 8,2 C 12,9 km/h (3 Bft) 100,00 %
22.03.2016 13:51 8,1 C 66 % 1010,6 hPa 0,0 l/m 7,7 km/h (2 Bft) W-NW 285 0 min 0,000 mm 0,8 UV-I 196 W/m 2,1 C 7,1 C 12,9 km/h (3 Bft) 100,00 %
22.03.2016 13:52 8,1 C 67 % 1010,6 hPa 0,0 l/m 1,9 km/h (1 Bft) W-NW 284 0 min 0,000 mm 0,9 UV-I 198 W/m 2,3 C 8,1 C 4,8 km/h (1 Bft) 100,00 %
22.03.2016 13:53 8,1 C 67 % 1010,6 hPa 0,0 l/m 2,8 km/h (1 Bft) W 280 0 min 0,000 mm 0,9 UV-I 201 W/m 2,3 C 8,1 C 6,4 km/h (2 Bft) 100,00 %
22.03.2016 13:54 8,1 C 67 % 1010,6 hPa 0,0 l/m 4,1 km/h (1 Bft) NW 304 0 min 0,000 mm 0,9 UV-I 208 W/m 2,3 C 8,1 C 6,4 km/h (2 Bft) 100,00 %
22.03.2016 13:55 8,1 C 67 % 1010,6 hPa 0,0 l/m 3,0 km/h (1 Bft) NW 319 0 min 0,000 mm 0,9 UV-I 215 W/m 2,3 C 8,1 C 6,4 km/h (2 Bft) 100,00 %
22.03.2016 13:56 8,1 C 68 % 1010,6 hPa 0,0 l/m 1,8 km/h (1 Bft) W-NW 288 0 min 0,000 mm 1,0 UV-I 224 W/m 2,6 C 8,1 C 6,4 km/h (2 Bft) 96,30 %
22.03.2016 13:57 8,2 C 68 % 1010,6 hPa 0,0 l/m 2,1 km/h (1 Bft) W 271 0 min 0,000 mm 1,0 UV-I 232 W/m 2,7 C 8,2 C 9,7 km/h (2 Bft) 95,65 %
22.03.2016 13:58 8,3 C 69 % 1010,6 hPa 0,0 l/m 4,2 km/h (1 Bft) W-SW 252 0 min 0,000 mm 1,0 UV-I 239 W/m 3,0 C 8,3 C 8,0 km/h (2 Bft) 100,00 %
22.03.2016 13:59 8,3 C 66 % 1010,6 hPa 0,0 l/m 5,8 km/h (2 Bft) W 280 0 min 0,000 mm 1,1 UV-I 245 W/m 2,3 C 8,3 C 9,7 km/h (2 Bft) 95,65 %
22.03.2016 14:00 8,3 C 67 % 1010,6 hPa 0,0 l/m 5,5 km/h (1 Bft) W-NW 286 0 min 0,152 mm 1,1 UV-I 251 W/m 2,5 C 8,3 C 9,7 km/h (2 Bft) 100,00 %
22.03.2016 14:02 8,3 C 66 % 1010,5 hPa 0,0 l/m 5,8 km/h (2 Bft) NW 308 0 min 0,000 mm 1,1 UV-I 257 W/m 2,3 C 8,3 C 11,3 km/h (2 Bft) 97,73 %
22.03.2016 14:03 8,3 C 67 % 1010,5 hPa 0,0 l/m 2,2 km/h (1 Bft) W-NW 297 0 min 0,000 mm 1,1 UV-I 258 W/m 2,5 C 8,3 C 3,2 km/h (1 Bft) 95,65 %
22.03.2016 14:04 8,3 C 68 % 1010,5 hPa 0,0 l/m 3,7 km/h (1 Bft) SW 228 0 min 0,000 mm 1,1 UV-I 258 W/m 2,7 C 8,3 C 8,0 km/h (2 Bft) 100,00 %
22.03.2016 14:05 8,4 C 67 % 1010,5 hPa 0,0 l/m 4,7 km/h (1 Bft) W-SW 258 0 min 0,000 mm 1,1 UV-I 260 W/m 2,6 C 8,4 C 8,0 km/h (2 Bft) 96,30 %
22.03.2016 14:06 8,4 C 67 % 1010,5 hPa 0,0 l/m 6,1 km/h (2 Bft) W-SW 243 0 min 0,000 mm 1,1 UV-I 262 W/m 2,6 C 8,4 C 11,3 km/h (2 Bft) 96,15 %
22.03.2016 14:07 8,4 C 67 % 1010,5 hPa 0,0 l/m 15,0 km/h (3 Bft) W-SW 240 0 min 0,000 mm 1,1 UV-I 262 W/m 2,6 C 3,2 C 19,3 km/h (3 Bft) 93,33 %
22.03.2016 14:08 8,4 C 65 % 1010,5 hPa 0,0 l/m 11,3 km/h (2 Bft) W-NW 302 0 min 0,000 mm 1,1 UV-I 258 W/m 2,2 C 5,1 C 16,1 km/h (3 Bft) 96,55 %
22.03.2016 14:09 8,4 C 65 % 1010,5 hPa 0,0 l/m 6,9 km/h (2 Bft) W-SW 248 0 min 0,000 mm 1,1 UV-I 255 W/m 2,2 C 8,0 C 12,9 km/h (3 Bft) 100,00 %
22.03.2016 14:10 8,4 C 64 % 1010,5 hPa 0,0 l/m 5,6 km/h (1 Bft) N-NW 342 0 min 0,000 mm 1,0 UV-I 251 W/m 2,0 C 8,4 C 9,7 km/h (2 Bft) 95,65 %
22.03.2016 14:11 8,3 C 65 % 1010,4 hPa 0,0 l/m 6,2 km/h (2 Bft) W 259 0 min 0,000 mm 1,0 UV-I 246 W/m 2,1 C 8,3 C 9,7 km/h (2 Bft) 100,00 %
22.03.2016 14:12 8,3 C 65 % 1010,4 hPa 0,0 l/m 5,9 km/h (2 Bft) N-NW 341 0 min 0,000 mm 1,0 UV-I 241 W/m 2,1 C 8,3 C 12,9 km/h (3 Bft) 95,65 %
22.03.2016 14:13 8,3 C 65 % 1010,4 hPa 0,0 l/m 5,5 km/h (1 Bft) W-NW 290 0 min 0,000 mm 1,0 UV-I 237 W/m 2,1 C 8,3 C 9,7 km/h (2 Bft) 96,67 %
22.03.2016 14:14 8,3 C 65 % 1010,4 hPa 0,0 l/m 4,7 km/h (1 Bft) W 271 0 min 0,000 mm 0,9 UV-I 233 W/m 2,1 C 8,3 C 6,4 km/h (2 Bft) 100,00 %
22.03.2016 14:15 8,4 C 65 % 1010,4 hPa 0,0 l/m 6,3 km/h (2 Bft) W 261 0 min 0,000 mm 0,9 UV-I 230 W/m 2,2 C 8,4 C 11,3 km/h (2 Bft) 96,30 %
22.03.2016 14:16 8,4 C 65 % 1010,3 hPa 0,0 l/m 6,0 km/h (2 Bft) SW 222 0 min 0,000 mm 0,9 UV-I 231 W/m 2,2 C 8,4 C 9,7 km/h (2 Bft) 100,00 %
22.03.2016 14:17 8,4 C 66 % 1010,3 hPa 0,0 l/m 5,6 km/h (1 Bft) NW 325 0 min 0,000 mm 0,9 UV-I 232 W/m 2,4 C 8,4 C 14,5 km/h (3 Bft) 96,67 %
22.03.2016 14:18 8,4 C 65 % 1010,3 hPa 0,0 l/m 4,7 km/h (1 Bft) W 276 0 min 0,000 mm 0,9 UV-I 234 W/m 2,2 C 8,4 C 6,4 km/h (2 Bft) 100,00 %
22.03.2016 14:19 8,4 C 65 % 1010,4 hPa 0,0 l/m 5,3 km/h (1 Bft) W-NW 302 0 min 0,000 mm 0,9 UV-I 234 W/m 2,2 C 8,4 C 12,9 km/h (3 Bft) 96,30 %
22.03.2016 14:20 8,4 C 65 % 1010,3 hPa 0,0 l/m 1,9 km/h (1 Bft) W-NW 303 0 min 0,000 mm 0,9 UV-I 233 W/m 2,2 C 8,4 C 3,2 km/h (1 Bft) 96,88 %
22.03.2016 14:21 8,4 C 65 % 1010,3 hPa 0,0 l/m 3,1 km/h (1 Bft) W-NW 298 0 min 0,000 mm 0,9 UV-I 231 W/m 2,2 C 8,4 C 4,8 km/h (1 Bft) 100,00 %
22.03.2016 14:22 8,4 C 68 % 1010,3 hPa 0,0 l/m 4,8 km/h (1 Bft) W-NW 288 0 min 0,000 mm 0,9 UV-I 226 W/m 2,8 C 8,4 C 11,3 km/h (2 Bft) 96,30 %
22.03.2016 14:23 8,4 C 67 % 1010,3 hPa 0,0 l/m 6,3 km/h (2 Bft) SW 234 0 min 0,000 mm 0,9 UV-I 219 W/m 2,6 C 8,4 C 9,7 km/h (2 Bft) 96,15 %
22.03.2016 14:24 8,4 C 66 % 1010,3 hPa 0,0 l/m 4,5 km/h (1 Bft) W-SW 257 0 min 0,000 mm 0,8 UV-I 206 W/m 2,4 C 8,4 C 9,7 km/h (2 Bft) 100,00 %
22.03.2016 14:25 8,4 C 66 % 1010,3 hPa 0,0 l/m 11,1 km/h (2 Bft) W-SW 254 0 min 0,000 mm 0,8 UV-I 193 W/m 2,4 C 5,2 C 16,1 km/h (3 Bft) 100,00 %
22.03.2016 14:26 8,4 C 66 % 1010,3 hPa 0,0 l/m 8,4 km/h (2 Bft) W 259 0 min 0,000 mm 0,7 UV-I 178 W/m 2,4 C 6,9 C 11,3 km/h (2 Bft) 98,62 %
22.03.2016 14:27 8,4 C 65 % 1010,3 hPa 0,0 l/m 10,5 km/h (2 Bft) W 271 0 min 0,000 mm 0,7 UV-I 164 W/m 2,2 C 5,5 C 16,1 km/h (3 Bft) 97,56 %
22.03.2016 14:28 8,4 C 64 % 1010,3 hPa 0,0 l/m 10,3 km/h (2 Bft) W 263 0 min 0,000 mm 0,6 UV-I 149 W/m 2,0 C 5,6 C 17,7 km/h (3 Bft) 92,59 %
22.03.2016 14:29 8,3 C 65 % 1010,3 hPa 0,0 l/m 3,6 km/h (1 Bft) W 265 0 min 0,000 mm 0,5 UV-I 133 W/m 2,1 C 8,3 C 6,4 km/h (2 Bft) 95,00 %
22.03.2016 14:30 8,3 C 66 % 1010,4 hPa 0,0 l/m 1,0 km/h (0 Bft) W 265 0 min 0,000 mm 0,5 UV-I 121 W/m 2,3 C 8,3 C 3,2 km/h (1 Bft) 100,00 %
22.03.2016 14:31 8,3 C 66 % 1010,3 hPa 0,0 l/m 2,3 km/h (1 Bft) W-SW 251 0 min 0,000 mm 0,4 UV-I 114 W/m 2,3 C 8,3 C 4,8 km/h (1 Bft) 100,00 %
22.03.2016 14:32 8,3 C 66 % 1010,4 hPa 0,0 l/m 7,8 km/h (2 Bft) W-SW 241 0 min 0,000 mm 0,0 UV-I 107 W/m 2,3 C 7,2 C 12,9 km/h (3 Bft) 100,00 %
22.03.2016 14:33 8,2 C 66 % 1010,3 hPa 0,0 l/m 4,9 km/h (1 Bft) W 272 0 min 0,000 mm 0,0 UV-I 104 W/m 2,2 C 8,2 C 8,0 km/h (2 Bft) 100,00 %
22.03.2016 14:34 8,2 C 66 % 1010,3 hPa 0,0 l/m 8,0 km/h (2 Bft) W-NW 290 0 min 0,000 mm 0,0 UV-I 104 W/m 2,2 C 7,0 C 12,9 km/h (3 Bft) 100,00 %
22.03.2016 14:35 8,2 C 66 % 1010,3 hPa 0,0 l/m 6,7 km/h (2 Bft) W-NW 297 0 min 0,000 mm 0,0 UV-I 107 W/m 2,2 C 8,0 C 11,3 km/h (2 Bft) 100,00 %
22.03.2016 14:36 8,1 C 66 % 1010,3 hPa 0,0 l/m 1,4 km/h (1 Bft) W 266 0 min 0,000 mm 0,0 UV-I 114 W/m 2,1 C 8,1 C 3,2 km/h (1 Bft) 100,00 %
22.03.2016 14:37 8,1 C 66 % 1010,3 hPa 0,0 l/m 2,5 km/h (1 Bft) NW 309 0 min 0,000 mm 0,5 UV-I 121 W/m 2,1 C 8,1 C 4,8 km/h (1 Bft) 95,65 %
22.03.2016 14:38 8,1 C 66 % 1010,3 hPa 0,0 l/m 3,7 km/h (1 Bft) W 269 0 min 0,000 mm 0,5 UV-I 129 W/m 2,1 C 8,1 C 4,8 km/h (1 Bft) 100,00 %
22.03.2016 14:39 8,0 C 66 % 1010,3 hPa 0,0 l/m 4,7 km/h (1 Bft) W 259 0 min 0,000 mm 0,5 UV-I 134 W/m 2,0 C 8,0 C 6,4 km/h (2 Bft) 100,00 %
22.03.2016 14:40 8,0 C 66 % 1010,3 hPa 0,0 l/m 5,0 km/h (1 Bft) W 264 0 min 0,000 mm 0,5 UV-I 138 W/m 2,0 C 8,0 C 8,0 km/h (2 Bft) 100,00 %
22.03.2016 14:41 8,0 C 67 % 1010,3 hPa 0,0 l/m 6,1 km/h (2 Bft) W-SW 239 0 min 0,000 mm 0,5 UV-I 141 W/m 2,3 C 8,0 C 12,9 km/h (3 Bft) 100,00 %
22.03.2016 14:42 8,0 C 67 % 1010,3 hPa 0,0 l/m 5,8 km/h (2 Bft) W 268 0 min 0,000 mm 0,5 UV-I 141 W/m 2,3 C 8,0 C 11,3 km/h (2 Bft) 100,00 %
22.03.2016 14:43 8,0 C 66 % 1010,3 hPa 0,0 l/m 5,8 km/h (2 Bft) W-NW 296 0 min 0,000 mm 0,5 UV-I 143 W/m 2,0 C 8,0 C 11,3 km/h (2 Bft) 100,00 %
22.03.2016 14:44 8,0 C 67 % 1010,3 hPa 0,0 l/m 5,4 km/h (1 Bft) W 269 0 min 0,000 mm 0,5 UV-I 145 W/m 2,3 C 8,0 C 12,9 km/h (3 Bft) 100,00 %
22.03.2016 14:45 8,0 C 68 % 1010,3 hPa 0,0 l/m 5,2 km/h (1 Bft) W-NW 286 0 min 0,000 mm 0,6 UV-I 148 W/m 2,5 C 8,0 C 12,9 km/h (3 Bft) 100,00 %
22.03.2016 14:46 8,1 C 67 % 1010,3 hPa 0,0 l/m 3,7 km/h (1 Bft) W 273 0 min 0,000 mm 0,6 UV-I 154 W/m 2,3 C 8,1 C 6,4 km/h (2 Bft) 100,00 %
22.03.2016 14:47 8,1 C 68 % 1010,3 hPa 0,0 l/m 4,3 km/h (1 Bft) W-SW 248 0 min 0,000 mm 0,6 UV-I 156 W/m 2,6 C 8,1 C 9,7 km/h (2 Bft) 100,00 %
22.03.2016 14:48 8,1 C 67 % 1010,3 hPa 0,0 l/m 3,7 km/h (1 Bft) W-SW 242 0 min 0,000 mm 0,6 UV-I 161 W/m 2,3 C 8,1 C 6,4 km/h (2 Bft) 100,00 %
22.03.2016 14:49 8,1 C 67 % 1010,3 hPa 0,0 l/m 1,6 km/h (1 Bft) W-SW 244 0 min 0,000 mm 0,6 UV-I 162 W/m 2,3 C 8,1 C 3,2 km/h (1 Bft) 100,00 %
22.03.2016 14:50 8,1 C 67 % 1010,3 hPa 0,0 l/m 5,5 km/h (1 Bft) W-NW 288 0 min 0,000 mm 0,6 UV-I 162 W/m 2,3 C 8,1 C 11,3 km/h (2 Bft) 100,00 %
22.03.2016 14:51 8,1 C 67 % 1010,4 hPa 0,0 l/m 6,0 km/h (2 Bft) NW 319 0 min 0,000 mm 0,6 UV-I 166 W/m 2,3 C 8,1 C 11,3 km/h (2 Bft) 100,00 %
22.03.2016 14:52 8,1 C 67 % 1010,3 hPa 0,0 l/m 5,1 km/h (1 Bft) W 271 0 min 0,000 mm 0,6 UV-I 169 W/m 2,3 C 8,1 C 8,0 km/h (2 Bft) 100,00 %
22.03.2016 14:53 8,1 C 66 % 1010,3 hPa 0,0 l/m 6,2 km/h (2 Bft) W-NW 290 0 min 0,000 mm 0,6 UV-I 169 W/m 2,1 C 8,1 C 11,3 km/h (2 Bft) 100,00 %
22.03.2016 14:54 8,0 C 67 % 1010,3 hPa 0,0 l/m 3,8 km/h (1 Bft) W 279 0 min 0,000 mm 0,6 UV-I 170 W/m 2,3 C 8,0 C 12,9 km/h (3 Bft) 100,00 %
22.03.2016 14:55 8,0 C 67 % 1010,3 hPa 0,0 l/m 12,7 km/h (3 Bft) W 259 0 min 0,000 mm 0,6 UV-I 168 W/m 2,3 C 3,8 C 17,7 km/h (3 Bft) 100,00 %
22.03.2016 14:56 8,0 C 66 % 1010,4 hPa 0,0 l/m 8,2 km/h (2 Bft) W 280 0 min 0,000 mm 0,6 UV-I 166 W/m 2,0 C 6,6 C 12,9 km/h (3 Bft) 100,00 %
22.03.2016 14:57 7,9 C 65 % 1010,3 hPa 0,0 l/m 4,6 km/h (1 Bft) NW 309 0 min 0,000 mm 0,6 UV-I 164 W/m 1,7 C 7,9 C 6,4 km/h (2 Bft) 100,00 %
22.03.2016 14:58 7,9 C 66 % 1010,3 hPa 0,0 l/m 7,2 km/h (2 Bft) NW 316 0 min 0,000 mm 0,6 UV-I 160 W/m 1,9 C 7,3 C 11,3 km/h (2 Bft) 100,00 %
22.03.2016 14:59 7,9 C 65 % 1010,4 hPa 0,0 l/m 6,5 km/h (2 Bft) NW 311 0 min 0,000 mm 0,6 UV-I 158 W/m 1,7 C 7,8 C 12,9 km/h (3 Bft) 95,83 %
22.03.2016 15:00 7,9 C 66 % 1010,3 hPa 0,0 l/m 4,4 km/h (1 Bft) W-SW 240 0 min 0,102 mm 0,6 UV-I 157 W/m 1,9 C 7,9 C 6,4 km/h (2 Bft) 100,00 %
22.03.2016 15:01 7,9 C 66 % 1010,3 hPa 0,0 l/m 6,6 km/h (2 Bft) W 263 0 min 0,000 mm 0,5 UV-I 156 W/m 1,9 C 7,8 C 9,7 km/h (2 Bft) 100,00 %
22.03.2016 15:02 7,9 C 66 % 1010,3 hPa 0,0 l/m 9,1 km/h (2 Bft) W-SW 237 0 min 0,000 mm 0,5 UV-I 156 W/m 1,9 C 5,9 C 12,9 km/h (3 Bft) 98,65 %
22.03.2016 15:03 7,8 C 66 % 1010,3 hPa 0,0 l/m 5,1 km/h (1 Bft) NW 321 0 min 0,000 mm 0,5 UV-I 155 W/m 1,9 C 7,8 C 9,7 km/h (2 Bft) 100,00 %
22.03.2016 15:04 7,8 C 66 % 1010,3 hPa 0,0 l/m 5,7 km/h (1 Bft) W 260 0 min 0,000 mm 0,5 UV-I 153 W/m 1,9 C 7,8 C 8,0 km/h (2 Bft) 88,46 %
22.03.2016 15:05 7,8 C 67 % 1010,3 hPa 0,0 l/m 5,7 km/h (1 Bft) SW 229 0 min 0,000 mm 0,5 UV-I 153 W/m 2,1 C 7,8 C 8,0 km/h (2 Bft) 100,00 %
22.03.2016 15:06 7,8 C 67 % 1010,3 hPa 0,0 l/m 4,4 km/h (1 Bft) W-SW 253 0 min 0,000 mm 0,5 UV-I 150 W/m 2,1 C 7,8 C 6,4 km/h (2 Bft) 100,00 %
22.03.2016 15:07 7,8 C 68 % 1010,2 hPa 0,0 l/m 4,5 km/h (1 Bft) W-SW 252 0 min 0,000 mm 0,5 UV-I 149 W/m 2,3 C 7,8 C 8,0 km/h (2 Bft) 100,00 %
22.03.2016 15:08 7,9 C 67 % 1010,3 hPa 0,0 l/m 9,7 km/h (2 Bft) W 266 0 min 0,000 mm 0,5 UV-I 145 W/m 2,2 C 5,5 C 14,5 km/h (3 Bft) 100,00 %
22.03.2016 15:09 7,8 C 66 % 1010,2 hPa 0,0 l/m 8,7 km/h (2 Bft) W 261 0 min 0,000 mm 0,5 UV-I 142 W/m 1,9 C 6,0 C 12,9 km/h (3 Bft) 100,00 %
22.03.2016 15:10 7,8 C 66 % 1010,2 hPa 0,0 l/m 10,5 km/h (2 Bft) W-SW 244 0 min 0,000 mm 0,5 UV-I 137 W/m 1,9 C 4,9 C 14,5 km/h (3 Bft) 100,00 %
22.03.2016 15:11 7,8 C 66 % 1010,2 hPa 0,0 l/m 7,1 km/h (2 Bft) W-SW 249 0 min 0,000 mm 0,5 UV-I 135 W/m 1,9 C 7,2 C 11,3 km/h (2 Bft) 100,00 %
22.03.2016 15:12 7,8 C 66 % 1010,2 hPa 0,0 l/m 6,3 km/h (2 Bft) W 265 0 min 0,000 mm 0,4 UV-I 134 W/m 1,9 C 7,8 C 11,3 km/h (2 Bft) 100,00 %
22.03.2016 15:13 7,8 C 66 % 1010,2 hPa 0,0 l/m 7,4 km/h (2 Bft) W 270 0 min 0,000 mm 0,2 UV-I 135 W/m 1,9 C 7,0 C 9,7 km/h (2 Bft) 100,00 %
22.03.2016 15:14 7,8 C 66 % 1010,2 hPa 0,0 l/m 5,4 km/h (1 Bft) W-SW 247 0 min 0,000 mm 0,5 UV-I 138 W/m 1,9 C 7,8 C 9,7 km/h (2 Bft) 100,00 %
22.03.2016 15:15 7,8 C 66 % 1010,2 hPa 0,0 l/m 4,8 km/h (1 Bft) W-SW 246 0 min 0,000 mm 0,5 UV-I 142 W/m 1,9 C 7,8 C 6,4 km/h (2 Bft) 100,00 %
22.03.2016 15:16 7,8 C 67 % 1010,2 hPa 0,0 l/m 10,0 km/h (2 Bft) W 271 0 min 0,000 mm 0,5 UV-I 147 W/m 2,1 C 5,2 C 12,9 km/h (3 Bft) 100,00 %
22.03.2016 15:17 7,8 C 67 % 1010,2 hPa 0,0 l/m 3,7 km/h (1 Bft) W 263 0 min 0,000 mm 0,5 UV-I 152 W/m 2,1 C 7,8 C 9,7 km/h (2 Bft) 96,15 %
22.03.2016 15:18 7,8 C 68 % 1010,2 hPa 0,0 l/m 6,1 km/h (2 Bft) W-SW 253 0 min 0,000 mm 0,5 UV-I 155 W/m 2,3 C 7,8 C 12,9 km/h (3 Bft) 100,00 %
22.03.2016 15:19 7,8 C 67 % 1010,2 hPa 0,0 l/m 6,8 km/h (2 Bft) W 261 0 min 0,000 mm 0,5 UV-I 156 W/m 2,1 C 7,5 C 12,9 km/h (3 Bft) 100,00 %
22.03.2016 15:20 7,8 C 65 % 1010,2 hPa 0,0 l/m 8,0 km/h (2 Bft) W-SW 258 0 min 0,000 mm 0,5 UV-I 155 W/m 1,6 C 6,5 C 12,9 km/h (3 Bft) 100,00 %
22.03.2016 15:21 7,8 C 66 % 1010,2 hPa 0,0 l/m 6,3 km/h (2 Bft) W 265 0 min 0,000 mm 0,5 UV-I 152 W/m 1,9 C 7,8 C 11,3 km/h (2 Bft) 96,55 %
22.03.2016 15:22 7,9 C 66 % 1010,2 hPa 0,0 l/m 5,8 km/h (2 Bft) W 269 0 min 0,000 mm 0,5 UV-I 149 W/m 1,9 C 7,9 C 9,7 km/h (2 Bft) 100,00 %
22.03.2016 15:23 7,8 C 64 % 1010,2 hPa 0,0 l/m 11,4 km/h (2 Bft) W 276 0 min 0,000 mm 0,5 UV-I 148 W/m 1,4 C 4,3 C 14,5 km/h (3 Bft) 100,00 %
22.03.2016 15:24 7,8 C 64 % 1010,2 hPa 0,0 l/m 5,5 km/h (1 Bft) W-NW 292 0 min 0,000 mm 0,5 UV-I 144 W/m 1,4 C 7,8 C 12,9 km/h (3 Bft) 100,00 %
22.03.2016 15:25 7,9 C 63 % 1010,2 hPa 0,0 l/m 2,9 km/h (1 Bft) W-NW 284 0 min 0,000 mm 0,3 UV-I 141 W/m 1,3 C 7,9 C 4,8 km/h (1 Bft) 100,00 %
22.03.2016 15:26 7,9 C 63 % 1010,2 hPa 0,0 l/m 4,6 km/h (1 Bft) W 274 0 min 0,000 mm 0,0 UV-I 137 W/m 1,3 C 7,9 C 9,7 km/h (2 Bft) 91,67 %
22.03.2016 15:27 7,9 C 63 % 1010,2 hPa 0,0 l/m 4,8 km/h (1 Bft) W 281 0 min 0,000 mm 0,0 UV-I 131 W/m 1,3 C 7,9 C 11,3 km/h (2 Bft) 100,00 %
22.03.2016 15:28 7,9 C 63 % 1010,2 hPa 0,0 l/m 9,2 km/h (2 Bft) W-NW 297 0 min 0,000 mm 0,0 UV-I 124 W/m 1,3 C 5,8 C 12,9 km/h (3 Bft) 100,00 %
22.03.2016 15:29 7,9 C 63 % 1010,2 hPa 0,0 l/m 7,5 km/h (2 Bft) W 272 0 min 0,000 mm 0,0 UV-I 116 W/m 1,3 C 7,0 C 11,3 km/h (2 Bft) 100,00 %
22.03.2016 15:30 7,8 C 63 % 1010,2 hPa 0,0 l/m 5,3 km/h (1 Bft) W-NW 288 0 min 0,000 mm 0,0 UV-I 110 W/m 1,2 C 7,8 C 9,7 km/h (2 Bft) 100,00 %
22.03.2016 15:31 7,8 C 64 % 1010,2 hPa 0,0 l/m 5,7 km/h (1 Bft) W 267 0 min 0,000 mm 0,0 UV-I 104 W/m 1,4 C 7,8 C 11,3 km/h (2 Bft) 100,00 %
22.03.2016 15:32 7,8 C 64 % 1010,2 hPa 0,0 l/m 5,2 km/h (1 Bft) W-NW 285 0 min 0,000 mm 0,0 UV-I 99 W/m 1,4 C 7,8 C 6,4 km/h (2 Bft) 100,00 %
22.03.2016 15:33 7,8 C 65 % 1010,2 hPa 0,0 l/m 7,8 km/h (2 Bft) W 272 0 min 0,000 mm 0,0 UV-I 92 W/m 1,6 C 6,7 C 14,5 km/h (3 Bft) 100,00 %
22.03.2016 15:34 7,8 C 64 % 1010,2 hPa 0,0 l/m 8,5 km/h (2 Bft) W 266 0 min 0,000 mm 0,0 UV-I 85 W/m 1,4 C 6,2 C 16,1 km/h (3 Bft) 100,00 %
22.03.2016 15:35 7,8 C 63 % 1010,2 hPa 0,0 l/m 4,1 km/h (1 Bft) W 266 0 min 0,000 mm 0,0 UV-I 80 W/m 1,2 C 7,8 C 6,4 km/h (2 Bft) 100,00 %
22.03.2016 15:36 7,8 C 63 % 1010,2 hPa 0,0 l/m 6,7 km/h (2 Bft) W 270 0 min 0,000 mm 0,0 UV-I 77 W/m 1,2 C 7,6 C 16,1 km/h (3 Bft) 100,00 %
22.03.2016 15:37 7,8 C 62 % 1010,2 hPa 0,0 l/m 7,0 km/h (2 Bft) W-NW 296 0 min 0,000 mm 0,0 UV-I 75 W/m 1,0 C 7,3 C 12,9 km/h (3 Bft) 100,00 %
22.03.2016 15:38 7,8 C 62 % 1010,2 hPa 0,0 l/m 8,8 km/h (2 Bft) W-SW 252 0 min 0,000 mm 0,0 UV-I 74 W/m 1,0 C 6,0 C 11,3 km/h (2 Bft) 100,00 %
22.03.2016 15:39 7,8 C 62 % 1010,1 hPa 0,0 l/m 3,8 km/h (1 Bft) W 275 0 min 0,000 mm 0,0 UV-I 74 W/m 1,0 C 7,8 C 6,4 km/h (2 Bft) 100,00 %
22.03.2016 15:40 7,8 C 62 % 1010,1 hPa 0,0 l/m 6,5 km/h (2 Bft) W-SW 248 0 min 0,000 mm 0,0 UV-I 76 W/m 1,0 C 7,7 C 12,9 km/h (3 Bft) 100,00 %
22.03.2016 15:41 7,7 C 62 % 1010,1 hPa 0,0 l/m 6,2 km/h (2 Bft) W 279 0 min 0,000 mm 0,0 UV-I 76 W/m 0,9 C 7,7 C 12,9 km/h (3 Bft) 100,00 %
22.03.2016 15:42 7,7 C 62 % 1010,1 hPa 0,0 l/m 8,2 km/h (2 Bft) W 259 0 min 0,000 mm 0,0 UV-I 77 W/m 0,9 C 6,3 C 12,9 km/h (3 Bft) 96,15 %
22.03.2016 15:43 7,7 C 63 % 1010,1 hPa 0,0 l/m 3,7 km/h (1 Bft) W-SW 258 0 min 0,000 mm 0,0 UV-I 77 W/m 1,1 C 7,7 C 6,4 km/h (2 Bft) 100,00 %
22.03.2016 15:44 7,7 C 64 % 1010,1 hPa 0,0 l/m 3,4 km/h (1 Bft) W-NW 286 0 min 0,000 mm 0,0 UV-I 77 W/m 1,3 C 7,7 C 6,4 km/h (2 Bft) 100,00 %
22.03.2016 15:45 7,7 C 64 % 1010,1 hPa 0,0 l/m 6,1 km/h (2 Bft) W 266 0 min 0,000 mm 0,0 UV-I 79 W/m 1,3 C 7,7 C 8,0 km/h (2 Bft) 100,00 %
22.03.2016 15:46 7,7 C 63 % 1010,1 hPa 0,0 l/m 3,2 km/h (1 Bft) W 262 0 min 0,000 mm 0,0 UV-I 83 W/m 1,1 C 7,7 C 4,8 km/h (1 Bft) 100,00 %
22.03.2016 15:47 7,7 C 64 % 1010,1 hPa 0,0 l/m 4,8 km/h (1 Bft) W 259 0 min 0,000 mm 0,0 UV-I 87 W/m 1,3 C 7,7 C 6,4 km/h (2 Bft) 100,00 %
22.03.2016 15:48 7,7 C 64 % 1010,1 hPa 0,0 l/m 5,9 km/h (2 Bft) W-SW 250 0 min 0,000 mm 0,0 UV-I 91 W/m 1,3 C 7,7 C 8,0 km/h (2 Bft) 100,00 %
22.03.2016 15:49 7,6 C 64 % 1010,1 hPa 0,0 l/m 5,8 km/h (2 Bft) W 267 0 min 0,000 mm 0,0 UV-I 94 W/m 1,2 C 7,6 C 9,7 km/h (2 Bft) 100,00 %
22.03.2016 15:50 7,6 C 64 % 1010,1 hPa 0,0 l/m 10,1 km/h (2 Bft) W 275 0 min 0,000 mm 0,0 UV-I 96 W/m 1,2 C 4,9 C 12,9 km/h (3 Bft) 100,00 %
22.03.2016 15:51 7,7 C 64 % 1010,1 hPa 0,0 l/m 11,3 km/h (2 Bft) W-SW 254 0 min 0,000 mm 0,0 UV-I 98 W/m 1,3 C 4,3 C 14,5 km/h (3 Bft) 100,00 %
22.03.2016 15:52 7,7 C 64 % 1010,1 hPa 0,0 l/m 9,4 km/h (2 Bft) W-SW 245 0 min 0,000 mm 0,0 UV-I 98 W/m 1,3 C 5,4 C 12,9 km/h (3 Bft) 100,00 %
22.03.2016 15:53 7,7 C 64 % 1010,1 hPa 0,0 l/m 10,9 km/h (2 Bft) W 263 0 min 0,000 mm 0,0 UV-I 98 W/m 1,3 C 4,5 C 14,5 km/h (3 Bft) 100,00 %
22.03.2016 15:54 7,7 C 64 % 1010,1 hPa 0,0 l/m 11,1 km/h (2 Bft) W-SW 242 0 min 0,000 mm 0,0 UV-I 98 W/m 1,3 C 4,4 C 16,1 km/h (3 Bft) 100,00 %
22.03.2016 15:55 7,7 C 63 % 1010,1 hPa 0,0 l/m 11,5 km/h (2 Bft) W 259 0 min 0,000 mm 0,0 UV-I 98 W/m 1,1 C 4,1 C 14,5 km/h (3 Bft) 100,00 %
22.03.2016 15:56 7,7 C 63 % 1010,1 hPa 0,0 l/m 8,8 km/h (2 Bft) W-NW 286 0 min 0,000 mm 0,0 UV-I 98 W/m 1,1 C 5,9 C 11,3 km/h (2 Bft) 96,67 %
22.03.2016 15:57 7,7 C 64 % 1010,1 hPa 0,0 l/m 8,2 km/h (2 Bft) W 264 0 min 0,000 mm 0,0 UV-I 100 W/m 1,3 C 6,3 C 12,9 km/h (3 Bft) 92,31 %
22.03.2016 15:58 7,7 C 64 % 1010,0 hPa 0,0 l/m 8,7 km/h (2 Bft) W 269 0 min 0,000 mm 0,0 UV-I 105 W/m 1,3 C 5,9 C 14,5 km/h (3 Bft) 100,00 %
22.03.2016 15:59 7,7 C 64 % 1010,0 hPa 0,0 l/m 7,3 km/h (2 Bft) W 276 0 min 0,000 mm 0,0 UV-I 108 W/m 1,3 C 7,0 C 11,3 km/h (2 Bft) 95,65 %
22.03.2016 16:00 7,7 C 64 % 1010,0 hPa 0,0 l/m 5,7 km/h (1 Bft) W-SW 238 0 min 0,000 mm 0,0 UV-I 113 W/m 1,3 C 7,7 C 6,4 km/h (2 Bft) 100,00 %
22.03.2016 16:02 7,7 C 64 % 1009,9 hPa 0,0 l/m 5,9 km/h (2 Bft) W 259 0 min 0,076 mm 0,0 UV-I 120 W/m 1,3 C 7,7 C 11,3 km/h (2 Bft) 98,11 %
22.03.2016 16:03 7,7 C 64 % 1010,0 hPa 0,0 l/m 4,9 km/h (1 Bft) W 265 0 min 0,000 mm 0,0 UV-I 124 W/m 1,3 C 7,7 C 9,7 km/h (2 Bft) 93,33 %
22.03.2016 16:04 7,7 C 64 % 1010,0 hPa 0,0 l/m 2,9 km/h (1 Bft) W-SW 254 0 min 0,000 mm 0,0 UV-I 128 W/m 1,3 C 7,7 C 4,8 km/h (1 Bft) 95,65 %
22.03.2016 16:05 7,8 C 64 % 1009,9 hPa 0,0 l/m 5,0 km/h (1 Bft) W-SW 238 0 min 0,000 mm 0,0 UV-I 128 W/m 1,4 C 7,8 C 6,4 km/h (2 Bft) 96,30 %
22.03.2016 16:06 7,8 C 65 % 1010,0 hPa 0,0 l/m 3,9 km/h (1 Bft) W 281 0 min 0,000 mm 0,0 UV-I 126 W/m 1,6 C 7,8 C 4,8 km/h (1 Bft) 96,15 %
22.03.2016 16:07 7,8 C 65 % 1010,0 hPa 0,0 l/m 4,4 km/h (1 Bft) W 266 0 min 0,000 mm 0,0 UV-I 121 W/m 1,6 C 7,8 C 6,4 km/h (2 Bft) 100,00 %
22.03.2016 16:08 7,8 C 65 % 1010,0 hPa 0,0 l/m 6,4 km/h (2 Bft) W 262 0 min 0,000 mm 0,0 UV-I 115 W/m 1,6 C 7,8 C 9,7 km/h (2 Bft) 96,55 %
22.03.2016 16:09 7,8 C 65 % 1009,9 hPa 0,0 l/m 5,8 km/h (2 Bft) W-NW 284 0 min 0,000 mm 0,0 UV-I 109 W/m 1,6 C 7,8 C 9,7 km/h (2 Bft) 100,00 %
22.03.2016 16:10 7,8 C 65 % 1009,9 hPa 0,0 l/m 8,6 km/h (2 Bft) W-SW 247 0 min 0,000 mm 0,0 UV-I 102 W/m 1,6 C 6,1 C 12,9 km/h (3 Bft) 95,65 %
22.03.2016 16:11 7,8 C 64 % 1009,9 hPa 0,0 l/m 4,5 km/h (1 Bft) W 261 0 min 0,000 mm 0,0 UV-I 93 W/m 1,4 C 7,8 C 6,4 km/h (2 Bft) 100,00 %
22.03.2016 16:12 7,8 C 64 % 1009,9 hPa 0,0 l/m 8,6 km/h (2 Bft) W 273 0 min 0,000 mm 0,0 UV-I 87 W/m 1,4 C 6,1 C 12,9 km/h (3 Bft) 96,15 %
22.03.2016 16:13 7,8 C 64 % 1009,9 hPa 0,0 l/m 6,0 km/h (2 Bft) W 260 0 min 0,000 mm 0,0 UV-I 78 W/m 1,4 C 7,8 C 9,7 km/h (2 Bft) 96,30 %
22.03.2016 16:14 7,7 C 65 % 1009,9 hPa 0,0 l/m 3,8 km/h (1 Bft) W-NW 290 0 min 0,000 mm 0,0 UV-I 73 W/m 1,5 C 7,7 C 6,4 km/h (2 Bft) 100,00 %
22.03.2016 16:15 7,7 C 65 % 1009,9 hPa 0,0 l/m 4,4 km/h (1 Bft) W-SW 257 0 min 0,000 mm 0,0 UV-I 64 W/m 1,5 C 7,7 C 9,7 km/h (2 Bft) 100,00 %
22.03.2016 16:16 7,7 C 65 % 1009,9 hPa 0,0 l/m 5,9 km/h (2 Bft) W-SW 238 0 min 0,000 mm 0,0 UV-I 59 W/m 1,5 C 7,7 C 11,3 km/h (2 Bft) 89,29 %
22.03.2016 16:17 7,7 C 65 % 1009,9 hPa 0,0 l/m 5,8 km/h (2 Bft) W-SW 257 0 min 0,000 mm 0,0 UV-I 55 W/m 1,5 C 7,7 C 8,0 km/h (2 Bft) 96,30 %
22.03.2016 16:18 7,7 C 66 % 1009,9 hPa 0,0 l/m 7,2 km/h (2 Bft) W 261 0 min 0,000 mm 0,0 UV-I 51 W/m 1,8 C 7,1 C 11,3 km/h (2 Bft) 98,65 %
22.03.2016 16:19 7,7 C 64 % 1009,9 hPa 0,0 l/m 5,7 km/h (1 Bft) SW 233 0 min 0,000 mm 0,0 UV-I 48 W/m 1,3 C 7,7 C 11,3 km/h (2 Bft) 100,00 %
22.03.2016 16:20 7,7 C 64 % 1009,9 hPa 0,0 l/m 6,8 km/h (2 Bft) W-NW 295 0 min 0,000 mm 0,0 UV-I 47 W/m 1,3 C 7,4 C 9,7 km/h (2 Bft) 93,33 %
22.03.2016 16:21 7,7 C 65 % 1009,9 hPa 0,0 l/m 9,2 km/h (2 Bft) W-SW 257 0 min 0,000 mm 0,0 UV-I 47 W/m 1,5 C 5,6 C 12,9 km/h (3 Bft) 96,15 %
22.03.2016 16:22 7,6 C 65 % 1009,9 hPa 0,0 l/m 9,7 km/h (2 Bft) W-SW 244 0 min 0,000 mm 0,0 UV-I 46 W/m 1,5 C 5,1 C 12,9 km/h (3 Bft) 96,30 %
22.03.2016 16:23 7,6 C 66 % 1009,9 hPa 0,0 l/m 8,5 km/h (2 Bft) W 270 0 min 0,000 mm 0,0 UV-I 44 W/m 1,7 C 6,0 C 12,9 km/h (3 Bft) 95,65 %
22.03.2016 16:24 7,6 C 66 % 1009,9 hPa 0,0 l/m 8,9 km/h (2 Bft) W-SW 256 0 min 0,000 mm 0,0 UV-I 41 W/m 1,7 C 5,7 C 11,3 km/h (2 Bft) 95,83 %
22.03.2016 16:25 7,6 C 66 % 1010,0 hPa 0,0 l/m 8,7 km/h (2 Bft) W 271 0 min 0,000 mm 0,0 UV-I 40 W/m 1,7 C 5,8 C 12,9 km/h (3 Bft) 100,00 %
22.03.2016 16:26 7,6 C 66 % 1010,0 hPa 0,0 l/m 7,1 km/h (2 Bft) W-SW 252 0 min 0,000 mm 0,0 UV-I 39 W/m 1,7 C 7,0 C 11,3 km/h (2 Bft) 91,67 %
22.03.2016 16:27 7,6 C 66 % 1010,0 hPa 0,0 l/m 10,8 km/h (2 Bft) SW 223 0 min 0,000 mm 0,0 UV-I 37 W/m 1,7 C 4,4 C 19,3 km/h (3 Bft) 100,00 %
22.03.2016 16:28 7,6 C 65 % 1010,0 hPa 0,0 l/m 9,2 km/h (2 Bft) W 267 0 min 0,000 mm 0,0 UV-I 34 W/m 1,5 C 5,5 C 17,7 km/h (3 Bft) 100,00 %
22.03.2016 16:29 7,6 C 65 % 1010,0 hPa 0,0 l/m 9,0 km/h (2 Bft) W-SW 256 0 min 0,000 mm 0,0 UV-I 33 W/m 1,5 C 5,6 C 12,9 km/h (3 Bft) 100,00 %
22.03.2016 16:30 7,5 C 65 % 1009,9 hPa 0,0 l/m 7,6 km/h (2 Bft) W-NW 293 0 min 0,000 mm 0,0 UV-I 32 W/m 1,4 C 6,5 C 11,3 km/h (2 Bft) 98,62 %
22.03.2016 16:31 7,5 C 65 % 1010,0 hPa 0,0 l/m 3,5 km/h (1 Bft) W-NW 284 0 min 0,000 mm 0,0 UV-I 32 W/m 1,4 C 7,5 C 6,4 km/h (2 Bft) 97,37 %
22.03.2016 16:32 7,5 C 65 % 1009,9 hPa 0,0 l/m 5,6 km/h (1 Bft) W 261 0 min 0,000 mm 0,0 UV-I 32 W/m 1,4 C 7,5 C 11,3 km/h (2 Bft) 100,00 %
22.03.2016 16:33 7,5 C 66 % 1010,0 hPa 0,0 l/m 7,5 km/h (2 Bft) W 273 0 min 0,000 mm 0,0 UV-I 32 W/m 1,6 C 6,6 C 11,3 km/h (2 Bft) 91,30 %
22.03.2016 16:34 7,5 C 66 % 1010,0 hPa 0,0 l/m 6,7 km/h (2 Bft) SW 231 0 min 0,000 mm 0,0 UV-I 32 W/m 1,6 C 7,3 C 9,7 km/h (2 Bft) 96,67 %
22.03.2016 16:35 7,4 C 66 % 1010,0 hPa 0,0 l/m 9,7 km/h (2 Bft) W 260 0 min 0,000 mm 0,0 UV-I 32 W/m 1,5 C 4,9 C 14,5 km/h (3 Bft) 100,00 %
22.03.2016 16:36 7,4 C 62 % 1009,9 hPa 0,0 l/m 5,2 km/h (1 Bft) W 263 0 min 0,000 mm 0,0 UV-I 36 W/m 0,6 C 7,4 C 6,4 km/h (2 Bft) 100,00 %
22.03.2016 16:37 7,3 C 62 % 1009,9 hPa 0,0 l/m 4,9 km/h (1 Bft) NW 310 0 min 0,000 mm 0,0 UV-I 40 W/m 0,5 C 7,3 C 9,7 km/h (2 Bft) 100,00 %
22.03.2016 16:38 7,3 C 63 % 1009,9 hPa 0,0 l/m 5,3 km/h (1 Bft) W-SW 244 0 min 0,000 mm 0,0 UV-I 46 W/m 0,7 C 7,3 C 11,3 km/h (2 Bft) 100,00 %
22.03.2016 16:39 7,2 C 64 % 1009,9 hPa 0,0 l/m 7,6 km/h (2 Bft) W-NW 289 0 min 0,000 mm 0,0 UV-I 52 W/m 0,9 C 6,2 C 11,3 km/h (2 Bft) 100,00 %
22.03.2016 16:40 7,2 C 62 % 1009,9 hPa 0,0 l/m 6,0 km/h (2 Bft) W-SW 250 0 min 0,000 mm 0,0 UV-I 55 W/m 0,4 C 7,2 C 9,7 km/h (2 Bft) 100,00 %
22.03.2016 16:41 7,2 C 63 % 1010,0 hPa 0,0 l/m 6,3 km/h (2 Bft) W-SW 257 0 min 0,000 mm 0,0 UV-I 56 W/m 0,6 C 7,2 C 8,0 km/h (2 Bft) 100,00 %
22.03.2016 16:42 7,2 C 64 % 1009,9 hPa 0,0 l/m 5,7 km/h (1 Bft) W-SW 241 0 min 0,000 mm 0,0 UV-I 54 W/m 0,9 C 7,2 C 9,7 km/h (2 Bft) 100,00 %
22.03.2016 16:43 7,1 C 65 % 1009,9 hPa 0,0 l/m 7,4 km/h (2 Bft) W-SW 251 0 min 0,000 mm 0,0 UV-I 53 W/m 1,0 C 6,3 C 11,3 km/h (2 Bft) 100,00 %
22.03.2016 16:44 7,1 C 64 % 1009,9 hPa 0,0 l/m 10,3 km/h (2 Bft) W 260 0 min 0,000 mm 0,0 UV-I 51 W/m 0,8 C 4,2 C 14,5 km/h (3 Bft) 100,00 %
22.03.2016 16:45 7,1 C 63 % 1009,9 hPa 0,0 l/m 10,9 km/h (2 Bft) W-SW 251 0 min 0,000 mm 0,0 UV-I 50 W/m 0,5 C 3,8 C 14,5 km/h (3 Bft) 100,00 %
22.03.2016 16:46 7,1 C 64 % 1009,9 hPa 0,0 l/m 10,2 km/h (2 Bft) NW 304 0 min 0,000 mm 0,0 UV-I 49 W/m 0,8 C 4,3 C 12,9 km/h (3 Bft) 100,00 %
22.03.2016 16:47 7,1 C 64 % 1009,9 hPa 0,0 l/m 6,9 km/h (2 Bft) W-SW 242 0 min 0,000 mm 0,0 UV-I 49 W/m 0,8 C 6,7 C 9,7 km/h (2 Bft) 100,00 %
22.03.2016 16:48 7,0 C 63 % 1009,9 hPa 0,0 l/m 9,0 km/h (2 Bft) SW 232 0 min 0,000 mm 0,0 UV-I 49 W/m 0,4 C 5,0 C 11,3 km/h (2 Bft) 100,00 %
22.03.2016 16:49 7,0 C 64 % 1009,9 hPa 0,0 l/m 9,7 km/h (2 Bft) W-SW 238 0 min 0,000 mm 0,0 UV-I 49 W/m 0,7 C 4,5 C 12,9 km/h (3 Bft) 100,00 %
22.03.2016 16:50 6,9 C 64 % 1009,9 hPa 0,0 l/m 7,6 km/h (2 Bft) SW 225 0 min 0,000 mm 0,0 UV-I 49 W/m 0,6 C 5,9 C 11,3 km/h (2 Bft) 100,00 %
22.03.2016 16:51 6,9 C 64 % 1009,9 hPa 0,0 l/m 8,3 km/h (2 Bft) SW 225 0 min 0,000 mm 0,0 UV-I 48 W/m 0,6 C 5,4 C 11,3 km/h (2 Bft) 100,00 %
22.03.2016 16:52 6,9 C 64 % 1009,9 hPa 0,0 l/m 7,1 km/h (2 Bft) W-SW 238 0 min 0,000 mm 0,0 UV-I 47 W/m 0,6 C 6,3 C 11,3 km/h (2 Bft) 100,00 %
22.03.2016 16:53 6,9 C 65 % 1009,9 hPa 0,0 l/m 6,3 km/h (2 Bft) W-SW 248 0 min 0,000 mm 0,0 UV-I 46 W/m 0,8 C 6,9 C 8,0 km/h (2 Bft) 100,00 %
22.03.2016 16:54 6,9 C 66 % 1009,9 hPa 0,0 l/m 6,6 km/h (2 Bft) W-SW 248 0 min 0,000 mm 0,0 UV-I 46 W/m 1,0 C 6,8 C 11,3 km/h (2 Bft) 100,00 %
22.03.2016 16:55 6,8 C 66 % 1009,9 hPa 0,0 l/m 5,7 km/h (1 Bft) W-SW 247 0 min 0,000 mm 0,0 UV-I 46 W/m 0,9 C 6,8 C 9,7 km/h (2 Bft) 100,00 %
22.03.2016 16:56 6,8 C 66 % 1009,9 hPa 0,0 l/m 5,9 km/h (2 Bft) SW 217 0 min 0,000 mm 0,0 UV-I 46 W/m 0,9 C 6,8 C 8,0 km/h (2 Bft) 100,00 %
22.03.2016 16:57 6,8 C 66 % 1009,9 hPa 0,0 l/m 5,3 km/h (1 Bft) SW 234 0 min 0,000 mm 0,0 UV-I 46 W/m 0,9 C 6,8 C 6,4 km/h (2 Bft) 100,00 %
22.03.2016 16:58 6,8 C 66 % 1009,9 hPa 0,0 l/m 5,6 km/h (1 Bft) W-SW 244 0 min 0,000 mm 0,0 UV-I 46 W/m 0,9 C 6,8 C 8,0 km/h (2 Bft) 100,00 %
22.03.2016 16:59 6,8 C 67 % 1009,9 hPa 0,0 l/m 6,0 km/h (2 Bft) W-SW 240 0 min 0,000 mm 0,0 UV-I 46 W/m 1,1 C 6,8 C 8,0 km/h (2 Bft) 100,00 %
22.03.2016 17:00 6,8 C 67 % 1009,9 hPa 0,0 l/m 5,1 km/h (1 Bft) W-SW 242 0 min 0,051 mm 0,0 UV-I 46 W/m 1,1 C 6,8 C 8,0 km/h (2 Bft) 100,00 %
22.03.2016 17:01 6,8 C 68 % 1009,9 hPa 0,0 l/m 4,1 km/h (1 Bft) SW 231 0 min 0,000 mm 0,0 UV-I 46 W/m 1,3 C 6,8 C 4,8 km/h (1 Bft) 100,00 %
22.03.2016 17:02 6,8 C 68 % 1009,9 hPa 0,0 l/m 4,9 km/h (1 Bft) W 259 0 min 0,000 mm 0,0 UV-I 44 W/m 1,3 C 6,8 C 6,4 km/h (2 Bft) 100,00 %
22.03.2016 17:03 6,8 C 68 % 1009,9 hPa 0,0 l/m 6,6 km/h (2 Bft) W-SW 248 0 min 0,000 mm 0,0 UV-I 44 W/m 1,3 C 6,7 C 8,0 km/h (2 Bft) 100,00 %
22.03.2016 17:04 6,8 C 68 % 1009,8 hPa 0,0 l/m 5,8 km/h (2 Bft) W-SW 246 0 min 0,000 mm 0,0 UV-I 44 W/m 1,3 C 6,8 C 8,0 km/h (2 Bft) 100,00 %
22.03.2016 17:05 6,8 C 68 % 1009,8 hPa 0,0 l/m 6,5 km/h (2 Bft) SW 230 0 min 0,000 mm 0,0 UV-I 44 W/m 1,3 C 6,7 C 9,7 km/h (2 Bft) 100,00 %
22.03.2016 17:06 6,8 C 69 % 1009,9 hPa 0,0 l/m 6,1 km/h (2 Bft) W-SW 242 0 min 0,000 mm 0,0 UV-I 45 W/m 1,5 C 6,8 C 9,7 km/h (2 Bft) 100,00 %
22.03.2016 17:07 6,8 C 69 % 1009,8 hPa 0,0 l/m 5,4 km/h (1 Bft) SW 227 0 min 0,000 mm 0,0 UV-I 47 W/m 1,5 C 6,8 C 6,4 km/h (2 Bft) 97,37 %
22.03.2016 17:08 6,8 C 69 % 1009,8 hPa 0,0 l/m 5,1 km/h (1 Bft) SW 223 0 min 0,000 mm 0,0 UV-I 49 W/m 1,5 C 6,8 C 6,4 km/h (2 Bft) 100,00 %
22.03.2016 17:09 6,8 C 69 % 1009,8 hPa 0,0 l/m 4,5 km/h (1 Bft) SW 217 0 min 0,000 mm 0,0 UV-I 49 W/m 1,5 C 6,8 C 6,4 km/h (2 Bft) 100,00 %
22.03.2016 17:10 6,8 C 70 % 1009,9 hPa 0,0 l/m 4,7 km/h (1 Bft) W-SW 237 0 min 0,000 mm 0,0 UV-I 49 W/m 1,7 C 6,8 C 6,4 km/h (2 Bft) 100,00 %
22.03.2016 17:11 6,7 C 70 % 1009,8 hPa 0,0 l/m 5,3 km/h (1 Bft) SW 234 0 min 0,000 mm 0,0 UV-I 49 W/m 1,6 C 6,7 C 6,4 km/h (2 Bft) 100,00 %
22.03.2016 17:12 6,7 C 70 % 1009,8 hPa 0,0 l/m 5,1 km/h (1 Bft) SW 229 0 min 0,000 mm 0,0 UV-I 50 W/m 1,6 C 6,7 C 6,4 km/h (2 Bft) 100,00 %
22.03.2016 17:13 6,7 C 70 % 1009,8 hPa 0,0 l/m 4,6 km/h (1 Bft) W-SW 246 0 min 0,000 mm 0,0 UV-I 54 W/m 1,6 C 6,7 C 8,0 km/h (2 Bft) 100,00 %
22.03.2016 17:14 6,7 C 70 % 1009,9 hPa 0,0 l/m 4,8 km/h (1 Bft) S-SW 209 0 min 0,000 mm 0,0 UV-I 57 W/m 1,6 C 6,7 C 6,4 km/h (2 Bft) 100,00 %
22.03.2016 17:15 6,7 C 70 % 1009,9 hPa 0,0 l/m 5,8 km/h (2 Bft) SW 234 0 min 0,000 mm 0,0 UV-I 61 W/m 1,6 C 6,7 C 8,0 km/h (2 Bft) 100,00 %
22.03.2016 17:16 6,7 C 70 % 1009,8 hPa 0,0 l/m 6,9 km/h (2 Bft) S 190 0 min 0,000 mm 0,0 UV-I 62 W/m 1,6 C 6,3 C 9,7 km/h (2 Bft) 100,00 %
22.03.2016 17:17 6,7 C 70 % 1009,9 hPa 0,0 l/m 3,7 km/h (1 Bft) SW 215 0 min 0,000 mm 0,0 UV-I 61 W/m 1,6 C 6,7 C 6,4 km/h (2 Bft) 100,00 %
22.03.2016 17:18 6,7 C 69 % 1009,8 hPa 0,0 l/m 3,6 km/h (1 Bft) S-SW 205 0 min 0,000 mm 0,0 UV-I 58 W/m 1,4 C 6,7 C 6,4 km/h (2 Bft) 100,00 %
22.03.2016 17:19 6,7 C 69 % 1009,8 hPa 0,0 l/m 6,3 km/h (2 Bft) S-SW 207 0 min 0,000 mm 0,0 UV-I 56 W/m 1,4 C 6,7 C 9,7 km/h (2 Bft) 96,15 %
22.03.2016 17:20 6,7 C 69 % 1009,9 hPa 0,0 l/m 6,2 km/h (2 Bft) S-SW 204 0 min 0,000 mm 0,0 UV-I 55 W/m 1,4 C 6,7 C 8,0 km/h (2 Bft) 100,00 %
22.03.2016 17:21 6,7 C 70 % 1009,8 hPa 0,0 l/m 5,1 km/h (1 Bft) S-SW 210 0 min 0,000 mm 0,0 UV-I 54 W/m 1,6 C 6,7 C 8,0 km/h (2 Bft) 100,00 %
22.03.2016 17:22 6,7 C 70 % 1009,9 hPa 0,0 l/m 5,1 km/h (1 Bft) W-SW 238 0 min 0,000 mm 0,0 UV-I 53 W/m 1,6 C 6,7 C 8,0 km/h (2 Bft) 100,00 %
22.03.2016 17:23 6,7 C 70 % 1009,9 hPa 0,0 l/m 5,3 km/h (1 Bft) SW 224 0 min 0,000 mm 0,0 UV-I 53 W/m 1,6 C 6,7 C 8,0 km/h (2 Bft) 91,67 %
22.03.2016 17:24 6,7 C 70 % 1009,9 hPa 0,0 l/m 6,0 km/h (2 Bft) SW 236 0 min 0,000 mm 0,0 UV-I 52 W/m 1,6 C 6,7 C 8,0 km/h (2 Bft) 100,00 %
22.03.2016 17:25 6,7 C 70 % 1009,9 hPa 0,0 l/m 4,5 km/h (1 Bft) SW 234 0 min 0,000 mm 0,0 UV-I 51 W/m 1,6 C 6,7 C 6,4 km/h (2 Bft) 96,30 %
22.03.2016 17:26 6,7 C 71 % 1009,8 hPa 0,0 l/m 4,0 km/h (1 Bft) W-SW 237 0 min 0,000 mm 0,0 UV-I 50 W/m 1,8 C 6,7 C 6,4 km/h (2 Bft) 100,00 %
22.03.2016 17:27 6,7 C 71 % 1009,9 hPa 0,0 l/m 6,9 km/h (2 Bft) W-SW 246 0 min 0,000 mm 0,0 UV-I 49 W/m 1,8 C 6,3 C 8,0 km/h (2 Bft) 100,00 %
22.03.2016 17:28 6,7 C 71 % 1009,9 hPa 0,0 l/m 6,1 km/h (2 Bft) W-SW 242 0 min 0,000 mm 0,0 UV-I 49 W/m 1,8 C 6,7 C 8,0 km/h (2 Bft) 100,00 %
22.03.2016 17:29 6,7 C 71 % 1009,9 hPa 0,0 l/m 5,3 km/h (1 Bft) SW 215 0 min 0,000 mm 0,0 UV-I 48 W/m 1,8 C 6,7 C 8,0 km/h (2 Bft) 100,00 %
22.03.2016 17:30 6,7 C 71 % 1009,8 hPa 0,0 l/m 4,4 km/h (1 Bft) SW 236 0 min 0,000 mm 0,0 UV-I 47 W/m 1,8 C 6,7 C 6,4 km/h (2 Bft) 100,00 %
22.03.2016 17:31 6,7 C 71 % 1009,8 hPa 0,0 l/m 4,7 km/h (1 Bft) S-SW 204 0 min 0,000 mm 0,0 UV-I 46 W/m 1,8 C 6,7 C 6,4 km/h (2 Bft) 96,30 %
22.03.2016 17:32 6,7 C 71 % 1009,9 hPa 0,0 l/m 3,9 km/h (1 Bft) SW 232 0 min 0,000 mm 0,0 UV-I 43 W/m 1,8 C 6,7 C 4,8 km/h (1 Bft) 96,15 %
22.03.2016 17:33 6,7 C 70 % 1009,8 hPa 0,0 l/m 4,3 km/h (1 Bft) W-SW 251 0 min 0,000 mm 0,0 UV-I 40 W/m 1,6 C 6,7 C 8,0 km/h (2 Bft) 98,68 %
22.03.2016 17:34 6,7 C 70 % 1009,8 hPa 0,0 l/m 5,5 km/h (1 Bft) SW 219 0 min 0,000 mm 0,0 UV-I 36 W/m 1,6 C 6,7 C 8,0 km/h (2 Bft) 100,00 %
22.03.2016 17:35 6,7 C 70 % 1009,8 hPa 0,0 l/m 5,3 km/h (1 Bft) SW 218 0 min 0,000 mm 0,0 UV-I 34 W/m 1,6 C 6,7 C 8,0 km/h (2 Bft) 100,00 %
22.03.2016 17:36 6,7 C 70 % 1009,8 hPa 0,0 l/m 4,4 km/h (1 Bft) SW 216 0 min 0,000 mm 0,0 UV-I 32 W/m 1,6 C 6,7 C 6,4 km/h (2 Bft) 100,00 %
22.03.2016 17:37 6,7 C 70 % 1009,9 hPa 0,0 l/m 5,4 km/h (1 Bft) SW 215 0 min 0,000 mm 0,0 UV-I 30 W/m 1,6 C 6,7 C 8,0 km/h (2 Bft) 100,00 %
22.03.2016 17:38 6,7 C 70 % 1009,9 hPa 0,0 l/m 5,4 km/h (1 Bft) SW 223 0 min 0,000 mm 0,0 UV-I 27 W/m 1,6 C 6,7 C 8,0 km/h (2 Bft) 100,00 %
22.03.2016 17:39 6,7 C 70 % 1009,9 hPa 0,0 l/m 5,1 km/h (1 Bft) S-SW 200 0 min 0,000 mm 0,0 UV-I 25 W/m 1,6 C 6,7 C 8,0 km/h (2 Bft) 100,00 %
22.03.2016 17:40 6,7 C 70 % 1009,9 hPa 0,0 l/m 4,1 km/h (1 Bft) SW 215 0 min 0,000 mm 0,0 UV-I 24 W/m 1,6 C 6,7 C 6,4 km/h (2 Bft) 96,15 %
22.03.2016 17:41 6,7 C 71 % 1009,9 hPa 0,0 l/m 5,5 km/h (1 Bft) S-SW 196 0 min 0,000 mm 0,0 UV-I 22 W/m 1,8 C 6,7 C 8,0 km/h (2 Bft) 100,00 %
22.03.2016 17:42 6,7 C 71 % 1009,9 hPa 0,0 l/m 4,4 km/h (1 Bft) SW 225 0 min 0,000 mm 0,0 UV-I 19 W/m 1,8 C 6,7 C 6,4 km/h (2 Bft) 100,00 %
22.03.2016 17:43 6,6 C 71 % 1009,9 hPa 0,0 l/m 6,2 km/h (2 Bft) SW 234 0 min 0,000 mm 0,0 UV-I 19 W/m 1,7 C 6,6 C 8,0 km/h (2 Bft) 100,00 %
22.03.2016 17:44 6,6 C 71 % 1009,9 hPa 0,0 l/m 6,1 km/h (2 Bft) W-SW 241 0 min 0,000 mm 0,0 UV-I 19 W/m 1,7 C 6,6 C 9,7 km/h (2 Bft) 100,00 %
22.03.2016 17:45 6,6 C 71 % 1009,9 hPa 0,0 l/m 3,8 km/h (1 Bft) SW 236 0 min 0,000 mm 0,0 UV-I 18 W/m 1,7 C 6,6 C 4,8 km/h (1 Bft) 100,00 %
22.03.2016 17:46 6,6 C 71 % 1009,8 hPa 0,0 l/m 4,1 km/h (1 Bft) SW 231 0 min 0,000 mm 0,0 UV-I 18 W/m 1,7 C 6,6 C 6,4 km/h (2 Bft) 96,30 %
22.03.2016 17:47 6,6 C 70 % 1009,8 hPa 0,0 l/m 4,8 km/h (1 Bft) S-SW 204 0 min 0,000 mm 0,0 UV-I 18 W/m 1,5 C 6,6 C 6,4 km/h (2 Bft) 95,65 %
22.03.2016 17:48 6,6 C 71 % 1009,9 hPa 0,0 l/m 4,5 km/h (1 Bft) S-SW 194 0 min 0,000 mm 0,0 UV-I 18 W/m 1,7 C 6,6 C 8,0 km/h (2 Bft) 100,00 %
22.03.2016 17:49 6,6 C 70 % 1009,9 hPa 0,0 l/m 4,2 km/h (1 Bft) S 179 0 min 0,000 mm 0,0 UV-I 18 W/m 1,5 C 6,6 C 6,4 km/h (2 Bft) 100,00 %
22.03.2016 17:50 6,6 C 70 % 1010,0 hPa 0,0 l/m 3,8 km/h (1 Bft) SW 234 0 min 0,000 mm 0,0 UV-I 16 W/m 1,5 C 6,6 C 6,4 km/h (2 Bft) 96,30 %
22.03.2016 17:51 6,6 C 71 % 1009,9 hPa 0,0 l/m 5,0 km/h (1 Bft) SW 234 0 min 0,000 mm 0,0 UV-I 16 W/m 1,7 C 6,6 C 6,4 km/h (2 Bft) 100,00 %
22.03.2016 17:52 6,6 C 71 % 1009,9 hPa 0,0 l/m 5,4 km/h (1 Bft) SW 224 0 min 0,000 mm 0,0 UV-I 15 W/m 1,7 C 6,6 C 8,0 km/h (2 Bft) 95,83 %
22.03.2016 17:53 6,6 C 71 % 1009,9 hPa 0,0 l/m 5,2 km/h (1 Bft) W-SW 257 0 min 0,000 mm 0,0 UV-I 14 W/m 1,7 C 6,6 C 6,4 km/h (2 Bft) 100,00 %
22.03.2016 17:54 6,6 C 71 % 1009,9 hPa 0,0 l/m 5,4 km/h (1 Bft) SW 232 0 min 0,000 mm 0,0 UV-I 14 W/m 1,7 C 6,6 C 6,4 km/h (2 Bft) 88,89 %
22.03.2016 17:55 6,5 C 71 % 1010,0 hPa 0,0 l/m 3,2 km/h (1 Bft) SW 232 0 min 0,000 mm 0,0 UV-I 12 W/m 1,6 C 6,5 C 4,8 km/h (1 Bft) 100,00 %
22.03.2016 17:56 6,5 C 71 % 1010,0 hPa 0,0 l/m 4,2 km/h (1 Bft) W-SW 250 0 min 0,000 mm 0,0 UV-I 12 W/m 1,6 C 6,5 C 6,4 km/h (2 Bft) 95,83 %
22.03.2016 17:57 6,5 C 72 % 1009,9 hPa 0,0 l/m 4,3 km/h (1 Bft) W-SW 248 0 min 0,000 mm 0,0 UV-I 11 W/m 1,8 C 6,5 C 6,4 km/h (2 Bft) 100,00 %
22.03.2016 17:58 6,5 C 71 % 1010,0 hPa 0,0 l/m 3,5 km/h (1 Bft) W-SW 248 0 min 0,000 mm 0,0 UV-I 10 W/m 1,6 C 6,5 C 4,8 km/h (1 Bft) 96,55 %
22.03.2016 17:59 6,5 C 72 % 1010,0 hPa 0,0 l/m 3,0 km/h (1 Bft) W-SW 248 0 min 0,000 mm 0,0 UV-I 9 W/m 1,8 C 6,5 C 4,8 km/h (1 Bft) 95,65 %
22.03.2016 18:00 6,5 C 72 % 1010,0 hPa 0,0 l/m 3,5 km/h (1 Bft) W-SW 247 0 min 0,000 mm 0,0 UV-I 9 W/m 1,8 C 6,5 C 4,8 km/h (1 Bft) 100,00 %
22.03.2016 18:02 6,4 C 71 % 1010,0 hPa 0,0 l/m 3,9 km/h (1 Bft) SW 220 0 min 0,025 mm 0,0 UV-I 8 W/m 1,5 C 6,4 C 6,4 km/h (2 Bft) 97,73 %
22.03.2016 18:03 6,4 C 72 % 1010,0 hPa 0,0 l/m 3,5 km/h (1 Bft) SW 229 0 min 0,000 mm 0,0 UV-I 7 W/m 1,7 C 6,4 C 6,4 km/h (2 Bft) 96,30 %
22.03.2016 18:04 6,4 C 72 % 1009,9 hPa 0,0 l/m 4,3 km/h (1 Bft) SW 222 0 min 0,000 mm 0,0 UV-I 7 W/m 1,7 C 6,4 C 4,8 km/h (1 Bft) 100,00 %
22.03.2016 18:05 6,4 C 72 % 1010,0 hPa 0,0 l/m 2,9 km/h (1 Bft) SW 222 0 min 0,000 mm 0,0 UV-I 5 W/m 1,7 C 6,4 C 4,8 km/h (1 Bft) 95,83 %
22.03.2016 18:06 6,4 C 72 % 1010,0 hPa 0,0 l/m 4,1 km/h (1 Bft) SW 225 0 min 0,000 mm 0,0 UV-I 5 W/m 1,7 C 6,4 C 6,4 km/h (2 Bft) 96,15 %
22.03.2016 18:07 6,4 C 72 % 1010,0 hPa 0,0 l/m 5,2 km/h (1 Bft) SW 229 0 min 0,000 mm 0,0 UV-I 5 W/m 1,7 C 6,4 C 6,4 km/h (2 Bft) 100,00 %
22.03.2016 18:08 6,4 C 72 % 1010,0 hPa 0,0 l/m 4,7 km/h (1 Bft) SW 229 0 min 0,000 mm 0,0 UV-I 5 W/m 1,7 C 6,4 C 6,4 km/h (2 Bft) 93,10 %
22.03.2016 18:09 6,4 C 73 % 1009,9 hPa 0,0 l/m 3,6 km/h (1 Bft) SW 227 0 min 0,000 mm 0,0 UV-I 2 W/m 1,9 C 6,4 C 6,4 km/h (2 Bft) 100,00 %
22.03.2016 18:10 6,4 C 72 % 1009,9 hPa 0,0 l/m 3,1 km/h (1 Bft) SW 227 0 min 0,000 mm 0,0 UV-I 0 W/m 1,7 C 6,4 C 6,4 km/h (2 Bft) 95,65 %
22.03.2016 18:11 6,4 C 72 % 1009,9 hPa 0,0 l/m 3,5 km/h (1 Bft) SW 227 0 min 0,000 mm 0,0 UV-I 0 W/m 1,7 C 6,4 C 4,8 km/h (1 Bft) 100,00 %
22.03.2016 18:12 6,4 C 72 % 1009,9 hPa 0,0 l/m 3,6 km/h (1 Bft) SW 229 0 min 0,000 mm 0,0 UV-I 0 W/m 1,7 C 6,4 C 4,8 km/h (1 Bft) 95,65 %
22.03.2016 18:13 6,4 C 72 % 1009,9 hPa 0,0 l/m 3,3 km/h (1 Bft) SW 229 0 min 0,000 mm 0,0 UV-I 0 W/m 1,7 C 6,4 C 4,8 km/h (1 Bft) 100,00 %
22.03.2016 18:14 6,3 C 72 % 1009,9 hPa 0,0 l/m 3,7 km/h (1 Bft) SW 229 0 min 0,000 mm 0,0 UV-I 0 W/m 1,6 C 6,3 C 4,8 km/h (1 Bft) 96,15 %
22.03.2016 18:15 6,3 C 72 % 1009,9 hPa 0,0 l/m 2,9 km/h (1 Bft) SW 229 0 min 0,000 mm 0,0 UV-I 0 W/m 1,6 C 6,3 C 4,8 km/h (1 Bft) 100,00 %
22.03.2016 18:16 6,3 C 73 % 1009,9 hPa 0,0 l/m 2,6 km/h (1 Bft) SW 229 0 min 0,000 mm 0,0 UV-I 0 W/m 1,8 C 6,3 C 4,8 km/h (1 Bft) 91,30 %
22.03.2016 18:17 6,3 C 73 % 1009,9 hPa 0,0 l/m 1,7 km/h (1 Bft) SW 229 0 min 0,000 mm 0,0 UV-I 0 W/m 1,8 C 6,3 C 3,2 km/h (1 Bft) 100,00 %
22.03.2016 18:18 6,3 C 73 % 1009,9 hPa 0,0 l/m 2,3 km/h (1 Bft) SW 229 0 min 0,000 mm 0,0 UV-I 0 W/m 1,8 C 6,3 C 3,2 km/h (1 Bft) 95,83 %
22.03.2016 18:19 6,3 C 73 % 1009,9 hPa 0,0 l/m 2,6 km/h (1 Bft) SW 229 0 min 0,000 mm 0,0 UV-I 0 W/m 1,8 C 6,3 C 3,2 km/h (1 Bft) 86,96 %
22.03.2016 18:20 6,3 C 73 % 1009,8 hPa 0,0 l/m 2,3 km/h (1 Bft) SW 229 0 min 0,000 mm 0,0 UV-I 0 W/m 1,8 C 6,3 C 4,8 km/h (1 Bft) 100,00 %
22.03.2016 18:21 6,3 C 73 % 1009,9 hPa 0,0 l/m 3,2 km/h (1 Bft) SW 229 0 min 0,000 mm 0,0 UV-I 0 W/m 1,8 C 6,3 C 4,8 km/h (1 Bft) 95,83 %
22.03.2016 18:22 6,3 C 73 % 1009,8 hPa 0,0 l/m 1,9 km/h (1 Bft) SW 229 0 min 0,000 mm 0,0 UV-I 0 W/m 1,8 C 6,3 C 3,2 km/h (1 Bft) 100,00 %
22.03.2016 18:23 6,3 C 73 % 1009,8 hPa 0,0 l/m 2,9 km/h (1 Bft) SW 229 0 min 0,000 mm 0,0 UV-I 0 W/m 1,8 C 6,3 C 3,2 km/h (1 Bft) 91,30 %
22.03.2016 18:24 6,3 C 73 % 1009,8 hPa 0,0 l/m 2,7 km/h (1 Bft) SW 229 0 min 0,000 mm 0,0 UV-I 0 W/m 1,8 C 6,3 C 3,2 km/h (1 Bft) 95,83 %
22.03.2016 18:25 6,2 C 73 % 1009,9 hPa 0,0 l/m 2,9 km/h (1 Bft) SW 229 0 min 0,000 mm 0,0 UV-I 0 W/m 1,7 C 6,2 C 3,2 km/h (1 Bft) 95,65 %
22.03.2016 18:26 6,2 C 73 % 1009,9 hPa 0,0 l/m 3,5 km/h (1 Bft) SW 229 0 min 0,000 mm 0,0 UV-I 0 W/m 1,7 C 6,2 C 4,8 km/h (1 Bft) 96,30 %
22.03.2016 18:27 6,3 C 73 % 1009,8 hPa 0,0 l/m 3,5 km/h (1 Bft) SW 229 0 min 0,000 mm 0,0 UV-I 0 W/m 1,8 C 6,3 C 4,8 km/h (1 Bft) 100,00 %
22.03.2016 18:28 6,3 C 73 % 1009,8 hPa 0,0 l/m 2,2 km/h (1 Bft) SW 229 0 min 0,000 mm 0,0 UV-I 0 W/m 1,8 C 6,3 C 3,2 km/h (1 Bft) 96,30 %
22.03.2016 18:29 6,3 C 73 % 1009,8 hPa 0,0 l/m 3,4 km/h (1 Bft) SW 229 0 min 0,000 mm 0,0 UV-I 0 W/m 1,8 C 6,3 C 4,8 km/h (1 Bft) 100,00 %
22.03.2016 18:30 6,2 C 74 % 1009,8 hPa 0,0 l/m 3,6 km/h (1 Bft) SW 229 0 min 0,000 mm 0,0 UV-I 0 W/m 1,9 C 6,2 C 4,8 km/h (1 Bft) 95,83 %
22.03.2016 18:31 6,2 C 73 % 1009,8 hPa 0,0 l/m 3,1 km/h (1 Bft) SW 229 0 min 0,000 mm 0,0 UV-I 0 W/m 1,7 C 6,2 C 4,8 km/h (1 Bft) 100,00 %
22.03.2016 18:32 6,2 C 74 % 1009,8 hPa 0,0 l/m 2,6 km/h (1 Bft) SW 229 0 min 0,000 mm 0,0 UV-I 0 W/m 1,9 C 6,2 C 3,2 km/h (1 Bft) 100,00 %
22.03.2016 18:33 6,2 C 74 % 1009,8 hPa 0,0 l/m 2,6 km/h (1 Bft) SW 227 0 min 0,000 mm 0,0 UV-I 0 W/m 1,9 C 6,2 C 4,8 km/h (1 Bft) 100,00 %
22.03.2016 18:34 6,2 C 74 % 1009,8 hPa 0,0 l/m 2,7 km/h (1 Bft) SW 227 0 min 0,000 mm 0,0 UV-I 0 W/m 1,9 C 6,2 C 4,8 km/h (1 Bft) 95,83 %
22.03.2016 18:35 6,2 C 75 % 1009,7 hPa 0,0 l/m 2,4 km/h (1 Bft) SW 227 0 min 0,000 mm 0,0 UV-I 0 W/m 2,1 C 6,2 C 3,2 km/h (1 Bft) 100,00 %
22.03.2016 18:36 6,2 C 74 % 1009,8 hPa 0,0 l/m 1,9 km/h (1 Bft) SW 227 0 min 0,000 mm 0,0 UV-I 0 W/m 1,9 C 6,2 C 3,2 km/h (1 Bft) 100,00 %
22.03.2016 18:37 6,2 C 75 % 1009,8 hPa 0,0 l/m 2,5 km/h (1 Bft) SW 227 0 min 0,000 mm 0,0 UV-I 0 W/m 2,1 C 6,2 C 3,2 km/h (1 Bft) 100,00 %
22.03.2016 18:38 6,1 C 75 % 1009,8 hPa 0,0 l/m 2,1 km/h (1 Bft) SW 227 0 min 0,000 mm 0,0 UV-I 0 W/m 2,0 C 6,1 C 3,2 km/h (1 Bft) 100,00 %
22.03.2016 18:39 6,1 C 75 % 1009,8 hPa 0,0 l/m 2,6 km/h (1 Bft) SW 227 0 min 0,000 mm 0,0 UV-I 0 W/m 2,0 C 6,1 C 3,2 km/h (1 Bft) 96,15 %
22.03.2016 18:40 6,1 C 75 % 1009,8 hPa 0,0 l/m 1,7 km/h (1 Bft) SW 227 0 min 0,000 mm 0,0 UV-I 0 W/m 2,0 C 6,1 C 3,2 km/h (1 Bft) 100,00 %
22.03.2016 18:41 6,1 C 75 % 1009,8 hPa 0,0 l/m 1,6 km/h (1 Bft) SW 227 0 min 0,000 mm 0,0 UV-I 0 W/m 2,0 C 6,1 C 3,2 km/h (1 Bft) 100,00 %
22.03.2016 18:42 6,1 C 75 % 1009,8 hPa 0,0 l/m 1,9 km/h (1 Bft) SW 227 0 min 0,000 mm 0,0 UV-I 0 W/m 2,0 C 6,1 C 3,2 km/h (1 Bft) 100,00 %
22.03.2016 18:43 6,1 C 75 % 1009,8 hPa 0,0 l/m 1,2 km/h (1 Bft) SW 227 0 min 0,000 mm 0,0 UV-I 0 W/m 2,0 C 6,1 C 3,2 km/h (1 Bft) 100,00 %
22.03.2016 18:44 6,1 C 75 % 1009,8 hPa 0,0 l/m 1,9 km/h (1 Bft) SW 227 0 min 0,000 mm 0,0 UV-I 0 W/m 2,0 C 6,1 C 3,2 km/h (1 Bft) 100,00 %
22.03.2016 18:45 6,1 C 75 % 1009,8 hPa 0,0 l/m 2,6 km/h (1 Bft) SW 227 0 min 0,000 mm 0,0 UV-I 0 W/m 2,0 C 6,1 C 3,2 km/h (1 Bft) 100,00 %
22.03.2016 18:46 6,1 C 75 % 1009,8 hPa 0,0 l/m 1,9 km/h (1 Bft) SW 227 0 min 0,000 mm 0,0 UV-I 0 W/m 2,0 C 6,1 C 3,2 km/h (1 Bft) 100,00 %
22.03.2016 18:47 6,1 C 75 % 1009,8 hPa 0,0 l/m 1,8 km/h (1 Bft) SW 227 0 min 0,000 mm 0,0 UV-I 0 W/m 2,0 C 6,1 C 3,2 km/h (1 Bft) 100,00 %
22.03.2016 18:48 6,1 C 75 % 1009,8 hPa 0,0 l/m 2,1 km/h (1 Bft) SW 227 0 min 0,000 mm 0,0 UV-I 0 W/m 2,0 C 6,1 C 3,2 km/h (1 Bft) 96,55 %
22.03.2016 18:49 6,1 C 75 % 1009,8 hPa 0,0 l/m 2,3 km/h (1 Bft) SW 227 0 min 0,000 mm 0,0 UV-I 0 W/m 2,0 C 6,1 C 3,2 km/h (1 Bft) 100,00 %
22.03.2016 18:50 6,0 C 75 % 1009,8 hPa 0,0 l/m 2,0 km/h (1 Bft) SW 227 0 min 0,000 mm 0,0 UV-I 0 W/m 1,9 C 6,0 C 3,2 km/h (1 Bft) 100,00 %
22.03.2016 18:51 6,0 C 75 % 1009,8 hPa 0,0 l/m 2,2 km/h (1 Bft) SW 227 0 min 0,000 mm 0,0 UV-I 0 W/m 1,9 C 6,0 C 3,2 km/h (1 Bft) 100,00 %
22.03.2016 18:52 6,0 C 75 % 1009,8 hPa 0,0 l/m 1,8 km/h (1 Bft) SW 227 0 min 0,000 mm 0,0 UV-I 0 W/m 1,9 C 6,0 C 3,2 km/h (1 Bft) 100,00 %
22.03.2016 18:53 6,0 C 75 % 1009,8 hPa 0,0 l/m 2,5 km/h (1 Bft) SW 227 0 min 0,000 mm 0,0 UV-I 0 W/m 1,9 C 6,0 C 3,2 km/h (1 Bft) 100,00 %
22.03.2016 18:54 6,0 C 75 % 1009,8 hPa 0,0 l/m 2,3 km/h (1 Bft) SW 227 0 min 0,000 mm 0,0 UV-I 0 W/m 1,9 C 6,0 C 3,2 km/h (1 Bft) 100,00 %
22.03.2016 18:55 6,0 C 75 % 1009,8 hPa 0,0 l/m 1,9 km/h (1 Bft) SW 227 0 min 0,000 mm 0,0 UV-I 0 W/m 1,9 C 6,0 C 3,2 km/h (1 Bft) 100,00 %
22.03.2016 18:56 6,0 C 76 % 1009,8 hPa 0,0 l/m 0,7 km/h (0 Bft) SW 232 0 min 0,000 mm 0,0 UV-I 0 W/m 2,1 C 6,0 C 1,6 km/h (1 Bft) 100,00 %
22.03.2016 18:57 5,9 C 78 % 1009,8 hPa 0,0 l/m 0,6 km/h (0 Bft) W-SW 244 0 min 0,000 mm 0,0 UV-I 0 W/m 2,4 C 5,9 C 1,6 km/h (1 Bft) 100,00 %
22.03.2016 18:58 5,9 C 79 % 1009,8 hPa 0,0 l/m 0,2 km/h (0 Bft) W-SW 244 0 min 0,000 mm 0,0 UV-I 0 W/m 2,5 C 5,9 C 1,6 km/h (1 Bft) 100,00 %
22.03.2016 18:59 5,8 C 80 % 1009,9 hPa 0,0 l/m 0,2 km/h (0 Bft) W-SW 244 0 min 0,000 mm 0,0 UV-I 0 W/m 2,6 C 5,8 C 1,6 km/h (1 Bft) 100,00 %
22.03.2016 19:00 5,7 C 81 % 1009,8 hPa 0,0 l/m 1,1 km/h (1 Bft) W-SW 244 0 min 0,000 mm 0,0 UV-I 0 W/m 2,7 C 5,7 C 3,2 km/h (1 Bft) 96,15 %
22.03.2016 19:02 5,6 C 79 % 1009,9 hPa 0,0 l/m 1,0 km/h (0 Bft) W-SW 244 0 min 0,000 mm 0,0 UV-I 0 W/m 2,3 C 5,6 C 3,2 km/h (1 Bft) 100,00 %
22.03.2016 19:03 5,6 C 79 % 1009,9 hPa 0,0 l/m 0,2 km/h (0 Bft) W-SW 244 0 min 0,000 mm 0,0 UV-I 0 W/m 2,3 C 5,6 C 1,6 km/h (1 Bft) 100,00 %
22.03.2016 19:04 5,6 C 80 % 1009,9 hPa 0,0 l/m 0,3 km/h (0 Bft) W-SW 244 0 min 0,000 mm 0,0 UV-I 0 W/m 2,4 C 5,6 C 1,6 km/h (1 Bft) 100,00 %
22.03.2016 19:05 5,6 C 79 % 1009,9 hPa 0,0 l/m 0,4 km/h (0 Bft) W-SW 245 0 min 0,000 mm 0,0 UV-I 0 W/m 2,3 C 5,6 C 1,6 km/h (1 Bft) 100,00 %
22.03.2016 19:06 5,6 C 78 % 1009,9 hPa 0,0 l/m 0,1 km/h (0 Bft) W-SW 245 0 min 0,000 mm 0,0 UV-I 0 W/m 2,1 C 5,6 C 1,6 km/h (1 Bft) 100,00 %
22.03.2016 19:07 5,6 C 78 % 1009,9 hPa 0,0 l/m 0,0 km/h (0 Bft) W-SW 245 0 min 0,000 mm 0,0 UV-I 0 W/m 2,1 C 5,6 C 0,0 km/h (0 Bft) 100,00 %
22.03.2016 19:08 5,7 C 78 % 1009,9 hPa 0,0 l/m 0,3 km/h (0 Bft) W-SW 245 0 min 0,000 mm 0,0 UV-I 0 W/m 2,2 C 5,7 C 1,6 km/h (1 Bft) 100,00 %
22.03.2016 19:09 5,7 C 78 % 1010,0 hPa 0,0 l/m 1,1 km/h (1 Bft) W-SW 245 0 min 0,000 mm 0,0 UV-I 0 W/m 2,2 C 5,7 C 1,6 km/h (1 Bft) 100,00 %
22.03.2016 19:10 5,7 C 77 % 1010,0 hPa 0,0 l/m 3,0 km/h (1 Bft) W 265 0 min 0,000 mm 0,0 UV-I 0 W/m 2,0 C 5,7 C 3,2 km/h (1 Bft) 100,00 %
22.03.2016 19:11 5,7 C 76 % 1010,0 hPa 0,0 l/m 2,0 km/h (1 Bft) W 265 0 min 0,000 mm 0,0 UV-I 0 W/m 1,8 C 5,7 C 3,2 km/h (1 Bft) 95,65 %
22.03.2016 19:12 5,7 C 77 % 1010,0 hPa 0,0 l/m 0,0 km/h (0 Bft) W 265 0 min 0,000 mm 0,0 UV-I 0 W/m 2,0 C 5,7 C 0,0 km/h (0 Bft) 100,00 %
22.03.2016 19:13 5,8 C 77 % 1010,0 hPa 0,0 l/m 0,0 km/h (0 Bft) W 265 0 min 0,000 mm 0,0 UV-I 0 W/m 2,1 C 5,8 C 0,0 km/h (0 Bft) 100,00 %
22.03.2016 19:14 5,8 C 77 % 1010,0 hPa 0,0 l/m 0,0 km/h (0 Bft) W 265 0 min 0,000 mm 0,0 UV-I 0 W/m 2,1 C 5,8 C 0,0 km/h (0 Bft) 100,00 %
22.03.2016 19:15 5,8 C 77 % 1010,0 hPa 0,0 l/m 0,1 km/h (0 Bft) W 265 0 min 0,000 mm 0,0 UV-I 0 W/m 2,1 C 5,8 C 1,6 km/h (1 Bft) 100,00 %
22.03.2016 19:16 5,8 C 76 % 1010,0 hPa 0,0 l/m 0,0 km/h (0 Bft) W 265 0 min 0,000 mm 0,0 UV-I 0 W/m 1,9 C 5,8 C 0,0 km/h (0 Bft) 100,00 %
22.03.2016 19:17 5,8 C 76 % 1010,1 hPa 0,0 l/m 0,0 km/h (0 Bft) W 265 0 min 0,000 mm 0,0 UV-I 0 W/m 1,9 C 5,8 C 0,0 km/h (0 Bft) 100,00 %
22.03.2016 19:18 5,8 C 76 % 1010,1 hPa 0,0 l/m 0,0 km/h (0 Bft) W 265 0 min 0,000 mm 0,0 UV-I 0 W/m 1,9 C 5,8 C 0,0 km/h (0 Bft) 100,00 %
22.03.2016 19:19 5,8 C 76 % 1010,1 hPa 0,0 l/m 0,0 km/h (0 Bft) W 265 0 min 0,000 mm 0,0 UV-I 0 W/m 1,9 C 5,8 C 0,0 km/h (0 Bft) 100,00 %
22.03.2016 19:20 5,8 C 78 % 1010,1 hPa 0,0 l/m 0,2 km/h (0 Bft) W 265 0 min 0,000 mm 0,0 UV-I 0 W/m 2,3 C 5,8 C 1,6 km/h (1 Bft) 100,00 %
22.03.2016 19:21 5,7 C 79 % 1010,1 hPa 0,0 l/m 0,3 km/h (0 Bft) W 265 0 min 0,000 mm 0,0 UV-I 0 W/m 2,3 C 5,7 C 1,6 km/h (1 Bft) 100,00 %
22.03.2016 19:22 5,6 C 79 % 1010,1 hPa 0,0 l/m 0,5 km/h (0 Bft) W 265 0 min 0,000 mm 0,0 UV-I 0 W/m 2,3 C 5,6 C 1,6 km/h (1 Bft) 100,00 %
22.03.2016 19:23 5,6 C 79 % 1010,1 hPa 0,0 l/m 1,1 km/h (1 Bft) W 265 0 min 0,000 mm 0,0 UV-I 0 W/m 2,3 C 5,6 C 3,2 km/h (1 Bft) 100,00 %
22.03.2016 19:24 5,5 C 80 % 1010,1 hPa 0,0 l/m 2,1 km/h (1 Bft) W 265 0 min 0,000 mm 0,0 UV-I 0 W/m 2,3 C 5,5 C 3,2 km/h (1 Bft) 95,65 %
22.03.2016 19:25 5,4 C 80 % 1010,1 hPa 0,0 l/m 2,1 km/h (1 Bft) W 265 0 min 0,000 mm 0,0 UV-I 0 W/m 2,2 C 5,4 C 3,2 km/h (1 Bft) 100,00 %
22.03.2016 19:26 5,4 C 81 % 1010,1 hPa 0,0 l/m 2,4 km/h (1 Bft) W 265 0 min 0,000 mm 0,0 UV-I 0 W/m 2,4 C 5,4 C 3,2 km/h (1 Bft) 96,77 %
22.03.2016 19:27 5,3 C 81 % 1010,2 hPa 0,0 l/m 2,1 km/h (1 Bft) W 265 0 min 0,000 mm 0,0 UV-I 0 W/m 2,3 C 5,3 C 3,2 km/h (1 Bft) 100,00 %
22.03.2016 19:28 5,3 C 82 % 1010,1 hPa 0,0 l/m 1,9 km/h (1 Bft) W 265 0 min 0,000 mm 0,0 UV-I 0 W/m 2,5 C 5,3 C 3,2 km/h (1 Bft) 100,00 %
22.03.2016 19:29 5,2 C 83 % 1010,2 hPa 0,0 l/m 2,2 km/h (1 Bft) W 265 0 min 0,000 mm 0,0 UV-I 0 W/m 2,6 C 5,2 C 3,2 km/h (1 Bft) 100,00 %
22.03.2016 19:30 5,2 C 83 % 1010,1 hPa 0,0 l/m 2,7 km/h (1 Bft) W 265 0 min 0,000 mm 0,0 UV-I 0 W/m 2,6 C 5,2 C 3,2 km/h (1 Bft) 96,15 %
22.03.2016 19:31 5,1 C 84 % 1010,1 hPa 0,0 l/m 1,9 km/h (1 Bft) W 265 0 min 0,000 mm 0,0 UV-I 0 W/m 2,6 C 5,1 C 3,2 km/h (1 Bft) 100,00 %
22.03.2016 19:32 5,1 C 84 % 1010,1 hPa 0,0 l/m 2,2 km/h (1 Bft) W 265 0 min 0,000 mm 0,0 UV-I 0 W/m 2,6 C 5,1 C 3,2 km/h (1 Bft) 98,66 %
22.03.2016 19:33 5,1 C 83 % 1010,2 hPa 0,0 l/m 1,6 km/h (1 Bft) W 265 0 min 0,000 mm 0,0 UV-I 0 W/m 2,5 C 5,1 C 3,2 km/h (1 Bft) 100,00 %
22.03.2016 19:34 5,1 C 83 % 1010,2 hPa 0,0 l/m 1,0 km/h (0 Bft) W 265 0 min 0,000 mm 0,0 UV-I 0 W/m 2,5 C 5,1 C 1,6 km/h (1 Bft) 100,00 %
22.03.2016 19:35 5,1 C 83 % 1010,1 hPa 0,0 l/m 1,7 km/h (1 Bft) W 265 0 min 0,000 mm 0,0 UV-I 0 W/m 2,5 C 5,1 C 3,2 km/h (1 Bft) 95,83 %
22.03.2016 19:36 5,1 C 82 % 1010,1 hPa 0,0 l/m 2,2 km/h (1 Bft) W 265 0 min 0,000 mm 0,0 UV-I 0 W/m 2,3 C 5,1 C 3,2 km/h (1 Bft) 100,00 %
22.03.2016 19:37 5,1 C 83 % 1010,1 hPa 0,0 l/m 2,1 km/h (1 Bft) W 265 0 min 0,000 mm 0,0 UV-I 0 W/m 2,5 C 5,1 C 3,2 km/h (1 Bft) 96,30 %
22.03.2016 19:38 5,1 C 83 % 1010,1 hPa 0,0 l/m 1,9 km/h (1 Bft) W 265 0 min 0,000 mm 0,0 UV-I 0 W/m 2,5 C 5,1 C 3,2 km/h (1 Bft) 100,00 %
22.03.2016 19:39 5,0 C 83 % 1010,1 hPa 0,0 l/m 1,6 km/h (1 Bft) W 265 0 min 0,000 mm 0,0 UV-I 0 W/m 2,4 C 5,0 C 3,2 km/h (1 Bft) 100,00 %
22.03.2016 19:40 5,0 C 83 % 1010,0 hPa 0,0 l/m 1,2 km/h (1 Bft) W 265 0 min 0,000 mm 0,0 UV-I 0 W/m 2,4 C 5,0 C 1,6 km/h (1 Bft) 100,00 %
22.03.2016 19:41 5,0 C 83 % 1010,0 hPa 0,0 l/m 0,9 km/h (0 Bft) W 265 0 min 0,000 mm 0,0 UV-I 0 W/m 2,4 C 5,0 C 1,6 km/h (1 Bft) 100,00 %
22.03.2016 19:42 4,9 C 84 % 1010,1 hPa 0,0 l/m 0,8 km/h (0 Bft) W 265 0 min 0,000 mm 0,0 UV-I 0 W/m 2,4 C 4,9 C 1,6 km/h (1 Bft) 100,00 %
22.03.2016 19:43 4,9 C 84 % 1010,0 hPa 0,0 l/m 0,4 km/h (0 Bft) W 265 0 min 0,000 mm 0,0 UV-I 0 W/m 2,4 C 4,9 C 1,6 km/h (1 Bft) 100,00 %
22.03.2016 19:44 4,9 C 85 % 1010,0 hPa 0,0 l/m 0,0 km/h (0 Bft) W 265 0 min 0,000 mm 0,0 UV-I 0 W/m 2,6 C 4,9 C 0,0 km/h (0 Bft) 100,00 %
22.03.2016 19:45 4,9 C 85 % 1010,0 hPa 0,0 l/m 0,0 km/h (0 Bft) W 265 0 min 0,000 mm 0,0 UV-I 0 W/m 2,6 C 4,9 C 0,0 km/h (0 Bft) 95,65 %
22.03.2016 19:46 4,9 C 84 % 1010,0 hPa 0,0 l/m 0,0 km/h (0 Bft) W 265 0 min 0,000 mm 0,0 UV-I 0 W/m 2,4 C 4,9 C 0,0 km/h (0 Bft) 100,00 %
22.03.2016 19:47 4,9 C 84 % 1010,0 hPa 0,0 l/m 0,0 km/h (0 Bft) W 265 0 min 0,000 mm 0,0 UV-I 0 W/m 2,4 C 4,9 C 0,0 km/h (0 Bft) 100,00 %
22.03.2016 19:48 4,9 C 83 % 1010,1 hPa 0,0 l/m 0,0 km/h (0 Bft) W 265 0 min 0,000 mm 0,0 UV-I 0 W/m 2,3 C 4,9 C 0,0 km/h (0 Bft) 100,00 %
22.03.2016 19:49 4,9 C 84 % 1010,1 hPa 0,0 l/m 0,0 km/h (0 Bft) W 265 0 min 0,000 mm 0,0 UV-I 0 W/m 2,4 C 4,9 C 0,0 km/h (0 Bft) 100,00 %
22.03.2016 19:50 4,9 C 83 % 1010,1 hPa 0,0 l/m 0,0 km/h (0 Bft) W 265 0 min 0,000 mm 0,0 UV-I 0 W/m 2,3 C 4,9 C 0,0 km/h (0 Bft) 100,00 %
22.03.2016 19:51 4,9 C 84 % 1010,0 hPa 0,0 l/m 0,0 km/h (0 Bft) W 265 0 min 0,000 mm 0,0 UV-I 0 W/m 2,4 C 4,9 C 0,0 km/h (0 Bft) 95,65 %
22.03.2016 19:52 4,9 C 83 % 1010,1 hPa 0,0 l/m 0,0 km/h (0 Bft) W 265 0 min 0,000 mm 0,0 UV-I 0 W/m 2,3 C 4,9 C 0,0 km/h (0 Bft) 100,00 %
22.03.2016 19:53 4,9 C 83 % 1010,1 hPa 0,0 l/m 0,0 km/h (0 Bft) W 265 0 min 0,000 mm 0,0 UV-I 0 W/m 2,3 C 4,9 C 0,0 km/h (0 Bft) 100,00 %
22.03.2016 19:54 4,9 C 84 % 1010,0 hPa 0,0 l/m 0,0 km/h (0 Bft) W 265 0 min 0,000 mm 0,0 UV-I 0 W/m 2,4 C 4,9 C 0,0 km/h (0 Bft) 100,00 %
22.03.2016 19:55 4,9 C 83 % 1010,0 hPa 0,0 l/m 0,0 km/h (0 Bft) W 265 0 min 0,000 mm 0,0 UV-I 0 W/m 2,3 C 4,9 C 0,0 km/h (0 Bft) 95,65 %
22.03.2016 19:56 4,9 C 83 % 1010,1 hPa 0,0 l/m 0,0 km/h (0 Bft) W 265 0 min 0,000 mm 0,0 UV-I 0 W/m 2,3 C 4,9 C 0,0 km/h (0 Bft) 100,00 %
22.03.2016 19:57 4,9 C 83 % 1010,0 hPa 0,0 l/m 0,0 km/h (0 Bft) W 265 0 min 0,000 mm 0,0 UV-I 0 W/m 2,3 C 4,9 C 0,0 km/h (0 Bft) 100,00 %
22.03.2016 19:58 4,9 C 83 % 1010,0 hPa 0,0 l/m 0,0 km/h (0 Bft) W 265 0 min 0,000 mm 0,0 UV-I 0 W/m 2,3 C 4,9 C 0,0 km/h (0 Bft) 96,30 %
22.03.2016 19:59 4,9 C 83 % 1010,1 hPa 0,0 l/m 0,0 km/h (0 Bft) W 265 0 min 0,000 mm 0,0 UV-I 0 W/m 2,3 C 4,9 C 0,0 km/h (0 Bft) 96,15 %
22.03.2016 20:00 4,9 C 83 % 1010,1 hPa 0,0 l/m 0,0 km/h (0 Bft) W 265 0 min 0,000 mm 0,0 UV-I 0 W/m 2,3 C 4,9 C 0,0 km/h (0 Bft) 100,00 %
22.03.2016 20:01 5,0 C 83 % 1010,1 hPa 0,0 l/m 0,0 km/h (0 Bft) W 265 0 min 0,000 mm 0,0 UV-I 0 W/m 2,4 C 5,0 C 0,0 km/h (0 Bft) 95,65 %
22.03.2016 20:02 4,9 C 83 % 1010,1 hPa 0,0 l/m 0,0 km/h (0 Bft) W 265 0 min 0,000 mm 0,0 UV-I 0 W/m 2,3 C 4,9 C 0,0 km/h (0 Bft) 100,00 %
22.03.2016 20:03 5,0 C 84 % 1010,1 hPa 0,0 l/m 0,0 km/h (0 Bft) W 265 0 min 0,000 mm 0,0 UV-I 0 W/m 2,5 C 5,0 C 0,0 km/h (0 Bft) 95,65 %
22.03.2016 20:04 5,0 C 84 % 1010,2 hPa 0,0 l/m 0,1 km/h (0 Bft) W 265 0 min 0,000 mm 0,0 UV-I 0 W/m 2,5 C 5,0 C 1,6 km/h (1 Bft) 100,00 %
22.03.2016 20:05 5,0 C 84 % 1010,2 hPa 0,0 l/m 0,0 km/h (0 Bft) W 265 0 min 0,000 mm 0,0 UV-I 0 W/m 2,5 C 5,0 C 0,0 km/h (0 Bft) 91,67 %
22.03.2016 20:06 5,0 C 83 % 1010,2 hPa 0,0 l/m 0,1 km/h (0 Bft) W 265 0 min 0,000 mm 0,0 UV-I 0 W/m 2,4 C 5,0 C 1,6 km/h (1 Bft) 100,00 %
22.03.2016 20:07 5,0 C 82 % 1010,2 hPa 0,0 l/m 0,0 km/h (0 Bft) W 265 0 min 0,000 mm 0,0 UV-I 0 W/m 2,2 C 5,0 C 0,0 km/h (0 Bft) 95,83 %
22.03.2016 20:08 5,1 C 82 % 1010,2 hPa 0,0 l/m 0,2 km/h (0 Bft) W 265 0 min 0,000 mm 0,0 UV-I 0 W/m 2,3 C 5,1 C 1,6 km/h (1 Bft) 96,15 %
22.03.2016 20:09 5,1 C 82 % 1010,1 hPa 0,0 l/m 0,2 km/h (0 Bft) W 265 0 min 0,000 mm 0,0 UV-I 0 W/m 2,3 C 5,1 C 1,6 km/h (1 Bft) 100,00 %
22.03.2016 20:10 5,1 C 82 % 1010,2 hPa 0,0 l/m 0,2 km/h (0 Bft) W 265 0 min 0,000 mm 0,0 UV-I 0 W/m 2,3 C 5,1 C 1,6 km/h (1 Bft) 95,65 %
22.03.2016 20:11 5,1 C 82 % 1010,2 hPa 0,0 l/m 0,1 km/h (0 Bft) W 265 0 min 0,000 mm 0,0 UV-I 0 W/m 2,3 C 5,1 C 1,6 km/h (1 Bft) 100,00 %
22.03.2016 20:12 5,0 C 83 % 1010,1 hPa 0,0 l/m 0,1 km/h (0 Bft) W 265 0 min 0,000 mm 0,0 UV-I 0 W/m 2,4 C 5,0 C 1,6 km/h (1 Bft) 95,65 %
22.03.2016 20:13 5,0 C 83 % 1010,1 hPa 0,0 l/m 0,0 km/h (0 Bft) W 265 0 min 0,000 mm 0,0 UV-I 0 W/m 2,4 C 5,0 C 0,0 km/h (0 Bft) 100,00 %
22.03.2016 20:14 4,9 C 84 % 1010,2 hPa 0,0 l/m 0,0 km/h (0 Bft) W 265 0 min 0,000 mm 0,0 UV-I 0 W/m 2,4 C 4,9 C 0,0 km/h (0 Bft) 91,30 %
22.03.2016 20:15 4,9 C 84 % 1010,1 hPa 0,0 l/m 0,0 km/h (0 Bft) W 265 0 min 0,000 mm 0,0 UV-I 0 W/m 2,4 C 4,9 C 0,0 km/h (0 Bft) 95,83 %
22.03.2016 20:16 4,9 C 84 % 1010,2 hPa 0,0 l/m 0,1 km/h (0 Bft) W 265 0 min 0,000 mm 0,0 UV-I 0 W/m 2,4 C 4,9 C 1,6 km/h (1 Bft) 100,00 %
22.03.2016 20:17 4,8 C 84 % 1010,2 hPa 0,0 l/m 0,0 km/h (0 Bft) W 265 0 min 0,000 mm 0,0 UV-I 0 W/m 2,3 C 4,8 C 0,0 km/h (0 Bft) 95,83 %
22.03.2016 20:18 4,8 C 85 % 1010,2 hPa 0,0 l/m 0,0 km/h (0 Bft) W 265 0 min 0,000 mm 0,0 UV-I 0 W/m 2,5 C 4,8 C 0,0 km/h (0 Bft) 100,00 %
22.03.2016 20:19 4,8 C 85 % 1010,1 hPa 0,0 l/m 0,0 km/h (0 Bft) W 265 0 min 0,000 mm 0,0 UV-I 0 W/m 2,5 C 4,8 C 0,0 km/h (0 Bft) 96,15 %
22.03.2016 20:20 4,8 C 84 % 1010,1 hPa 0,0 l/m 0,0 km/h (0 Bft) W 265 0 min 0,000 mm 0,0 UV-I 0 W/m 2,3 C 4,8 C 0,0 km/h (0 Bft) 100,00 %
22.03.2016 20:21 4,8 C 84 % 1010,1 hPa 0,0 l/m 0,0 km/h (0 Bft) W 265 0 min 0,000 mm 0,0 UV-I 0 W/m 2,3 C 4,8 C 0,0 km/h (0 Bft) 96,15 %
22.03.2016 20:22 4,8 C 85 % 1010,1 hPa 0,0 l/m 0,0 km/h (0 Bft) W 265 0 min 0,000 mm 0,0 UV-I 0 W/m 2,5 C 4,8 C 0,0 km/h (0 Bft) 100,00 %
22.03.2016 20:23 4,8 C 85 % 1010,1 hPa 0,0 l/m 0,0 km/h (0 Bft) W 265 0 min 0,000 mm 0,0 UV-I 0 W/m 2,5 C 4,8 C 0,0 km/h (0 Bft) 91,30 %
22.03.2016 20:24 4,8 C 85 % 1010,1 hPa 0,0 l/m 0,0 km/h (0 Bft) W 265 0 min 0,000 mm 0,0 UV-I 0 W/m 2,5 C 4,8 C 0,0 km/h (0 Bft) 100,00 %
22.03.2016 20:25 4,8 C 85 % 1010,1 hPa 0,0 l/m 1,2 km/h (1 Bft) W 265 0 min 0,000 mm 0,0 UV-I 0 W/m 2,5 C 4,8 C 1,6 km/h (1 Bft) 95,65 %
22.03.2016 20:26 4,8 C 84 % 1010,1 hPa 0,0 l/m 1,5 km/h (1 Bft) W 265 0 min 0,000 mm 0,0 UV-I 0 W/m 2,3 C 4,8 C 1,6 km/h (1 Bft) 96,30 %
22.03.2016 20:27 4,8 C 84 % 1010,1 hPa 0,0 l/m 1,8 km/h (1 Bft) W 265 0 min 0,000 mm 0,0 UV-I 0 W/m 2,3 C 4,8 C 3,2 km/h (1 Bft) 100,00 %
22.03.2016 20:28 4,9 C 84 % 1010,1 hPa 0,0 l/m 1,5 km/h (1 Bft) W 265 0 min 0,000 mm 0,0 UV-I 0 W/m 2,4 C 4,9 C 1,6 km/h (1 Bft) 95,83 %
22.03.2016 20:29 4,9 C 83 % 1010,1 hPa 0,0 l/m 1,5 km/h (1 Bft) W 265 0 min 0,000 mm 0,0 UV-I 0 W/m 2,3 C 4,9 C 1,6 km/h (1 Bft) 100,00 %
22.03.2016 20:30 5,0 C 83 % 1010,1 hPa 0,0 l/m 1,7 km/h (1 Bft) W 265 0 min 0,000 mm 0,0 UV-I 0 W/m 2,4 C 5,0 C 3,2 km/h (1 Bft) 96,30 %
22.03.2016 20:31 5,0 C 84 % 1010,1 hPa 0,0 l/m 0,7 km/h (0 Bft) W 265 0 min 0,000 mm 0,0 UV-I 0 W/m 2,5 C 5,0 C 1,6 km/h (1 Bft) 93,10 %
22.03.2016 20:32 5,0 C 83 % 1010,1 hPa 0,0 l/m 0,0 km/h (0 Bft) W 265 0 min 0,000 mm 0,0 UV-I 0 W/m 2,4 C 5,0 C 0,0 km/h (0 Bft) 91,67 %
22.03.2016 20:33 5,0 C 84 % 1010,2 hPa 0,0 l/m 0,6 km/h (0 Bft) W 265 0 min 0,000 mm 0,0 UV-I 0 W/m 2,5 C 5,0 C 1,6 km/h (1 Bft) 100,00 %
22.03.2016 20:34 5,0 C 84 % 1010,1 hPa 0,0 l/m 0,5 km/h (0 Bft) W 265 0 min 0,000 mm 0,0 UV-I 0 W/m 2,5 C 5,0 C 1,6 km/h (1 Bft) 100,00 %
22.03.2016 20:35 5,0 C 83 % 1010,1 hPa 0,0 l/m 0,7 km/h (0 Bft) W 265 0 min 0,000 mm 0,0 UV-I 0 W/m 2,4 C 5,0 C 1,6 km/h (1 Bft) 100,00 %
22.03.2016 20:36 5,1 C 83 % 1010,1 hPa 0,0 l/m 1,1 km/h (1 Bft) W 265 0 min 0,000 mm 0,0 UV-I 0 W/m 2,5 C 5,1 C 1,6 km/h (1 Bft) 95,83 %
22.03.2016 20:37 5,1 C 83 % 1010,0 hPa 0,0 l/m 1,2 km/h (1 Bft) W 265 0 min 0,000 mm 0,0 UV-I 0 W/m 2,5 C 5,1 C 3,2 km/h (1 Bft) 100,00 %
22.03.2016 20:38 5,1 C 83 % 1010,1 hPa 0,0 l/m 1,4 km/h (1 Bft) W 265 0 min 0,000 mm 0,0 UV-I 0 W/m 2,5 C 5,1 C 3,2 km/h (1 Bft) 100,00 %
22.03.2016 20:39 5,1 C 83 % 1010,1 hPa 0,0 l/m 2,6 km/h (1 Bft) W 265 0 min 0,000 mm 0,0 UV-I 0 W/m 2,5 C 5,1 C 3,2 km/h (1 Bft) 100,00 %
22.03.2016 20:40 5,1 C 83 % 1010,1 hPa 0,0 l/m 3,1 km/h (1 Bft) W 265 0 min 0,000 mm 0,0 UV-I 0 W/m 2,5 C 5,1 C 3,2 km/h (1 Bft) 100,00 %
22.03.2016 20:41 5,1 C 83 % 1010,1 hPa 0,0 l/m 2,8 km/h (1 Bft) W 265 0 min 0,000 mm 0,0 UV-I 0 W/m 2,5 C 5,1 C 3,2 km/h (1 Bft) 95,65 %
22.03.2016 20:42 5,1 C 83 % 1010,1 hPa 0,0 l/m 1,7 km/h (1 Bft) W 265 0 min 0,000 mm 0,0 UV-I 0 W/m 2,5 C 5,1 C 3,2 km/h (1 Bft) 95,83 %
22.03.2016 20:43 5,1 C 83 % 1010,1 hPa 0,0 l/m 0,6 km/h (0 Bft) W 265 0 min 0,000 mm 0,0 UV-I 0 W/m 2,5 C 5,1 C 1,6 km/h (1 Bft) 100,00 %
22.03.2016 20:44 5,1 C 82 % 1010,1 hPa 0,0 l/m 0,7 km/h (0 Bft) W 265 0 min 0,000 mm 0,0 UV-I 0 W/m 2,3 C 5,1 C 1,6 km/h (1 Bft) 93,33 %
22.03.2016 20:45 5,1 C 82 % 1010,0 hPa 0,0 l/m 0,4 km/h (0 Bft) W 265 0 min 0,000 mm 0,0 UV-I 0 W/m 2,3 C 5,1 C 1,6 km/h (1 Bft) 100,00 %
22.03.2016 20:46 5,1 C 82 % 1010,1 hPa 0,0 l/m 0,8 km/h (0 Bft) W 265 0 min 0,000 mm 0,0 UV-I 0 W/m 2,3 C 5,1 C 1,6 km/h (1 Bft) 96,55 %
22.03.2016 20:47 5,1 C 83 % 1010,1 hPa 0,0 l/m 0,8 km/h (0 Bft) W 265 0 min 0,000 mm 0,0 UV-I 0 W/m 2,5 C 5,1 C 1,6 km/h (1 Bft) 100,00 %
22.03.2016 20:48 4,9 C 83 % 1010,1 hPa 0,0 l/m 0,2 km/h (0 Bft) W 265 0 min 0,000 mm 0,0 UV-I 0 W/m 2,3 C 4,9 C 1,6 km/h (1 Bft) 100,00 %
22.03.2016 20:49 4,9 C 84 % 1010,0 hPa 0,0 l/m 0,3 km/h (0 Bft) W 265 0 min 0,000 mm 0,0 UV-I 0 W/m 2,4 C 4,9 C 1,6 km/h (1 Bft) 100,00 %
22.03.2016 20:50 4,9 C 84 % 1010,0 hPa 0,0 l/m 0,0 km/h (0 Bft) W 265 0 min 0,000 mm 0,0 UV-I 0 W/m 2,4 C 4,9 C 0,0 km/h (0 Bft) 100,00 %
22.03.2016 20:51 4,8 C 84 % 1010,0 hPa 0,0 l/m 0,0 km/h (0 Bft) W 265 0 min 0,000 mm 0,0 UV-I 0 W/m 2,3 C 4,8 C 0,0 km/h (0 Bft) 100,00 %
22.03.2016 20:52 4,8 C 83 % 1010,0 hPa 0,0 l/m 0,0 km/h (0 Bft) W 265 0 min 0,000 mm 0,0 UV-I 0 W/m 2,2 C 4,8 C 0,0 km/h (0 Bft) 96,15 %
22.03.2016 20:53 4,9 C 82 % 1010,0 hPa 0,0 l/m 0,0 km/h (0 Bft) W 265 0 min 0,000 mm 0,0 UV-I 0 W/m 2,1 C 4,9 C 0,0 km/h (0 Bft) 100,00 %
22.03.2016 20:54 4,9 C 82 % 1010,0 hPa 0,0 l/m 0,1 km/h (0 Bft) W 265 0 min 0,000 mm 0,0 UV-I 0 W/m 2,1 C 4,9 C 1,6 km/h (1 Bft) 100,00 %
22.03.2016 20:55 4,9 C 83 % 1010,0 hPa 0,0 l/m 0,0 km/h (0 Bft) W 265 0 min 0,000 mm 0,0 UV-I 0 W/m 2,3 C 4,9 C 0,0 km/h (0 Bft) 100,00 %
22.03.2016 20:56 5,0 C 83 % 1010,0 hPa 0,0 l/m 0,0 km/h (0 Bft) W 265 0 min 0,000 mm 0,0 UV-I 0 W/m 2,4 C 5,0 C 0,0 km/h (0 Bft) 95,65 %
22.03.2016 20:57 5,0 C 82 % 1010,0 hPa 0,0 l/m 0,0 km/h (0 Bft) W 265 0 min 0,000 mm 0,0 UV-I 0 W/m 2,2 C 5,0 C 0,0 km/h (0 Bft) 100,00 %
22.03.2016 20:58 5,0 C 82 % 1010,0 hPa 0,0 l/m 0,0 km/h (0 Bft) W 265 0 min 0,000 mm 0,0 UV-I 0 W/m 2,2 C 5,0 C 0,0 km/h (0 Bft) 100,00 %
22.03.2016 20:59 5,1 C 82 % 1010,0 hPa 0,0 l/m 0,0 km/h (0 Bft) W 265 0 min 0,000 mm 0,0 UV-I 0 W/m 2,3 C 5,1 C 0,0 km/h (0 Bft) 96,15 %
22.03.2016 21:00 5,1 C 82 % 1010,0 hPa 0,0 l/m 0,0 km/h (0 Bft) W 265 0 min 0,000 mm 0,0 UV-I 0 W/m 2,3 C 5,1 C 0,0 km/h (0 Bft) 100,00 %
22.03.2016 21:01 5,1 C 83 % 1010,0 hPa 0,0 l/m 0,0 km/h (0 Bft) W 265 0 min 0,000 mm 0,0 UV-I 0 W/m 2,5 C 5,1 C 0,0 km/h (0 Bft) 100,00 %
22.03.2016 21:02 5,1 C 83 % 1010,0 hPa 0,0 l/m 0,0 km/h (0 Bft) W 265 0 min 0,000 mm 0,0 UV-I 0 W/m 2,5 C 5,1 C 0,0 km/h (0 Bft) 100,00 %
22.03.2016 21:03 5,1 C 83 % 1009,9 hPa 0,0 l/m 0,0 km/h (0 Bft) W 265 0 min 0,000 mm 0,0 UV-I 0 W/m 2,5 C 5,1 C 0,0 km/h (0 Bft) 100,00 %
22.03.2016 21:04 5,0 C 83 % 1010,0 hPa 0,0 l/m 0,1 km/h (0 Bft) W 265 0 min 0,000 mm 0,0 UV-I 0 W/m 2,4 C 5,0 C 1,6 km/h (1 Bft) 100,00 %
22.03.2016 21:05 5,0 C 84 % 1010,0 hPa 0,0 l/m 0,6 km/h (0 Bft) W 265 0 min 0,000 mm 0,0 UV-I 0 W/m 2,5 C 5,0 C 1,6 km/h (1 Bft) 100,00 %
22.03.2016 21:06 4,9 C 84 % 1010,0 hPa 0,0 l/m 0,5 km/h (0 Bft) W 265 0 min 0,000 mm 0,0 UV-I 0 W/m 2,4 C 4,9 C 1,6 km/h (1 Bft) 100,00 %
22.03.2016 21:07 4,9 C 83 % 1010,0 hPa 0,0 l/m 0,3 km/h (0 Bft) W 265 0 min 0,000 mm 0,0 UV-I 0 W/m 2,3 C 4,9 C 1,6 km/h (1 Bft) 100,00 %
22.03.2016 21:08 5,0 C 83 % 1010,0 hPa 0,0 l/m 0,1 km/h (0 Bft) W 265 0 min 0,000 mm 0,0 UV-I 0 W/m 2,4 C 5,0 C 1,6 km/h (1 Bft) 100,00 %
22.03.2016 21:09 5,0 C 82 % 1010,0 hPa 0,0 l/m 0,1 km/h (0 Bft) W 265 0 min 0,000 mm 0,0 UV-I 0 W/m 2,2 C 5,0 C 1,6 km/h (1 Bft) 100,00 %
22.03.2016 21:10 5,0 C 82 % 1010,0 hPa 0,0 l/m 1,5 km/h (1 Bft) W 265 0 min 0,000 mm 0,0 UV-I 0 W/m 2,2 C 5,0 C 3,2 km/h (1 Bft) 100,00 %
22.03.2016 21:11 5,0 C 83 % 1009,9 hPa 0,0 l/m 2,2 km/h (1 Bft) W 265 0 min 0,000 mm 0,0 UV-I 0 W/m 2,4 C 5,0 C 3,2 km/h (1 Bft) 100,00 %
22.03.2016 21:12 5,0 C 83 % 1009,9 hPa 0,0 l/m 0,5 km/h (0 Bft) W 265 0 min 0,000 mm 0,0 UV-I 0 W/m 2,4 C 5,0 C 1,6 km/h (1 Bft) 100,00 %
22.03.2016 21:13 4,9 C 83 % 1009,9 hPa 0,0 l/m 0,9 km/h (0 Bft) W 265 0 min 0,000 mm 0,0 UV-I 0 W/m 2,3 C 4,9 C 1,6 km/h (1 Bft) 100,00 %
22.03.2016 21:14 4,9 C 83 % 1009,9 hPa 0,0 l/m 1,4 km/h (1 Bft) W 265 0 min 0,000 mm 0,0 UV-I 0 W/m 2,3 C 4,9 C 1,6 km/h (1 Bft) 100,00 %
22.03.2016 21:15 4,9 C 84 % 1009,9 hPa 0,0 l/m 1,4 km/h (1 Bft) W 265 0 min 0,000 mm 0,0 UV-I 0 W/m 2,4 C 4,9 C 1,6 km/h (1 Bft) 96,15 %
22.03.2016 21:16 4,9 C 84 % 1009,9 hPa 0,0 l/m 1,2 km/h (1 Bft) W 265 0 min 0,000 mm 0,0 UV-I 0 W/m 2,4 C 4,9 C 1,6 km/h (1 Bft) 100,00 %
22.03.2016 21:17 4,9 C 85 % 1009,9 hPa 0,0 l/m 0,4 km/h (0 Bft) W 265 0 min 0,000 mm 0,0 UV-I 0 W/m 2,6 C 4,9 C 1,6 km/h (1 Bft) 95,65 %
22.03.2016 21:18 4,8 C 85 % 1009,8 hPa 0,0 l/m 0,0 km/h (0 Bft) W 265 0 min 0,000 mm 0,0 UV-I 0 W/m 2,5 C 4,8 C 0,0 km/h (0 Bft) 100,00 %
22.03.2016 21:19 4,8 C 85 % 1009,8 hPa 0,0 l/m 0,0 km/h (0 Bft) W 265 0 min 0,000 mm 0,0 UV-I 0 W/m 2,5 C 4,8 C 0,0 km/h (0 Bft) 100,00 %
22.03.2016 21:20 4,8 C 85 % 1009,8 hPa 0,0 l/m 0,0 km/h (0 Bft) W 265 0 min 0,000 mm 0,0 UV-I 0 W/m 2,5 C 4,8 C 0,0 km/h (0 Bft) 100,00 %
22.03.2016 21:21 4,8 C 85 % 1009,8 hPa 0,0 l/m 0,0 km/h (0 Bft) W 265 0 min 0,000 mm 0,0 UV-I 0 W/m 2,5 C 4,8 C 0,0 km/h (0 Bft) 100,00 %
22.03.2016 21:22 4,8 C 85 % 1009,8 hPa 0,0 l/m 0,0 km/h (0 Bft) W 265 0 min 0,000 mm 0,0 UV-I 0 W/m 2,5 C 4,8 C 0,0 km/h (0 Bft) 100,00 %
22.03.2016 21:23 4,8 C 85 % 1009,8 hPa 0,0 l/m 0,0 km/h (0 Bft) W 265 0 min 0,000 mm 0,0 UV-I 0 W/m 2,5 C 4,8 C 0,0 km/h (0 Bft) 100,00 %
22.03.2016 21:24 4,8 C 86 % 1009,8 hPa 0,0 l/m 0,0 km/h (0 Bft) W 265 0 min 0,000 mm 0,0 UV-I 0 W/m 2,7 C 4,8 C 0,0 km/h (0 Bft) 100,00 %
22.03.2016 21:25 4,8 C 86 % 1009,7 hPa 0,0 l/m 0,0 km/h (0 Bft) W 265 0 min 0,000 mm 0,0 UV-I 0 W/m 2,7 C 4,8 C 0,0 km/h (0 Bft) 100,00 %
22.03.2016 21:26 4,7 C 86 % 1009,7 hPa 0,0 l/m 0,1 km/h (0 Bft) W 265 0 min 0,000 mm 0,0 UV-I 0 W/m 2,6 C 4,7 C 1,6 km/h (1 Bft) 100,00 %
22.03.2016 21:27 4,7 C 86 % 1009,7 hPa 0,0 l/m 0,0 km/h (0 Bft) W 265 0 min 0,000 mm 0,0 UV-I 0 W/m 2,6 C 4,7 C 0,0 km/h (0 Bft) 100,00 %
22.03.2016 21:28 4,7 C 86 % 1009,7 hPa 0,0 l/m 0,0 km/h (0 Bft) W 265 0 min 0,000 mm 0,0 UV-I 0 W/m 2,6 C 4,7 C 0,0 km/h (0 Bft) 100,00 %
22.03.2016 21:29 4,6 C 86 % 1009,7 hPa 0,0 l/m 0,0 km/h (0 Bft) W 265 0 min 0,000 mm 0,0 UV-I 0 W/m 2,5 C 4,6 C 0,0 km/h (0 Bft) 100,00 %
22.03.2016 21:30 4,6 C 86 % 1009,7 hPa 0,0 l/m 0,0 km/h (0 Bft) W 265 0 min 0,000 mm 0,0 UV-I 0 W/m 2,5 C 4,6 C 0,0 km/h (0 Bft) 100,00 %
22.03.2016 21:31 4,6 C 87 % 1009,7 hPa 0,0 l/m 0,0 km/h (0 Bft) W 265 0 min 0,000 mm 0,0 UV-I 0 W/m 2,6 C 4,6 C 0,0 km/h (0 Bft) 100,00 %
22.03.2016 21:32 4,6 C 86 % 1009,7 hPa 0,0 l/m 0,0 km/h (0 Bft) W 265 0 min 0,000 mm 0,0 UV-I 0 W/m 2,5 C 4,6 C 0,0 km/h (0 Bft) 100,00 %
22.03.2016 21:33 4,6 C 86 % 1009,7 hPa 0,0 l/m 0,0 km/h (0 Bft) W 265 0 min 0,000 mm 0,0 UV-I 0 W/m 2,5 C 4,6 C 0,0 km/h (0 Bft) 100,00 %
22.03.2016 21:34 4,6 C 86 % 1009,7 hPa 0,0 l/m 0,0 km/h (0 Bft) W 265 0 min 0,000 mm 0,0 UV-I 0 W/m 2,5 C 4,6 C 0,0 km/h (0 Bft) 100,00 %
22.03.2016 21:35 4,6 C 85 % 1009,7 hPa 0,0 l/m 0,0 km/h (0 Bft) W 265 0 min 0,000 mm 0,0 UV-I 0 W/m 2,3 C 4,6 C 0,0 km/h (0 Bft) 100,00 %
22.03.2016 21:36 4,7 C 85 % 1009,7 hPa 0,0 l/m 0,0 km/h (0 Bft) W 265 0 min 0,000 mm 0,0 UV-I 0 W/m 2,4 C 4,7 C 0,0 km/h (0 Bft) 100,00 %
22.03.2016 21:37 4,7 C 84 % 1009,7 hPa 0,0 l/m 0,0 km/h (0 Bft) W 265 0 min 0,000 mm 0,0 UV-I 0 W/m 2,2 C 4,7 C 0,0 km/h (0 Bft) 100,00 %
22.03.2016 21:38 4,8 C 85 % 1009,7 hPa 0,0 l/m 0,1 km/h (0 Bft) W 265 0 min 0,000 mm 0,0 UV-I 0 W/m 2,5 C 4,8 C 1,6 km/h (1 Bft) 100,00 %
22.03.2016 21:39 4,8 C 84 % 1009,7 hPa 0,0 l/m 0,1 km/h (0 Bft) W 265 0 min 0,000 mm 0,0 UV-I 0 W/m 2,3 C 4,8 C 1,6 km/h (1 Bft) 100,00 %
22.03.2016 21:40 4,8 C 84 % 1009,7 hPa 0,0 l/m 0,3 km/h (0 Bft) W 265 0 min 0,000 mm 0,0 UV-I 0 W/m 2,3 C 4,8 C 1,6 km/h (1 Bft) 100,00 %
22.03.2016 21:41 4,8 C 84 % 1009,7 hPa 0,0 l/m 0,5 km/h (0 Bft) W 265 0 min 0,000 mm 0,0 UV-I 0 W/m 2,3 C 4,8 C 1,6 km/h (1 Bft) 100,00 %
22.03.2016 21:42 4,8 C 83 % 1009,7 hPa 0,0 l/m 1,6 km/h (1 Bft) W 265 0 min 0,000 mm 0,0 UV-I 0 W/m 2,2 C 4,8 C 3,2 km/h (1 Bft) 100,00 %
22.03.2016 21:43 4,8 C 82 % 1009,7 hPa 0,0 l/m 1,4 km/h (1 Bft) W 265 0 min 0,000 mm 0,0 UV-I 0 W/m 2,0 C 4,8 C 1,6 km/h (1 Bft) 96,15 %
22.03.2016 21:44 4,8 C 82 % 1009,7 hPa 0,0 l/m 0,1 km/h (0 Bft) W 265 0 min 0,000 mm 0,0 UV-I 0 W/m 2,0 C 4,8 C 1,6 km/h (1 Bft) 100,00 %
22.03.2016 21:45 4,8 C 82 % 1009,7 hPa 0,0 l/m 0,1 km/h (0 Bft) W 265 0 min 0,000 mm 0,0 UV-I 0 W/m 2,0 C 4,8 C 1,6 km/h (1 Bft) 100,00 %
22.03.2016 21:46 4,8 C 83 % 1009,7 hPa 0,0 l/m 0,4 km/h (0 Bft) W 265 0 min 0,000 mm 0,0 UV-I 0 W/m 2,2 C 4,8 C 1,6 km/h (1 Bft) 100,00 %
22.03.2016 21:47 4,8 C 83 % 1009,7 hPa 0,0 l/m 0,8 km/h (0 Bft) W 265 0 min 0,000 mm 0,0 UV-I 0 W/m 2,2 C 4,8 C 1,6 km/h (1 Bft) 100,00 %
22.03.2016 21:48 4,8 C 84 % 1009,6 hPa 0,0 l/m 1,2 km/h (1 Bft) W 265 0 min 0,000 mm 0,0 UV-I 0 W/m 2,3 C 4,8 C 1,6 km/h (1 Bft) 100,00 %
22.03.2016 21:49 4,8 C 84 % 1009,6 hPa 0,0 l/m 1,4 km/h (1 Bft) W 265 0 min 0,000 mm 0,0 UV-I 0 W/m 2,3 C 4,8 C 1,6 km/h (1 Bft) 100,00 %
22.03.2016 21:50 4,8 C 84 % 1009,6 hPa 0,0 l/m 0,3 km/h (0 Bft) W 265 0 min 0,000 mm 0,0 UV-I 0 W/m 2,3 C 4,8 C 1,6 km/h (1 Bft) 100,00 %
22.03.2016 21:51 4,8 C 84 % 1009,6 hPa 0,0 l/m 0,9 km/h (0 Bft) W 265 0 min 0,000 mm 0,0 UV-I 0 W/m 2,3 C 4,8 C 1,6 km/h (1 Bft) 95,65 %
22.03.2016 21:52 4,8 C 84 % 1009,5 hPa 0,0 l/m 0,4 km/h (0 Bft) W 265 0 min 0,000 mm 0,0 UV-I 0 W/m 2,3 C 4,8 C 1,6 km/h (1 Bft) 100,00 %
22.03.2016 21:53 4,8 C 84 % 1009,5 hPa 0,0 l/m 0,3 km/h (0 Bft) W 265 0 min 0,000 mm 0,0 UV-I 0 W/m 2,3 C 4,8 C 1,6 km/h (1 Bft) 100,00 %
22.03.2016 21:54 4,8 C 85 % 1009,5 hPa 0,0 l/m 0,0 km/h (0 Bft) W 265 0 min 0,000 mm 0,0 UV-I 0 W/m 2,5 C 4,8 C 0,0 km/h (0 Bft) 100,00 %
22.03.2016 21:55 4,7 C 85 % 1009,5 hPa 0,0 l/m 0,1 km/h (0 Bft) W 265 0 min 0,000 mm 0,0 UV-I 0 W/m 2,4 C 4,7 C 1,6 km/h (1 Bft) 95,65 %
22.03.2016 21:56 4,7 C 85 % 1009,5 hPa 0,0 l/m 0,2 km/h (0 Bft) W 265 0 min 0,000 mm 0,0 UV-I 0 W/m 2,4 C 4,7 C 1,6 km/h (1 Bft) 100,00 %
22.03.2016 21:57 4,7 C 84 % 1009,5 hPa 0,0 l/m 0,1 km/h (0 Bft) W 265 0 min 0,000 mm 0,0 UV-I 0 W/m 2,2 C 4,7 C 1,6 km/h (1 Bft) 100,00 %
22.03.2016 21:58 4,7 C 83 % 1009,5 hPa 0,0 l/m 0,0 km/h (0 Bft) W 265 0 min 0,000 mm 0,0 UV-I 0 W/m 2,1 C 4,7 C 0,0 km/h (0 Bft) 100,00 %
22.03.2016 21:59 4,7 C 83 % 1009,5 hPa 0,0 l/m 0,0 km/h (0 Bft) W 265 0 min 0,000 mm 0,0 UV-I 0 W/m 2,1 C 4,7 C 0,0 km/h (0 Bft) 100,00 %
22.03.2016 22:00 4,7 C 83 % 1009,5 hPa 0,0 l/m 0,1 km/h (0 Bft) W 265 0 min 0,000 mm 0,0 UV-I 0 W/m 2,1 C 4,7 C 1,6 km/h (1 Bft) 95,65 %
22.03.2016 22:01 4,7 C 84 % 1009,5 hPa 0,0 l/m 0,1 km/h (0 Bft) W 265 0 min 0,000 mm 0,0 UV-I 0 W/m 2,2 C 4,7 C 1,6 km/h (1 Bft) 95,83 %
22.03.2016 22:02 4,7 C 84 % 1009,5 hPa 0,0 l/m 0,0 km/h (0 Bft) W 265 0 min 0,000 mm 0,0 UV-I 0 W/m 2,2 C 4,7 C 0,0 km/h (0 Bft) 100,00 %
22.03.2016 22:03 4,7 C 84 % 1009,5 hPa 0,0 l/m 0,0 km/h (0 Bft) W 265 0 min 0,000 mm 0,0 UV-I 0 W/m 2,2 C 4,7 C 0,0 km/h (0 Bft) 95,83 %
22.03.2016 22:04 4,6 C 85 % 1009,4 hPa 0,0 l/m 0,0 km/h (0 Bft) W 265 0 min 0,000 mm 0,0 UV-I 0 W/m 2,3 C 4,6 C 0,0 km/h (0 Bft) 100,00 %
22.03.2016 22:05 4,6 C 85 % 1009,5 hPa 0,0 l/m 0,2 km/h (0 Bft) W 265 0 min 0,000 mm 0,0 UV-I 0 W/m 2,3 C 4,6 C 1,6 km/h (1 Bft) 95,83 %
22.03.2016 22:06 4,6 C 85 % 1009,5 hPa 0,0 l/m 1,5 km/h (1 Bft) W 265 0 min 0,000 mm 0,0 UV-I 0 W/m 2,3 C 4,6 C 3,2 km/h (1 Bft) 100,00 %
22.03.2016 22:07 4,6 C 85 % 1009,5 hPa 0,0 l/m 2,0 km/h (1 Bft) W 265 0 min 0,000 mm 0,0 UV-I 0 W/m 2,3 C 4,6 C 3,2 km/h (1 Bft) 96,30 %
22.03.2016 22:08 4,7 C 84 % 1009,4 hPa 0,0 l/m 2,0 km/h (1 Bft) W 265 0 min 0,000 mm 0,0 UV-I 0 W/m 2,2 C 4,7 C 3,2 km/h (1 Bft) 92,31 %
22.03.2016 22:09 4,7 C 84 % 1009,5 hPa 0,0 l/m 2,4 km/h (1 Bft) W 265 0 min 0,000 mm 0,0 UV-I 0 W/m 2,2 C 4,7 C 3,2 km/h (1 Bft) 98,65 %
22.03.2016 22:10 4,7 C 84 % 1009,4 hPa 0,0 l/m 2,4 km/h (1 Bft) W 265 0 min 0,000 mm 0,0 UV-I 0 W/m 2,2 C 4,7 C 3,2 km/h (1 Bft) 97,56 %
22.03.2016 22:11 4,7 C 84 % 1009,4 hPa 0,0 l/m 2,7 km/h (1 Bft) W 265 0 min 0,000 mm 0,0 UV-I 0 W/m 2,2 C 4,7 C 3,2 km/h (1 Bft) 100,00 %
22.03.2016 22:12 4,7 C 84 % 1009,4 hPa 0,0 l/m 3,2 km/h (1 Bft) W 265 0 min 0,000 mm 0,0 UV-I 0 W/m 2,2 C 4,7 C 4,8 km/h (1 Bft) 95,65 %
22.03.2016 22:13 4,7 C 84 % 1009,4 hPa 0,0 l/m 2,9 km/h (1 Bft) W 265 0 min 0,000 mm 0,0 UV-I 0 W/m 2,2 C 4,7 C 3,2 km/h (1 Bft) 100,00 %
22.03.2016 22:14 4,7 C 84 % 1009,4 hPa 0,0 l/m 1,4 km/h (1 Bft) W 265 0 min 0,000 mm 0,0 UV-I 0 W/m 2,2 C 4,7 C 3,2 km/h (1 Bft) 95,65 %
22.03.2016 22:15 4,7 C 85 % 1009,4 hPa 0,0 l/m 0,3 km/h (0 Bft) W 265 0 min 0,000 mm 0,0 UV-I 0 W/m 2,4 C 4,7 C 1,6 km/h (1 Bft) 100,00 %
22.03.2016 22:16 4,7 C 84 % 1009,4 hPa 0,0 l/m 0,6 km/h (0 Bft) W 265 0 min 0,000 mm 0,0 UV-I 0 W/m 2,2 C 4,7 C 1,6 km/h (1 Bft) 95,83 %
22.03.2016 22:17 4,7 C 84 % 1009,4 hPa 0,0 l/m 0,8 km/h (0 Bft) W 265 0 min 0,000 mm 0,0 UV-I 0 W/m 2,2 C 4,7 C 1,6 km/h (1 Bft) 100,00 %
22.03.2016 22:18 4,7 C 84 % 1009,4 hPa 0,0 l/m 0,8 km/h (0 Bft) W 265 0 min 0,000 mm 0,0 UV-I 0 W/m 2,2 C 4,7 C 1,6 km/h (1 Bft) 95,83 %
22.03.2016 22:19 4,7 C 84 % 1009,4 hPa 0,0 l/m 0,5 km/h (0 Bft) W 265 0 min 0,000 mm 0,0 UV-I 0 W/m 2,2 C 4,7 C 1,6 km/h (1 Bft) 96,15 %
22.03.2016 22:20 4,6 C 84 % 1009,4 hPa 0,0 l/m 0,7 km/h (0 Bft) W 265 0 min 0,000 mm 0,0 UV-I 0 W/m 2,1 C 4,6 C 1,6 km/h (1 Bft) 100,00 %
22.03.2016 22:21 4,6 C 84 % 1009,4 hPa 0,0 l/m 0,8 km/h (0 Bft) W 265 0 min 0,000 mm 0,0 UV-I 0 W/m 2,1 C 4,6 C 1,6 km/h (1 Bft) 95,65 %
22.03.2016 22:22 4,6 C 85 % 1009,4 hPa 0,0 l/m 0,0 km/h (0 Bft) W 265 0 min 0,000 mm 0,0 UV-I 0 W/m 2,3 C 4,6 C 0,0 km/h (0 Bft) 100,00 %
22.03.2016 22:23 4,6 C 85 % 1009,4 hPa 0,0 l/m 0,0 km/h (0 Bft) W 265 0 min 0,000 mm 0,0 UV-I 0 W/m 2,3 C 4,6 C 0,0 km/h (0 Bft) 95,65 %
22.03.2016 22:24 4,6 C 84 % 1009,4 hPa 0,0 l/m 0,0 km/h (0 Bft) W 265 0 min 0,000 mm 0,0 UV-I 0 W/m 2,1 C 4,6 C 0,0 km/h (0 Bft) 100,00 %
22.03.2016 22:25 4,6 C 84 % 1009,3 hPa 0,0 l/m 0,0 km/h (0 Bft) W 265 0 min 0,000 mm 0,0 UV-I 0 W/m 2,1 C 4,6 C 0,0 km/h (0 Bft) 95,65 %
22.03.2016 22:26 4,6 C 85 % 1009,4 hPa 0,0 l/m 0,1 km/h (0 Bft) W 265 0 min 0,000 mm 0,0 UV-I 0 W/m 2,3 C 4,6 C 1,6 km/h (1 Bft) 95,83 %
22.03.2016 22:27 4,7 C 84 % 1009,4 hPa 0,0 l/m 0,3 km/h (0 Bft) W 265 0 min 0,000 mm 0,0 UV-I 0 W/m 2,2 C 4,7 C 1,6 km/h (1 Bft) 100,00 %
22.03.2016 22:28 4,7 C 84 % 1009,3 hPa 0,0 l/m 0,1 km/h (0 Bft) W 265 0 min 0,000 mm 0,0 UV-I 0 W/m 2,2 C 4,7 C 1,6 km/h (1 Bft) 95,83 %
22.03.2016 22:29 4,7 C 84 % 1009,3 hPa 0,0 l/m 0,0 km/h (0 Bft) W 265 0 min 0,000 mm 0,0 UV-I 0 W/m 2,2 C 4,7 C 0,0 km/h (0 Bft) 100,00 %
22.03.2016 22:30 4,7 C 84 % 1009,3 hPa 0,0 l/m 0,0 km/h (0 Bft) W 265 0 min 0,000 mm 0,0 UV-I 0 W/m 2,2 C 4,7 C 0,0 km/h (0 Bft) 96,30 %
22.03.2016 22:31 4,7 C 85 % 1009,3 hPa 0,0 l/m 0,0 km/h (0 Bft) W 265 0 min 0,000 mm 0,0 UV-I 0 W/m 2,4 C 4,7 C 0,0 km/h (0 Bft) 100,00 %
22.03.2016 22:32 4,7 C 84 % 1009,3 hPa 0,0 l/m 0,1 km/h (0 Bft) W 265 0 min 0,000 mm 0,0 UV-I 0 W/m 2,2 C 4,7 C 1,6 km/h (1 Bft) 95,83 %
22.03.2016 22:33 4,7 C 84 % 1009,3 hPa 0,0 l/m 0,1 km/h (0 Bft) W 265 0 min 0,000 mm 0,0 UV-I 0 W/m 2,2 C 4,7 C 1,6 km/h (1 Bft) 100,00 %
22.03.2016 22:34 4,7 C 84 % 1009,2 hPa 0,0 l/m 0,1 km/h (0 Bft) W 265 0 min 0,000 mm 0,0 UV-I 0 W/m 2,2 C 4,7 C 1,6 km/h (1 Bft) 100,00 %
22.03.2016 22:35 4,7 C 83 % 1009,3 hPa 0,0 l/m 0,1 km/h (0 Bft) W 265 0 min 0,000 mm 0,0 UV-I 0 W/m 2,1 C 4,7 C 1,6 km/h (1 Bft) 91,30 %
22.03.2016 22:36 4,7 C 84 % 1009,3 hPa 0,0 l/m 0,1 km/h (0 Bft) W 265 0 min 0,000 mm 0,0 UV-I 0 W/m 2,2 C 4,7 C 1,6 km/h (1 Bft) 100,00 %
22.03.2016 22:37 4,7 C 83 % 1009,3 hPa 0,0 l/m 0,1 km/h (0 Bft) W 265 0 min 0,000 mm 0,0 UV-I 0 W/m 2,1 C 4,7 C 1,6 km/h (1 Bft) 100,00 %
22.03.2016 22:38 4,7 C 83 % 1009,2 hPa 0,0 l/m 0,0 km/h (0 Bft) W 265 0 min 0,000 mm 0,0 UV-I 0 W/m 2,1 C 4,7 C 0,0 km/h (0 Bft) 100,00 %
22.03.2016 22:39 4,8 C 83 % 1009,3 hPa 0,0 l/m 0,0 km/h (0 Bft) W 265 0 min 0,000 mm 0,0 UV-I 0 W/m 2,2 C 4,8 C 0,0 km/h (0 Bft) 100,00 %
22.03.2016 22:40 4,7 C 83 % 1009,3 hPa 0,0 l/m 0,1 km/h (0 Bft) W 265 0 min 0,000 mm 0,0 UV-I 0 W/m 2,1 C 4,7 C 1,6 km/h (1 Bft) 100,00 %
22.03.2016 22:41 4,7 C 84 % 1009,3 hPa 0,0 l/m 0,7 km/h (0 Bft) W 265 0 min 0,000 mm 0,0 UV-I 0 W/m 2,2 C 4,7 C 3,2 km/h (1 Bft) 96,30 %
22.03.2016 22:42 4,7 C 84 % 1009,3 hPa 0,0 l/m 0,0 km/h (0 Bft) W 265 0 min 0,000 mm 0,0 UV-I 0 W/m 2,2 C 4,7 C 0,0 km/h (0 Bft) 100,00 %
22.03.2016 22:43 4,7 C 86 % 1009,2 hPa 0,0 l/m 0,0 km/h (0 Bft) W 265 0 min 0,000 mm 0,0 UV-I 0 W/m 2,6 C 4,7 C 0,0 km/h (0 Bft) 100,00 %
22.03.2016 22:44 4,6 C 86 % 1009,2 hPa 0,0 l/m 0,1 km/h (0 Bft) W 265 0 min 0,000 mm 0,0 UV-I 0 W/m 2,5 C 4,6 C 1,6 km/h (1 Bft) 100,00 %
22.03.2016 22:45 4,6 C 87 % 1009,2 hPa 0,0 l/m 0,0 km/h (0 Bft) W 265 0 min 0,000 mm 0,0 UV-I 0 W/m 2,6 C 4,6 C 0,0 km/h (0 Bft) 100,00 %
22.03.2016 22:46 4,4 C 87 % 1009,2 hPa 0,0 l/m 0,0 km/h (0 Bft) W 265 0 min 0,000 mm 0,0 UV-I 0 W/m 2,4 C 4,4 C 0,0 km/h (0 Bft) 100,00 %
22.03.2016 22:47 4,4 C 86 % 1009,1 hPa 0,0 l/m 0,1 km/h (0 Bft) W 265 0 min 0,000 mm 0,0 UV-I 0 W/m 2,3 C 4,4 C 1,6 km/h (1 Bft) 100,00 %
22.03.2016 22:48 4,4 C 86 % 1009,1 hPa 0,0 l/m 1,4 km/h (1 Bft) W 265 0 min 0,000 mm 0,0 UV-I 0 W/m 2,3 C 4,4 C 1,6 km/h (1 Bft) 100,00 %
22.03.2016 22:49 4,4 C 86 % 1009,1 hPa 0,0 l/m 1,7 km/h (1 Bft) W 265 0 min 0,000 mm 0,0 UV-I 0 W/m 2,3 C 4,4 C 3,2 km/h (1 Bft) 100,00 %
22.03.2016 22:50 4,4 C 86 % 1009,1 hPa 0,0 l/m 3,1 km/h (1 Bft) N-NW 345 0 min 0,000 mm 0,0 UV-I 0 W/m 2,3 C 4,4 C 3,2 km/h (1 Bft) 100,00 %
22.03.2016 22:51 4,4 C 86 % 1009,1 hPa 0,0 l/m 3,2 km/h (1 Bft) N-NW 345 0 min 0,000 mm 0,0 UV-I 0 W/m 2,3 C 4,4 C 4,8 km/h (1 Bft) 96,30 %
22.03.2016 22:52 4,4 C 87 % 1009,1 hPa 0,0 l/m 1,9 km/h (1 Bft) N-NW 345 0 min 0,000 mm 0,0 UV-I 0 W/m 2,4 C 4,4 C 3,2 km/h (1 Bft) 95,65 %
22.03.2016 22:53 4,4 C 87 % 1009,1 hPa 0,0 l/m 1,3 km/h (1 Bft) N-NW 345 0 min 0,000 mm 0,0 UV-I 0 W/m 2,4 C 4,4 C 1,6 km/h (1 Bft) 100,00 %
22.03.2016 22:54 4,4 C 87 % 1009,1 hPa 0,0 l/m 1,1 km/h (1 Bft) N-NW 345 0 min 0,000 mm 0,0 UV-I 0 W/m 2,4 C 4,4 C 1,6 km/h (1 Bft) 100,00 %
22.03.2016 22:55 4,3 C 87 % 1009,1 hPa 0,0 l/m 1,0 km/h (0 Bft) N-NW 345 0 min 0,000 mm 0,0 UV-I 0 W/m 2,3 C 4,3 C 1,6 km/h (1 Bft) 100,00 %
22.03.2016 22:56 4,3 C 87 % 1009,1 hPa 0,0 l/m 0,8 km/h (0 Bft) N-NW 345 0 min 0,000 mm 0,0 UV-I 0 W/m 2,3 C 4,3 C 1,6 km/h (1 Bft) 100,00 %
22.03.2016 22:57 4,3 C 87 % 1009,1 hPa 0,0 l/m 0,4 km/h (0 Bft) N-NW 345 0 min 0,000 mm 0,0 UV-I 0 W/m 2,3 C 4,3 C 1,6 km/h (1 Bft) 100,00 %
22.03.2016 22:58 4,3 C 87 % 1009,1 hPa 0,0 l/m 0,0 km/h (0 Bft) N-NW 345 0 min 0,000 mm 0,0 UV-I 0 W/m 2,3 C 4,3 C 0,0 km/h (0 Bft) 100,00 %
22.03.2016 22:59 4,3 C 87 % 1009,1 hPa 0,0 l/m 0,0 km/h (0 Bft) N-NW 345 0 min 0,000 mm 0,0 UV-I 0 W/m 2,3 C 4,3 C 0,0 km/h (0 Bft) 100,00 %
22.03.2016 23:00 4,3 C 87 % 1009,1 hPa 0,0 l/m 0,0 km/h (0 Bft) N-NW 345 0 min 0,000 mm 0,0 UV-I 0 W/m 2,3 C 4,3 C 0,0 km/h (0 Bft) 100,00 %
22.03.2016 23:01 4,4 C 87 % 1009,0 hPa 0,0 l/m 0,0 km/h (0 Bft) N-NW 345 0 min 0,000 mm 0,0 UV-I 0 W/m 2,4 C 4,4 C 0,0 km/h (0 Bft) 100,00 %
22.03.2016 23:02 4,4 C 87 % 1009,1 hPa 0,0 l/m 0,0 km/h (0 Bft) N-NW 345 0 min 0,000 mm 0,0 UV-I 0 W/m 2,4 C 4,4 C 0,0 km/h (0 Bft) 100,00 %
22.03.2016 23:03 4,4 C 87 % 1009,1 hPa 0,0 l/m 0,0 km/h (0 Bft) N-NW 345 0 min 0,000 mm 0,0 UV-I 0 W/m 2,4 C 4,4 C 0,0 km/h (0 Bft) 100,00 %
22.03.2016 23:04 4,4 C 87 % 1009,1 hPa 0,0 l/m 0,0 km/h (0 Bft) N-NW 345 0 min 0,000 mm 0,0 UV-I 0 W/m 2,4 C 4,4 C 0,0 km/h (0 Bft) 100,00 %
22.03.2016 23:05 4,4 C 87 % 1009,1 hPa 0,0 l/m 0,0 km/h (0 Bft) N-NW 345 0 min 0,000 mm 0,0 UV-I 0 W/m 2,4 C 4,4 C 0,0 km/h (0 Bft) 100,00 %
22.03.2016 23:06 4,4 C 87 % 1009,1 hPa 0,0 l/m 0,0 km/h (0 Bft) N-NW 345 0 min 0,000 mm 0,0 UV-I 0 W/m 2,4 C 4,4 C 0,0 km/h (0 Bft) 100,00 %
22.03.2016 23:07 4,5 C 87 % 1009,0 hPa 0,0 l/m 0,0 km/h (0 Bft) N-NW 345 0 min 0,000 mm 0,0 UV-I 0 W/m 2,5 C 4,5 C 0,0 km/h (0 Bft) 100,00 %
22.03.2016 23:08 4,4 C 87 % 1009,1 hPa 0,0 l/m 0,0 km/h (0 Bft) N-NW 345 0 min 0,000 mm 0,0 UV-I 0 W/m 2,4 C 4,4 C 0,0 km/h (0 Bft) 100,00 %
22.03.2016 23:09 4,4 C 87 % 1009,1 hPa 0,0 l/m 0,0 km/h (0 Bft) N-NW 345 0 min 0,000 mm 0,0 UV-I 0 W/m 2,4 C 4,4 C 0,0 km/h (0 Bft) 100,00 %
22.03.2016 23:10 4,4 C 88 % 1009,1 hPa 0,0 l/m 0,0 km/h (0 Bft) N-NW 345 0 min 0,000 mm 0,0 UV-I 0 W/m 2,6 C 4,4 C 0,0 km/h (0 Bft) 100,00 %
22.03.2016 23:11 4,4 C 88 % 1009,0 hPa 0,0 l/m 0,0 km/h (0 Bft) N-NW 345 0 min 0,000 mm 0,0 UV-I 0 W/m 2,6 C 4,4 C 0,0 km/h (0 Bft) 100,00 %
22.03.2016 23:12 4,3 C 88 % 1009,0 hPa 0,0 l/m 0,0 km/h (0 Bft) N-NW 345 0 min 0,000 mm 0,0 UV-I 0 W/m 2,5 C 4,3 C 0,0 km/h (0 Bft) 96,30 %
22.03.2016 23:13 4,3 C 88 % 1009,0 hPa 0,0 l/m 0,0 km/h (0 Bft) N-NW 345 0 min 0,000 mm 0,0 UV-I 0 W/m 2,5 C 4,3 C 0,0 km/h (0 Bft) 100,00 %
22.03.2016 23:14 4,3 C 89 % 1009,0 hPa 0,0 l/m 0,5 km/h (0 Bft) N-NW 345 0 min 0,000 mm 0,0 UV-I 0 W/m 2,7 C 4,3 C 1,6 km/h (1 Bft) 100,00 %
22.03.2016 23:15 4,3 C 88 % 1009,0 hPa 0,0 l/m 0,2 km/h (0 Bft) N-NW 345 0 min 0,000 mm 0,0 UV-I 0 W/m 2,5 C 4,3 C 1,6 km/h (1 Bft) 100,00 %
22.03.2016 23:16 4,2 C 88 % 1009,0 hPa 0,0 l/m 0,1 km/h (0 Bft) N-NW 345 0 min 0,000 mm 0,0 UV-I 0 W/m 2,4 C 4,2 C 1,6 km/h (1 Bft) 100,00 %
22.03.2016 23:17 4,2 C 87 % 1009,0 hPa 0,0 l/m 0,1 km/h (0 Bft) N-NW 345 0 min 0,000 mm 0,0 UV-I 0 W/m 2,2 C 4,2 C 1,6 km/h (1 Bft) 100,00 %
22.03.2016 23:18 4,2 C 87 % 1009,0 hPa 0,0 l/m 0,0 km/h (0 Bft) N-NW 345 0 min 0,000 mm 0,0 UV-I 0 W/m 2,2 C 4,2 C 0,0 km/h (0 Bft) 100,00 %
22.03.2016 23:19 4,2 C 87 % 1009,0 hPa 0,0 l/m 0,1 km/h (0 Bft) N-NW 345 0 min 0,000 mm 0,0 UV-I 0 W/m 2,2 C 4,2 C 1,6 km/h (1 Bft) 95,65 %
22.03.2016 23:20 4,2 C 87 % 1009,0 hPa 0,0 l/m 0,0 km/h (0 Bft) N-NW 345 0 min 0,000 mm 0,0 UV-I 0 W/m 2,2 C 4,2 C 0,0 km/h (0 Bft) 100,00 %
22.03.2016 23:21 4,2 C 87 % 1009,0 hPa 0,0 l/m 0,0 km/h (0 Bft) N-NW 345 0 min 0,000 mm 0,0 UV-I 0 W/m 2,2 C 4,2 C 0,0 km/h (0 Bft) 100,00 %
22.03.2016 23:22 4,2 C 87 % 1009,0 hPa 0,0 l/m 0,0 km/h (0 Bft) N-NW 345 0 min 0,000 mm 0,0 UV-I 0 W/m 2,2 C 4,2 C 0,0 km/h (0 Bft) 100,00 %
22.03.2016 23:23 4,2 C 87 % 1008,9 hPa 0,0 l/m 0,0 km/h (0 Bft) N-NW 345 0 min 0,000 mm 0,0 UV-I 0 W/m 2,2 C 4,2 C 0,0 km/h (0 Bft) 100,00 %
22.03.2016 23:24 4,2 C 87 % 1009,0 hPa 0,0 l/m 0,0 km/h (0 Bft) N-NW 345 0 min 0,000 mm 0,0 UV-I 0 W/m 2,2 C 4,2 C 0,0 km/h (0 Bft) 100,00 %
22.03.2016 23:25 4,2 C 87 % 1009,0 hPa 0,0 l/m 0,0 km/h (0 Bft) N-NW 345 0 min 0,000 mm 0,0 UV-I 0 W/m 2,2 C 4,2 C 0,0 km/h (0 Bft) 100,00 %
22.03.2016 23:26 4,2 C 88 % 1009,0 hPa 0,0 l/m 0,0 km/h (0 Bft) N-NW 345 0 min 0,000 mm 0,0 UV-I 0 W/m 2,4 C 4,2 C 0,0 km/h (0 Bft) 100,00 %
22.03.2016 23:27 4,1 C 88 % 1008,9 hPa 0,0 l/m 0,0 km/h (0 Bft) N-NW 345 0 min 0,000 mm 0,0 UV-I 0 W/m 2,3 C 4,1 C 0,0 km/h (0 Bft) 100,00 %
22.03.2016 23:28 4,1 C 88 % 1008,9 hPa 0,0 l/m 0,0 km/h (0 Bft) N-NW 345 0 min 0,000 mm 0,0 UV-I 0 W/m 2,3 C 4,1 C 0,0 km/h (0 Bft) 100,00 %
22.03.2016 23:29 4,1 C 88 % 1008,9 hPa 0,0 l/m 0,0 km/h (0 Bft) N-NW 345 0 min 0,000 mm 0,0 UV-I 0 W/m 2,3 C 4,1 C 0,0 km/h (0 Bft) 100,00 %
22.03.2016 23:30 4,1 C 88 % 1008,9 hPa 0,0 l/m 0,0 km/h (0 Bft) N-NW 345 0 min 0,000 mm 0,0 UV-I 0 W/m 2,3 C 4,1 C 0,0 km/h (0 Bft) 100,00 %
22.03.2016 23:31 4,1 C 88 % 1008,9 hPa 0,0 l/m 0,0 km/h (0 Bft) N-NW 345 0 min 0,000 mm 0,0 UV-I 0 W/m 2,3 C 4,1 C 0,0 km/h (0 Bft) 100,00 %
22.03.2016 23:32 4,1 C 88 % 1008,9 hPa 0,0 l/m 0,0 km/h (0 Bft) N-NW 345 0 min 0,000 mm 0,0 UV-I 0 W/m 2,3 C 4,1 C 0,0 km/h (0 Bft) 100,00 %
22.03.2016 23:33 4,1 C 88 % 1008,9 hPa 0,0 l/m 0,0 km/h (0 Bft) N-NW 345 0 min 0,000 mm 0,0 UV-I 0 W/m 2,3 C 4,1 C 0,0 km/h (0 Bft) 100,00 %
22.03.2016 23:34 4,1 C 87 % 1008,9 hPa 0,0 l/m 0,0 km/h (0 Bft) N-NW 345 0 min 0,000 mm 0,0 UV-I 0 W/m 2,1 C 4,1 C 0,0 km/h (0 Bft) 95,65 %
22.03.2016 23:35 4,1 C 87 % 1009,0 hPa 0,0 l/m 0,1 km/h (0 Bft) N-NW 345 0 min 0,000 mm 0,0 UV-I 0 W/m 2,1 C 4,1 C 1,6 km/h (1 Bft) 100,00 %
22.03.2016 23:36 4,1 C 88 % 1008,9 hPa 0,0 l/m 1,0 km/h (0 Bft) N-NW 345 0 min 0,000 mm 0,0 UV-I 0 W/m 2,3 C 4,1 C 1,6 km/h (1 Bft) 100,00 %
22.03.2016 23:37 4,2 C 88 % 1008,9 hPa 0,0 l/m 1,9 km/h (1 Bft) N-NW 345 0 min 0,000 mm 0,0 UV-I 0 W/m 2,4 C 4,2 C 3,2 km/h (1 Bft) 100,00 %
22.03.2016 23:38 4,2 C 88 % 1009,0 hPa 0,0 l/m 1,9 km/h (1 Bft) N-NW 345 0 min 0,000 mm 0,0 UV-I 0 W/m 2,4 C 4,2 C 3,2 km/h (1 Bft) 100,00 %
22.03.2016 23:39 4,2 C 88 % 1008,9 hPa 0,0 l/m 2,7 km/h (1 Bft) N-NW 345 0 min 0,000 mm 0,0 UV-I 0 W/m 2,4 C 4,2 C 3,2 km/h (1 Bft) 100,00 %
22.03.2016 23:40 4,2 C 87 % 1009,0 hPa 0,0 l/m 2,5 km/h (1 Bft) N-NW 345 0 min 0,000 mm 0,0 UV-I 0 W/m 2,2 C 4,2 C 3,2 km/h (1 Bft) 100,00 %
22.03.2016 23:41 4,2 C 87 % 1008,9 hPa 0,0 l/m 2,5 km/h (1 Bft) N-NW 347 0 min 0,000 mm 0,0 UV-I 0 W/m 2,2 C 4,2 C 4,8 km/h (1 Bft) 100,00 %
22.03.2016 23:42 4,3 C 86 % 1009,0 hPa 0,0 l/m 2,2 km/h (1 Bft) N-NW 348 0 min 0,000 mm 0,0 UV-I 0 W/m 2,2 C 4,3 C 3,2 km/h (1 Bft) 96,30 %
22.03.2016 23:43 4,3 C 86 % 1008,9 hPa 0,0 l/m 2,2 km/h (1 Bft) N-NW 348 0 min 0,000 mm 0,0 UV-I 0 W/m 2,2 C 4,3 C 3,2 km/h (1 Bft) 100,00 %
22.03.2016 23:44 4,4 C 86 % 1008,9 hPa 0,0 l/m 0,6 km/h (0 Bft) N-NW 348 0 min 0,000 mm 0,0 UV-I 0 W/m 2,3 C 4,4 C 1,6 km/h (1 Bft) 100,00 %
22.03.2016 23:45 4,4 C 85 % 1008,9 hPa 0,0 l/m 0,1 km/h (0 Bft) N-NW 348 0 min 0,000 mm 0,0 UV-I 0 W/m 2,1 C 4,4 C 1,6 km/h (1 Bft) 100,00 %
22.03.2016 23:46 4,4 C 85 % 1008,9 hPa 0,0 l/m 0,4 km/h (0 Bft) N-NW 348 0 min 0,000 mm 0,0 UV-I 0 W/m 2,1 C 4,4 C 1,6 km/h (1 Bft) 100,00 %
22.03.2016 23:47 4,4 C 85 % 1009,0 hPa 0,0 l/m 0,0 km/h (0 Bft) N-NW 348 0 min 0,000 mm 0,0 UV-I 0 W/m 2,1 C 4,4 C 0,0 km/h (0 Bft) 100,00 %
22.03.2016 23:48 4,4 C 85 % 1009,0 hPa 0,0 l/m 0,0 km/h (0 Bft) N-NW 348 0 min 0,000 mm 0,0 UV-I 0 W/m 2,1 C 4,4 C 0,0 km/h (0 Bft) 95,83 %
22.03.2016 23:49 4,4 C 87 % 1009,0 hPa 0,0 l/m 0,0 km/h (0 Bft) N-NW 348 0 min 0,000 mm 0,0 UV-I 0 W/m 2,4 C 4,4 C 0,0 km/h (0 Bft) 100,00 %
22.03.2016 23:50 4,4 C 87 % 1008,9 hPa 0,0 l/m 0,0 km/h (0 Bft) N-NW 348 0 min 0,000 mm 0,0 UV-I 0 W/m 2,4 C 4,4 C 0,0 km/h (0 Bft) 100,00 %
22.03.2016 23:51 4,4 C 87 % 1008,9 hPa 0,0 l/m 0,0 km/h (0 Bft) N-NW 348 0 min 0,000 mm 0,0 UV-I 0 W/m 2,4 C 4,4 C 0,0 km/h (0 Bft) 100,00 %
22.03.2016 23:52 4,3 C 87 % 1008,9 hPa 0,0 l/m 0,0 km/h (0 Bft) N-NW 348 0 min 0,000 mm 0,0 UV-I 0 W/m 2,3 C 4,3 C 0,0 km/h (0 Bft) 100,00 %
22.03.2016 23:53 4,3 C 87 % 1008,9 hPa 0,0 l/m 0,0 km/h (0 Bft) N-NW 348 0 min 0,000 mm 0,0 UV-I 0 W/m 2,3 C 4,3 C 0,0 km/h (0 Bft) 100,00 %
22.03.2016 23:54 4,3 C 87 % 1008,9 hPa 0,0 l/m 0,0 km/h (0 Bft) N-NW 348 0 min 0,000 mm 0,0 UV-I 0 W/m 2,3 C 4,3 C 0,0 km/h (0 Bft) 100,00 %
22.03.2016 23:55 4,3 C 87 % 1008,9 hPa 0,0 l/m 0,2 km/h (0 Bft) N-NW 348 0 min 0,000 mm 0,0 UV-I 0 W/m 2,3 C 4,3 C 1,6 km/h (1 Bft) 100,00 %
22.03.2016 23:56 4,3 C 87 % 1008,9 hPa 0,0 l/m 0,2 km/h (0 Bft) N-NW 348 0 min 0,000 mm 0,0 UV-I 0 W/m 2,3 C 4,3 C 1,6 km/h (1 Bft) 100,00 %
22.03.2016 23:57 4,3 C 87 % 1008,9 hPa 0,0 l/m 0,1 km/h (0 Bft) N-NW 348 0 min 0,000 mm 0,0 UV-I 0 W/m 2,3 C 4,3 C 1,6 km/h (1 Bft) 100,00 %
22.03.2016 23:58 4,3 C 87 % 1008,9 hPa 0,0 l/m 0,1 km/h (0 Bft) N-NW 348 0 min 0,000 mm 0,0 UV-I 0 W/m 2,3 C 4,3 C 1,6 km/h (1 Bft) 100,00 %
22.03.2016 23:59 4,3 C 87 % 1008,9 hPa 0,0 l/m 0,0 km/h (0 Bft) N-NW 348 0 min 0,000 mm 0,0 UV-I 0 W/m 2,3 C 4,3 C 0,0 km/h (0 Bft) 100,00 %
_ Min-Zeit 23:27 11:54 23:23 - 19:07 - - - - - - 16:40 04:07 19:07 02:34
Minimum _ 4,1 C 56 % 1008,9 hPa - 0,0 km/h (0 Bft) - - - - - - 0,4 C -3,0 C 0,0 km/h (0 Bft) 86,67 %
_ Max-Zeit 11:54 23:14 00:00 00:00 04:07 - - 13:02 12:00 11:50 11:50 11:35 11:53 12:26 00:00
Maximum _ 10,4 C 89 % 1014,0 hPa 0,0 l/m 18,9 km/h
SW (3 Bft)
- - 2 min 0,254 mm 3,1 UV-I 948 W/m 3,8 C 10,3 C 27,4 km/h
W-SW (4 Bft)
100,00 %
Durchschnitt _ 6,0 C 76 % 1011,3 hPa #0,0 l/m 6,3 km/h (2 Bft) W-SW - #1:39 h #1,397 mm 1,1 UV-I 185 W/m 2,1 C 4,8 C 9,5 km/h (2 Bft) 98,69 %